[[{"header":{"parameterUnit":"m.s-1","parameterCategory":1,"la1":30.6,"la2":29.2853,"lo1":-89.7004,"lo2":-87.6739,"dy":0.0162,"dx":0.0183,"nx":112,"ny":82,"refTime":"2024-05-22T18:00:00:Z","depth":0,"parameterNumber":2,"parameterNumberName":"U-component_of_WINDS"},"data":[0.0,0.0,0.0,0.0,0.0,0.0,0.0,0.0,0.0,0.0,0.0,0.0,0.0,0.0,0.0,0.0,0.0,0.0,0.0,0.0,0.0,0.0,0.0,0.0,0.0,0.0,0.0,0.0,0.0,0.0,0.0,0.0,0.0,0.0,0.0,0.0,0.0,0.0,0.0,0.0,0.0,0.0,0.0,0.0,0.0,0.0,0.0,0.0,0.0,0.0,0.0,0.0,0.0,0.0,0.0,0.0,0.0,0.0,0.0,0.0,0.0,0.0,0.0,0.0,0.0,0.0,0.0,0.0,0.0,0.0,0.0,0.0,0.0,0.0,0.0,0.0,0.0,0.0,0.0,0.0,0.0,0.0,0.0,0.0,0.0,0.0,0.0,0.0,0.0,0.0,-5.4216,-5.7795,-6.0217,-6.1539,-6.1429,-6.0676,-5.8547,-5.4656,0.0,0.0,0.0,0.0,0.0,0.0,0.0,0.0,0.0,0.0,0.0,0.0,0.0,0.0,0.0,0.0,0.0,0.0,0.0,0.0,0.0,0.0,0.0,0.0,0.0,0.0,0.0,0.0,0.0,0.0,0.0,0.0,0.0,0.0,0.0,0.0,0.0,0.0,0.0,0.0,0.0,0.0,0.0,0.0,0.0,0.0,0.0,0.0,0.0,0.0,0.0,0.0,0.0,0.0,0.0,0.0,0.0,0.0,0.0,0.0,0.0,0.0,0.0,0.0,0.0,0.0,0.0,0.0,0.0,0.0,0.0,0.0,0.0,0.0,0.0,0.0,0.0,0.0,0.0,0.0,0.0,0.0,0.0,0.0,0.0,0.0,0.0,0.0,0.0,0.0,0.0,0.0,0.0,0.0,0.0,0.0,0.0,0.0,0.0,0.0,0.0,0.0,0.0,0.0,-5.3188,-5.845,-6.0566,-6.1318,-6.0639,-5.985,-5.7978,-5.462,0.0,0.0,0.0,0.0,0.0,0.0,0.0,0.0,0.0,0.0,0.0,0.0,0.0,0.0,0.0,0.0,0.0,0.0,0.0,0.0,0.0,0.0,0.0,0.0,0.0,0.0,0.0,0.0,0.0,0.0,0.0,0.0,0.0,0.0,0.0,0.0,0.0,0.0,0.0,0.0,0.0,0.0,0.0,0.0,0.0,0.0,0.0,0.0,0.0,0.0,0.0,0.0,0.0,0.0,0.0,0.0,0.0,0.0,0.0,0.0,0.0,0.0,0.0,0.0,0.0,0.0,0.0,0.0,0.0,0.0,0.0,0.0,0.0,0.0,0.0,0.0,0.0,0.0,0.0,0.0,0.0,0.0,0.0,0.0,0.0,0.0,0.0,0.0,0.0,0.0,0.0,0.0,0.0,0.0,0.0,0.0,0.0,0.0,0.0,0.0,0.0,0.0,0.0,-5.2747,-5.4418,-5.8726,-5.9869,-6.0162,-5.9795,-5.8597,-5.6712,-5.394,-5.2179,0.0,0.0,0.0,0.0,0.0,0.0,0.0,0.0,0.0,0.0,0.0,0.0,0.0,0.0,0.0,0.0,0.0,0.0,0.0,0.0,0.0,0.0,0.0,0.0,0.0,0.0,0.0,0.0,0.0,0.0,0.0,0.0,0.0,0.0,0.0,0.0,0.0,0.0,0.0,0.0,0.0,0.0,0.0,0.0,0.0,0.0,0.0,0.0,0.0,0.0,0.0,0.0,0.0,0.0,0.0,0.0,0.0,0.0,0.0,0.0,0.0,0.0,0.0,0.0,0.0,0.0,0.0,0.0,0.0,0.0,0.0,0.0,0.0,0.0,0.0,0.0,0.0,0.0,0.0,0.0,0.0,0.0,0.0,0.0,0.0,0.0,0.0,0.0,0.0,0.0,0.0,0.0,0.0,0.0,0.0,0.0,0.0,0.0,0.0,0.0,0.0,0.0,-5.4546,-5.6198,-5.8657,-5.9074,-5.9111,-5.8927,-5.7446,-5.5574,-5.3332,-5.0729,0.0,0.0,0.0,0.0,0.0,0.0,0.0,0.0,0.0,0.0,0.0,0.0,0.0,0.0,0.0,0.0,0.0,0.0,0.0,0.0,0.0,0.0,0.0,0.0,0.0,0.0,0.0,0.0,0.0,0.0,0.0,0.0,0.0,0.0,0.0,0.0,0.0,0.0,0.0,0.0,0.0,0.0,0.0,0.0,0.0,0.0,0.0,0.0,0.0,0.0,0.0,0.0,0.0,0.0,0.0,0.0,0.0,0.0,0.0,0.0,0.0,0.0,0.0,0.0,0.0,0.0,0.0,0.0,0.0,0.0,0.0,0.0,0.0,0.0,0.0,0.0,0.0,0.0,0.0,0.0,0.0,0.0,0.0,0.0,0.0,0.0,0.0,0.0,0.0,0.0,0.0,0.0,0.0,0.0,0.0,0.0,0.0,0.0,0.0,0.0,0.0,0.0,-5.4968,-5.7831,-5.8052,-5.8767,-5.8914,-5.8143,-5.6602,-5.4968,-5.3295,-5.0178,0.0,0.0,0.0,0.0,0.0,0.0,0.0,0.0,0.0,0.0,0.0,0.0,0.0,0.0,0.0,0.0,0.0,0.0,0.0,0.0,0.0,0.0,0.0,0.0,0.0,0.0,0.0,0.0,0.0,0.0,0.0,0.0,0.0,0.0,0.0,0.0,0.0,0.0,0.0,0.0,0.0,0.0,0.0,0.0,0.0,0.0,0.0,0.0,0.0,0.0,0.0,0.0,0.0,0.0,0.0,0.0,0.0,0.0,0.0,0.0,0.0,0.0,0.0,0.0,0.0,0.0,0.0,0.0,0.0,0.0,0.0,0.0,0.0,0.0,0.0,0.0,0.0,0.0,0.0,0.0,0.0,0.0,0.0,0.0,0.0,0.0,0.0,0.0,0.0,0.0,0.0,0.0,0.0,0.0,0.0,0.0,0.0,0.0,0.0,0.0,0.0,0.0,-5.3261,-5.5776,-5.7776,-5.7831,-5.7593,-5.7281,-5.5317,-5.3427,-5.1811,0.0,0.0,0.0,0.0,0.0,0.0,0.0,0.0,0.0,0.0,0.0,0.0,0.0,0.0,0.0,0.0,0.0,0.0,0.0,0.0,0.0,0.0,0.0,0.0,0.0,0.0,0.0,0.0,0.0,0.0,0.0,0.0,0.0,0.0,0.0,0.0,0.0,0.0,0.0,0.0,0.0,0.0,0.0,0.0,0.0,0.0,0.0,0.0,0.0,0.0,0.0,0.0,0.0,0.0,0.0,0.0,0.0,0.0,0.0,0.0,0.0,0.0,0.0,0.0,0.0,0.0,0.0,0.0,0.0,0.0,0.0,0.0,0.0,0.0,0.0,0.0,0.0,0.0,0.0,0.0,0.0,0.0,0.0,0.0,0.0,0.0,0.0,0.0,0.0,0.0,0.0,0.0,0.0,0.0,0.0,0.0,0.0,0.0,0.0,0.0,0.0,0.0,-5.0417,-5.2435,-5.4528,-5.6969,-5.6748,-5.6418,-5.6418,-5.4216,-5.2123,-5.0508,0.0,0.0,0.0,0.0,0.0,0.0,0.0,0.0,0.0,0.0,0.0,0.0,0.0,0.0,0.0,0.0,0.0,0.0,0.0,0.0,0.0,0.0,0.0,0.0,0.0,0.0,0.0,0.0,0.0,0.0,0.0,0.0,0.0,0.0,0.0,0.0,0.0,0.0,0.0,0.0,0.0,0.0,0.0,0.0,0.0,0.0,0.0,0.0,0.0,0.0,0.0,0.0,0.0,0.0,0.0,0.0,0.0,0.0,0.0,0.0,0.0,0.0,0.0,0.0,0.0,0.0,0.0,0.0,0.0,0.0,0.0,0.0,0.0,0.0,0.0,0.0,0.0,0.0,0.0,0.0,0.0,0.0,0.0,0.0,0.0,0.0,0.0,0.0,0.0,0.0,0.0,0.0,0.0,0.0,0.0,0.0,0.0,0.0,0.0,0.0,0.0,0.0,-5.0453,-5.2894,-5.4693,-5.55,-5.5574,-5.5596,-5.5578,-5.3374,-5.1298,0.0,0.0,0.0,0.0,0.0,0.0,0.0,0.0,0.0,0.0,0.0,0.0,0.0,0.0,0.0,0.0,0.0,0.0,0.0,0.0,0.0,0.0,0.0,0.0,0.0,0.0,0.0,0.0,0.0,0.0,0.0,0.0,0.0,0.0,0.0,0.0,0.0,0.0,0.0,0.0,0.0,0.0,0.0,0.0,0.0,0.0,0.0,0.0,0.0,0.0,0.0,0.0,0.0,0.0,0.0,0.0,0.0,0.0,0.0,0.0,0.0,0.0,0.0,0.0,0.0,0.0,0.0,0.0,0.0,0.0,0.0,0.0,0.0,0.0,0.0,0.0,0.0,0.0,0.0,0.0,0.0,0.0,0.0,0.0,0.0,0.0,0.0,0.0,0.0,0.0,0.0,0.0,0.0,0.0,0.0,0.0,0.0,0.0,0.0,0.0,0.0,0.0,0.0,-4.8802,-5.1683,-5.4087,-5.5445,-5.5078,-5.4528,-5.3959,-5.2215,-5.0215,-4.7994,0.0,0.0,0.0,0.0,0.0,0.0,0.0,0.0,0.0,0.0,0.0,0.0,0.0,0.0,0.0,0.0,0.0,0.0,0.0,0.0,0.0,0.0,0.0,0.0,0.0,0.0,0.0,0.0,0.0,0.0,0.0,0.0,0.0,0.0,0.0,0.0,0.0,0.0,0.0,0.0,0.0,0.0,0.0,0.0,0.0,0.0,0.0,0.0,0.0,0.0,0.0,0.0,0.0,0.0,0.0,0.0,0.0,0.0,0.0,0.0,0.0,0.0,0.0,0.0,0.0,0.0,0.0,0.0,0.0,0.0,0.0,0.0,0.0,0.0,0.0,0.0,0.0,0.0,0.0,0.0,0.0,0.0,0.0,0.0,0.0,0.0,0.0,0.0,0.0,0.0,0.0,0.0,0.0,0.0,0.0,0.0,0.0,0.0,0.0,0.0,0.0,0.0,-4.7608,-5.0692,-5.2968,-5.361,-5.3537,-5.3115,-5.2325,-5.1059,-4.926,-4.6764,0.0,0.0,0.0,0.0,0.0,0.0,0.0,0.0,0.0,0.0,0.0,0.0,0.0,0.0,0.0,0.0,0.0,0.0,0.0,0.0,0.0,0.0,0.0,0.0,0.0,0.0,0.0,0.0,0.0,0.0,0.0,0.0,0.0,0.0,0.0,0.0,0.0,0.0,0.0,0.0,0.0,0.0,0.0,0.0,0.0,0.0,0.0,0.0,0.0,0.0,0.0,0.0,0.0,0.0,0.0,0.0,0.0,0.0,0.0,0.0,0.0,0.0,0.0,0.0,0.0,0.0,0.0,0.0,0.0,0.0,0.0,0.0,0.0,0.0,0.0,0.0,0.0,0.0,0.0,0.0,0.0,0.0,0.0,0.0,0.0,0.0,0.0,0.0,0.0,0.0,0.0,0.0,0.0,0.0,0.0,0.0,0.0,0.0,0.0,0.0,0.0,0.0,-4.6782,-4.9793,-5.1518,-5.0875,-5.1444,-5.1555,-5.0765,-5.0033,-4.8582,-4.6159,0.0,0.0,0.0,0.0,0.0,0.0,0.0,0.0,0.0,0.0,0.0,0.0,0.0,0.0,0.0,0.0,0.0,0.0,0.0,0.0,0.0,0.0,0.0,0.0,0.0,0.0,0.0,0.0,0.0,0.0,0.0,0.0,0.0,0.0,0.0,0.0,0.0,0.0,0.0,0.0,0.0,0.0,0.0,0.0,0.0,0.0,0.0,0.0,0.0,0.0,0.0,0.0,0.0,0.0,0.0,0.0,0.0,0.0,0.0,0.0,-5.3197,0.0,0.0,0.0,0.0,0.0,0.0,0.0,0.0,0.0,0.0,0.0,0.0,0.0,0.0,0.0,0.0,0.0,0.0,0.0,0.0,0.0,0.0,0.0,0.0,0.0,0.0,0.0,0.0,0.0,0.0,0.0,0.0,0.0,0.0,0.0,0.0,0.0,0.0,0.0,0.0,0.0,-4.5957,-4.8471,-5.029,-5.0747,-5.0949,-5.0729,-4.9922,-4.9702,-4.8802,-4.6947,-4.5168,0.0,0.0,0.0,0.0,0.0,0.0,0.0,0.0,0.0,0.0,0.0,0.0,0.0,0.0,0.0,0.0,0.0,0.0,0.0,0.0,0.0,0.0,0.0,0.0,0.0,0.0,0.0,0.0,0.0,0.0,0.0,0.0,0.0,0.0,0.0,0.0,0.0,0.0,0.0,0.0,0.0,0.0,0.0,0.0,0.0,0.0,0.0,0.0,0.0,0.0,0.0,0.0,0.0,0.0,0.0,0.0,0.0,0.0,0.0,0.0,-5.328,0.0,0.0,0.0,0.0,0.0,0.0,0.0,0.0,0.0,0.0,0.0,0.0,0.0,0.0,0.0,0.0,0.0,0.0,0.0,0.0,0.0,0.0,0.0,0.0,0.0,0.0,0.0,0.0,0.0,0.0,0.0,0.0,0.0,0.0,0.0,0.0,0.0,0.0,0.0,0.0,-4.5223,-4.7829,-4.961,-4.9609,-4.9976,-4.9866,-4.904,-4.8967,-4.8434,-4.7186,-4.5241,0.0,0.0,0.0,0.0,0.0,0.0,0.0,0.0,0.0,0.0,0.0,0.0,0.0,0.0,0.0,0.0,0.0,0.0,0.0,0.0,0.0,0.0,0.0,0.0,0.0,0.0,0.0,0.0,0.0,0.0,0.0,0.0,0.0,0.0,0.0,0.0,0.0,0.0,0.0,0.0,0.0,0.0,0.0,0.0,0.0,0.0,0.0,0.0,0.0,0.0,0.0,0.0,0.0,-6.1465,-6.0723,-5.9238,-5.8926,-5.8789,-5.8652,-5.6079,-5.5148,-5.5326,-5.354,0.0,0.0,0.0,0.0,0.0,0.0,0.0,0.0,0.0,0.0,0.0,0.0,0.0,0.0,0.0,0.0,0.0,0.0,0.0,0.0,0.0,0.0,0.0,0.0,-5.0573,-4.9822,0.0,0.0,0.0,0.0,0.0,0.0,0.0,0.0,0.0,0.0,0.0,0.0,-4.5076,-4.7609,-4.9095,-4.8379,-4.893,-4.9077,-4.8361,-4.8306,-4.8012,-4.7351,-4.5314,-4.3699,0.0,0.0,0.0,0.0,0.0,0.0,0.0,0.0,0.0,0.0,0.0,0.0,0.0,0.0,0.0,0.0,0.0,0.0,0.0,0.0,0.0,0.0,0.0,0.0,0.0,0.0,0.0,0.0,0.0,0.0,0.0,0.0,-5.33,-5.4246,0.0,0.0,0.0,0.0,0.0,0.0,0.0,0.0,0.0,0.0,0.0,0.0,0.0,-6.3027,-6.3789,-6.539,-6.5781,-6.4922,-6.5683,-6.5527,-6.4531,-6.3027,-6.2324,-6.2226,-6.0332,0.0,-5.7165,-5.6096,0.0,0.0,0.0,0.0,0.0,0.0,0.0,0.0,0.0,0.0,0.0,0.0,0.0,0.0,0.0,0.0,0.0,0.0,0.0,0.0,0.0,0.0,-5.0414,-5.0625,-5.0673,-5.0547,0.0,-4.851,-4.6574,-4.458,-4.393,0.0,0.0,0.0,0.0,0.0,0.0,0.0,-4.6599,-4.7755,-4.8434,-4.8324,-4.8398,-4.8416,-4.8324,-4.8306,-4.8251,-4.8159,-4.7186,-4.5938,-4.4452,-4.2525,0.0,0.0,0.0,0.0,0.0,0.0,0.0,0.0,0.0,0.0,0.0,0.0,0.0,0.0,0.0,0.0,0.0,0.0,0.0,0.0,0.0,0.0,0.0,0.0,0.0,0.0,0.0,0.0,0.0,-5.4033,-5.5403,-5.5334,-5.6272,-5.6265,0.0,0.0,0.0,0.0,0.0,0.0,0.0,0.0,0.0,-6.3828,-6.4746,-6.5605,-6.6484,-6.7734,-6.793,-6.707,-6.7441,-6.7168,-6.6289,-6.5039,-6.4453,-6.4355,-6.2617,-6.1375,-6.0398,-5.7902,-5.6071,-5.4757,0.0,0.0,0.0,0.0,-5.2106,-5.2106,-5.2106,-5.2106,0.0,-5.102,0.0,0.0,0.0,0.0,0.0,0.0,0.0,0.0,0.0,0.0,-5.0808,-5.1279,-5.1355,-5.1315,-5.1282,-5.0505,-4.9023,0.0,-4.5582,-4.4798,-4.3106,0.0,0.0,0.0,0.0,-4.6305,-4.7003,-4.7791,-4.8306,-4.8306,-4.8306,-4.8306,-4.8306,-4.8306,-4.8306,-4.8306,-4.7535,-4.6782,-4.6085,-4.3644,-4.1589,0.0,0.0,0.0,0.0,0.0,0.0,0.0,0.0,0.0,0.0,0.0,0.0,0.0,0.0,0.0,0.0,0.0,0.0,0.0,0.0,0.0,0.0,0.0,0.0,0.0,0.0,0.0,0.0,-5.5631,-5.7185,-5.6549,-5.8303,-5.8669,0.0,0.0,0.0,0.0,0.0,0.0,-6.3453,-6.3844,-6.4785,-6.6523,-6.7422,-6.8281,-6.916,-6.9824,-6.9805,-6.918,-6.8711,-6.8164,-6.7519,-6.664,-6.6133,-6.5859,-6.4336,-6.3509,-6.302,-5.9732,-5.7839,-5.6853,-5.5615,-5.4607,-5.3799,-5.3356,-5.3203,-5.3203,-5.3203,-5.3203,-5.3029,-5.201,0.0,-5.1337,-4.9606,0.0,0.0,0.0,0.0,-5.0712,-5.0712,-5.0712,-5.0837,-5.1452,-5.1547,-5.1495,-5.1502,-5.1362,-5.0525,0.0,-4.7342,-4.6436,-4.4227,0.0,0.0,0.0,-4.6085,-4.7168,-4.7369,-4.792,-4.8306,-4.8306,-4.8306,-4.8306,-4.8306,-4.8306,-4.8306,-4.8306,-4.7535,-4.7003,-4.6801,-4.4305,-4.2451,-4.1425,0.0,0.0,0.0,0.0,0.0,0.0,0.0,0.0,0.0,0.0,0.0,0.0,0.0,0.0,0.0,0.0,0.0,0.0,0.0,0.0,0.0,0.0,0.0,0.0,0.0,0.0,0.0,0.0,0.0,-5.8258,-6.0597,0.0,0.0,0.0,0.0,-6.137,-6.2203,-6.3513,-6.5371,-6.625,-6.7461,-6.916,-7.0058,-7.0937,-7.1797,-7.1855,-7.1855,-7.1797,-7.0137,-6.9316,-6.9258,-6.8437,-6.7617,-6.6777,-6.5879,-6.4998,-6.4067,-6.1967,-6.0513,-5.9439,-5.76,-5.6349,-5.5376,-5.3799,-5.3203,-5.3203,-5.3203,-5.3203,-5.3318,-5.4068,-5.4299,-5.3972,-5.2231,-5.1731,0.0,0.0,-5.0712,-5.0712,-5.0712,-5.0712,-5.0712,-5.075,-5.0701,-5.0661,-5.065,-5.0309,-4.9817,0.0,-4.9171,-4.8912,-4.8126,0.0,-4.7223,-4.7957,-4.7498,-4.7369,-4.8141,-4.8269,-4.8306,-4.8306,-4.8306,-4.8306,-4.8306,-4.8306,-4.8306,-4.8306,-4.7535,-4.6746,-4.5993,-4.5076,-4.3846,-4.2268,-4.0579,0.0,0.0,0.0,0.0,0.0,0.0,0.0,0.0,0.0,0.0,0.0,0.0,0.0,0.0,0.0,0.0,0.0,0.0,0.0,0.0,0.0,0.0,0.0,0.0,0.0,0.0,0.0,0.0,-6.1619,-6.3573,0.0,-6.2536,-6.3649,-6.4508,-6.4679,-6.5538,-6.686,-6.8712,-6.9158,-6.9883,-7.1035,-7.1367,-7.1699,-7.1992,-7.1992,-7.1992,-7.1992,-7.1367,-7.0781,-7.0215,-6.9394,-6.8555,-6.7656,-6.6211,-6.5116,-6.4226,-6.3393,-6.2104,-6.0562,-5.9154,-5.8107,-5.7223,-5.6069,-5.528,-5.4799,-5.4799,-5.4799,-5.4761,-5.4568,-5.4126,-5.3549,-5.2933,-5.2741,-5.2683,-5.2395,-5.2318,-5.2183,-5.1625,-5.1471,-5.1337,-5.0827,-5.0643,-5.0593,-5.0542,-5.0382,-5.0032,-4.9405,-4.9129,-4.8664,-4.7684,-4.7718,-4.7791,-4.7553,-4.7718,-4.7994,-4.8269,-4.8306,-4.8306,-4.8306,-4.8306,-4.8306,-4.8306,-4.7828,-4.7516,-4.7516,-4.6783,-4.6195,-4.5902,-4.5131,-4.3939,-4.2323,-4.0708,-3.8175,0.0,0.0,0.0,0.0,0.0,0.0,0.0,0.0,0.0,0.0,0.0,0.0,0.0,0.0,0.0,0.0,0.0,0.0,0.0,0.0,0.0,0.0,0.0,0.0,0.0,-6.0527,-6.2693,-6.3504,-6.5652,-6.6533,-6.5122,-6.6243,-6.7242,-6.7655,-6.8306,-6.9356,-7.0914,-7.1088,-7.1406,-7.1972,-7.1992,-7.1992,-7.1992,-7.1992,-7.1992,-7.1992,-7.1699,-7.1113,-7.0273,-6.9726,-6.8847,-6.7695,-6.6543,-6.5389,-6.4266,-6.379,-6.282,-6.1565,-6.0761,-5.9733,-5.8607,-5.7742,-5.6703,-5.5703,-5.5703,-5.5703,-5.5607,-5.5068,-5.4511,-5.3991,-5.3722,-5.3645,-5.3587,-5.328,-5.3203,-5.301,-5.2135,-5.1904,-5.1692,-5.0894,-5.0633,-5.0542,-5.0511,-5.0435,-5.0137,-4.9453,-4.9129,-4.8647,-4.7665,-4.7957,-4.8122,-4.759,-4.7957,-4.8306,-4.8306,-4.8306,-4.8306,-4.8306,-4.8306,-4.8306,-4.8306,-4.7553,-4.7094,-4.7094,-4.6104,-4.5498,-4.5498,-4.447,-4.3387,-4.2323,-4.0451,-3.7949,-3.4816,0.0,0.0,0.0,0.0,0.0,0.0,0.0,0.0,0.0,0.0,0.0,0.0,0.0,0.0,0.0,0.0,0.0,0.0,0.0,0.0,0.0,0.0,0.0,-5.7352,-6.1716,-6.4616,-6.3862,-6.6773,-6.8526,-6.7694,-6.839,-6.9256,-7.0172,-7.035,-7.0838,-7.175,-7.1927,-7.1992,-7.1992,-7.1992,-7.1992,-7.1992,-7.1992,-7.1992,-7.1992,-7.1113,-7.0273,-6.9492,-6.9394,-6.8457,-6.6894,-6.6894,-6.5916,-6.4227,-6.3249,-6.2708,-6.2446,-6.2314,-6.1125,-5.9396,-5.8607,-5.7203,-5.5703,-5.5703,-5.5703,-5.5703,-5.5703,-5.5703,-5.5549,-5.4761,-5.453,-5.4357,-5.353,-5.328,-5.3068,-5.2173,-5.1942,-5.1731,-5.0894,-5.0603,-5.05,-5.05,-5.0412,-5.01,-4.9439,-4.9299,-4.9097,-4.842,-4.8306,-4.8306,-4.8306,-4.8306,0.0,-4.8306,-4.8306,-4.8306,-4.8306,-4.8306,-4.8306,-4.8306,-4.7535,-4.7058,-4.7058,-4.5553,-4.4672,-4.4672,-4.3167,-4.2304,-4.2268,-3.9918,-3.8081,-3.6823,0.0,0.0,0.0,0.0,0.0,0.0,0.0,0.0,0.0,0.0,0.0,0.0,0.0,0.0,0.0,0.0,0.0,0.0,0.0,0.0,0.0,-5.7526,-5.9515,-6.0741,-6.3254,-6.5566,-6.717,-6.8728,-6.9821,-7.0228,-7.046,-7.0767,-7.1123,-7.1258,-7.1477,-7.1789,-7.1927,-7.1992,-7.1992,-7.1992,-7.1992,-7.1992,-7.1992,-7.1992,-7.1992,-7.1113,-7.0254,-6.9414,-6.8808,-6.793,-6.6894,-6.6894,-6.5917,-6.4273,-6.4008,-6.3042,-6.1743,-6.1464,-6.0604,-5.9396,-5.8607,-5.7203,-5.5703,-5.5703,-5.5703,-5.5703,-5.5703,-5.5703,-5.5665,-5.5434,-5.5376,-5.5318,-5.5068,-5.5011,-5.4684,-5.3222,-5.2837,-5.2491,-5.1039,-5.0633,-5.0572,-5.0511,-5.0416,-5.0169,-4.9453,-4.9299,-4.9097,-4.842,-4.8306,-4.8306,-4.8306,-4.8306,0.0,-4.8306,-4.8306,-4.8306,-4.8306,-4.8306,-4.8306,-4.8306,-4.704,-4.6232,-4.6232,-4.4709,-4.3828,-4.3828,-4.3406,-4.2616,-4.1444,-3.9643,-3.8239,0.0,0.0,0.0,0.0,0.0,0.0,0.0,0.0,0.0,0.0,0.0,0.0,0.0,0.0,0.0,0.0,0.0,0.0,0.0,0.0,0.0,0.0,-6.0278,-6.2433,-6.3747,-6.5469,-6.7268,-6.9087,-7.0034,-7.0731,-7.1253,-7.1291,-7.1326,-7.1416,-7.1594,-7.1731,-7.1765,-7.1903,-7.1992,-7.1992,-7.1992,-7.1992,-7.1992,-7.1992,-7.1992,-7.1992,-7.1113,-7.0234,-6.9375,-6.8574,-6.7715,-6.6894,-6.6894,-6.5917,-6.4295,-6.4292,-6.3191,0.0,0.0,0.0,0.0,0.0,-5.6569,-5.5703,-5.5703,-5.5703,-5.5703,-5.5703,-5.5703,-5.5703,-5.5703,-5.5703,-5.5703,-5.5703,-5.5453,-5.4895,-5.3549,-5.2933,-5.2318,-5.101,-5.0643,-5.0593,-5.0542,-5.0468,-5.0217,-4.9655,-4.9424,0.0,-4.8604,-4.8402,-4.8306,-4.8306,-4.8306,-4.8306,-4.8306,-4.8306,-4.8306,-4.8306,-4.8306,-4.8306,-4.8306,-4.6838,0.0,0.0,0.0,-4.3349,-4.3002,-4.3002,0.0,0.0,0.0,0.0,0.0,0.0,0.0,0.0,-3.8448,-3.8265,0.0,0.0,0.0,0.0,0.0,0.0,0.0,0.0,0.0,0.0,0.0,0.0,0.0,0.0,0.0,0.0,-6.3419,-6.5373,-6.6475,-6.7965,-6.9203,-6.9918,-7.0769,-7.1291,-7.1291,-7.1291,-7.1291,-7.1291,-7.1544,-7.17,-7.17,-7.1891,0.0,0.0,0.0,-7.1992,-7.1992,-7.1992,-7.1992,-7.1992,-7.1015,-7.0156,-6.9375,-6.8476,-6.7637,-6.6894,-6.6894,-6.5918,-6.4295,-6.4295,-6.308,-6.1182,-6.0987,-5.984,-5.815,-5.6356,-5.5703,-5.5703,-5.5703,0.0,0.0,-5.5703,-5.5703,-5.5703,-5.5703,-5.5703,-5.5684,-5.5588,-5.5049,-5.428,-5.3318,-5.2481,-5.1692,-5.0894,-5.0653,-5.0603,-5.0603,-5.0519,-5.0325,-4.9962,-4.9584,-4.919,-4.8849,-4.8532,-4.8306,-4.8306,-4.8306,-4.8306,-4.8306,-4.8306,-4.8306,-4.8306,0.0,0.0,-4.8306,-4.6838,-4.5902,-4.5902,-4.4378,-4.3167,-4.2451,-4.2433,-4.2066,-4.1242,-4.2029,-4.2189,-4.1687,-4.2558,-4.2804,-4.243,-4.0004,-3.9409,0.0,0.0,0.0,0.0,0.0,0.0,0.0,0.0,0.0,0.0,0.0,0.0,0.0,0.0,0.0,-6.2693,-6.4193,-6.5992,-6.8854,-6.9551,-6.9821,-6.9976,-7.0769,-7.1291,-7.1291,-7.1291,-7.1291,-7.1291,-7.1544,-7.17,-7.17,-7.1891,-7.1992,-7.1992,-7.1992,-7.1992,-7.1992,-7.1992,-7.1992,-7.1972,0.0,0.0,-6.9433,-6.7851,-6.7051,-6.6894,-6.6894,-6.5918,-6.4297,-6.4295,-6.2379,-5.9388,-5.9117,-5.8377,-5.73,-5.6133,-5.5703,-5.5703,-5.5703,-5.5703,-5.5703,-5.5703,-5.5703,-5.5703,-5.5703,-5.5703,0.0,-5.4914,-5.4626,-5.4145,-5.2558,-5.2019,-5.1692,-5.0894,-5.0683,-5.0682,-5.0613,-5.0582,-5.0427,-4.9987,-4.9627,-4.9252,-4.8866,-4.8532,-4.8306,-4.8306,-4.8306,-4.8306,-4.8306,-4.8306,-4.8306,-4.8306,-4.8306,-4.8306,-4.8306,-4.6838,-4.5902,-4.5902,-4.4378,-4.3441,-4.3276,-4.3276,-4.2892,-4.2084,-4.2855,-4.2894,-4.2167,-4.299,-4.3506,-4.3725,-4.2463,-4.1866,0.0,0.0,0.0,0.0,0.0,0.0,0.0,0.0,0.0,0.0,0.0,-5.9234,-5.9678,0.0,-6.3708,-6.5854,-6.6929,-6.8081,-6.9763,-7.0382,-7.0653,-7.0653,-7.1021,-7.1291,-7.1291,-7.1291,-7.1291,-7.1291,-7.1544,-7.17,-7.17,-7.1891,-7.1992,-7.1992,-7.1992,-7.1992,-7.1992,-7.1992,-7.1992,-7.1972,-7.0293,-6.9472,-6.9394,-6.7676,-6.6894,-6.6894,-6.6894,-6.5918,-6.4238,-6.3357,-6.1411,-5.897,-5.8785,-5.7819,-5.6488,-5.5902,-5.5703,-5.5703,-5.5703,-5.5703,-5.5703,-5.5703,-5.5703,-5.5703,-5.5703,-5.5415,-5.5011,-5.4607,-5.3876,-5.301,-5.2135,-5.1606,-5.1202,-5.0808,-5.0712,-5.0683,-5.0653,-5.0623,-5.0521,-5.0245,-4.9904,-4.9584,-4.9348,-4.8883,-4.8495,-4.8325,-4.8306,-4.8306,-4.8306,-4.8306,-4.8306,-4.8306,-4.8306,-4.8141,-4.7718,-4.6232,-4.5131,-4.4709,-4.3938,-4.3515,-4.3515,-4.3515,-4.3296,-4.291,-4.3313,-4.3313,-4.2892,-4.3313,-4.3813,-4.4399,-4.3846,-4.358,0.0,0.0,0.0,0.0,0.0,0.0,0.0,-5.6589,-5.7825,-5.8134,-6.0238,-6.243,-6.3843,-6.5535,-6.7227,-6.8786,-6.957,-7.0054,-7.0228,-7.0847,-7.1291,-7.1291,-7.1291,-7.1291,-7.1291,-7.1291,-7.1291,-7.1291,-7.1544,-7.17,-7.17,-7.1891,-7.1992,-7.1992,-7.1992,-7.1992,-7.1992,-7.1992,-7.1992,-7.1972,-7.0293,-6.9472,-6.9355,-6.7676,-6.6894,-6.6875,-6.6543,-6.5508,-6.3926,-6.2359,-6.0675,-5.9089,-5.8959,-5.77,-5.5921,-5.5789,-5.5726,-5.5703,-5.5703,-5.5703,-5.5703,-5.5703,-5.5703,-5.5703,-5.5703,-5.5145,-5.4453,-5.4299,-5.3106,-5.1865,-5.1712,-5.1183,-5.0712,-5.0712,-5.0712,-5.0712,-5.0712,-5.0653,-5.0603,-5.0511,-5.0186,-4.9878,-4.9798,-4.924,-4.8693,-4.8439,-4.8344,-4.8306,-4.8306,-4.8306,-4.8306,-4.8306,-4.8306,-4.7901,-4.6947,-4.5535,-4.436,-4.3551,-4.3515,-4.3515,-4.3515,-4.3515,-4.3515,-4.3515,-4.3515,-4.3515,-4.3515,-4.3515,-4.3901,-4.4691,-4.4412,-4.4511,-5.2691,-5.3182,-5.3295,-5.3453,-5.4138,-5.5376,0.0,-5.8904,-6.0026,-6.1505,-6.3845,-6.5692,-6.5866,-6.7335,-6.8805,-6.9725,-6.9938,-7.0266,-7.104,-7.1233,-7.1291,-7.1291,-7.1291,-7.1291,-7.1291,-7.1291,-7.1291,-7.1291,-7.1544,-7.17,-7.17,-7.1891,-7.1992,-7.1992,-7.1992,-7.1992,-7.1992,-7.1992,-7.1992,-7.1972,-7.0293,-6.9492,-6.9433,-6.7695,-6.6894,-6.6816,-6.5254,-6.4043,-6.3066,-6.2108,-6.0679,-5.909,-5.8952,-5.7746,-5.6057,-5.593,-5.5808,-5.5703,-5.5703,-5.5703,-5.5703,-5.5703,-5.5703,-5.5703,-5.5703,-5.5145,-5.4337,-5.3568,-5.2654,-5.1731,-5.101,-5.077,-5.0712,-5.0712,-5.0712,-5.0712,-5.0712,-5.0683,-5.0653,-5.0521,-5.0233,-4.9943,-4.9811,-4.924,-4.8799,-4.8746,-4.8495,-4.8306,-4.8306,-4.8306,-4.8306,-4.8306,-4.8306,-4.7682,-4.6159,-4.5223,-4.436,-4.3551,-4.3515,-4.3515,-4.3515,-4.3515,-4.3515,-4.3515,-4.3515,-4.3515,-4.3515,-4.3515,-4.3901,-4.4673,-4.3818,-4.4155,-5.4325,-5.419,-5.4053,-5.6592,-5.7501,-5.8294,-6.0344,-6.1872,-6.3071,-6.3768,-6.5934,-6.7713,-6.7713,-6.9106,-7.0363,-7.0692,-7.075,-7.0885,-7.1253,-7.1291,-7.1098,-7.0595,-7.0982,-7.1291,-7.1291,-7.1291,-7.1291,-7.1291,-7.1544,-7.17,-7.17,-7.1891,-7.1992,-7.1992,-7.1992,-7.1992,-7.1992,-7.1992,-7.1758,-7.123,-7.0019,-6.9199,-6.8691,-6.7461,-6.6621,-6.6074,-6.4844,-6.3808,-6.293,-6.2069,-6.0679,-5.909,-5.8955,-5.7756,-5.6078,-5.5954,-5.5827,-5.5703,-5.5703,-5.5703,-5.5703,-5.5703,-5.5703,-5.5703,-5.5703,-5.478,-5.3664,-5.3299,-5.2241,-5.1125,-5.0789,-5.0712,-5.0712,-5.0712,-5.0712,-5.0712,-5.0712,-5.0712,-5.0653,-5.0521,-5.0233,-4.9955,-4.9811,-4.924,-4.8799,-4.8799,-4.8514,-4.8306,-4.8306,-4.8306,-4.8122,-4.7645,-4.7186,-4.6434,-4.5296,-4.447,-4.3864,-4.3533,-4.3515,-4.3515,-4.3515,-4.3515,-4.3515,-4.3515,-4.3515,-4.3515,-4.3515,-4.3515,-4.3539,-4.3652,-4.3412,-4.35,-5.4929,-5.4948,-5.5296,-5.841,-5.9706,-6.0673,-6.2375,-6.3922,-6.5122,-6.5586,-6.6978,-6.8236,-6.8719,-6.9783,-7.0672,-7.0905,-7.1137,-7.1291,-7.1291,-7.1079,-7.0789,-7.0402,-7.0692,-7.104,-7.1272,-7.1291,-7.1291,-7.1291,-7.1497,-7.1665,-7.17,-7.1858,-7.1951,-7.1992,-7.1992,-7.1992,-7.1992,-7.1992,-7.1562,-7.0683,-6.9824,-6.8984,-6.8164,-6.7051,-6.6074,-6.5195,-6.4316,-6.3457,-6.2578,-6.1698,-6.0466,-5.9051,-5.8705,-5.7566,-5.6078,-5.5954,-5.5827,-5.5703,-5.5703,-5.5703,-5.5703,-5.5703,-5.5703,-5.5703,-5.5703,-5.453,-5.3203,-5.3203,-5.1991,-5.0712,-5.0712,-5.0712,-5.0712,-5.0712,-5.0712,-5.0712,-5.0712,-5.0712,-5.0653,-5.0521,-5.031,-5.0062,-4.9844,-4.9317,-4.89,-4.8816,-4.8514,-4.8306,-4.8306,-4.8122,-4.7645,-4.6837,-4.6049,-4.5333,-4.4746,-4.3956,-4.3515,-4.3515,-4.3515,-4.3515,-4.3515,-4.3515,-4.3515,-4.3515,-4.3515,-4.3515,-4.3515,-4.3515,-4.3357,-4.3068,-4.3032,-4.2825,-5.4,-5.5335,-5.7222,-5.7338,-5.9242,-6.1524,-6.3255,-6.4358,-6.545,-6.7094,-6.6804,-6.6804,-6.8487,-6.8835,-6.9125,-6.9899,-7.075,-7.1291,-7.1291,-7.0556,-7.0344,-7.1156,-7.0537,-7.0363,-7.1214,-7.1291,-7.1291,-7.1291,-7.1425,-7.1559,-7.1694,-7.1776,-7.1875,-7.1992,-7.1992,-7.1992,-7.1992,-7.1992,-7.1562,-7.0683,-6.9824,-6.8984,-6.8144,-6.6426,-6.5156,-6.4297,-6.3418,-6.2539,-6.168,-6.0801,-5.9901,-5.9012,-5.8092,-5.7074,-5.6078,-5.5954,-5.5827,-5.5703,-5.5703,-5.5703,-5.5703,-5.5703,-5.5703,-5.5703,-5.5703,-5.453,-5.3203,-5.3203,-5.1991,-5.0712,-5.0712,-5.0712,-5.0712,-5.0712,-5.0712,-5.0712,-5.0712,-5.0712,-5.0653,-5.0521,-5.05,-5.034,-4.9884,-4.9512,-4.9158,-4.8849,-4.8514,-4.8306,-4.8306,-4.7608,-4.6819,-4.6012,-4.5223,-4.4728,-4.4691,-4.3956,-4.3515,-4.3515,-4.3515,-4.3515,-4.3515,-4.3515,-4.3515,-4.3515,-4.3515,-4.3515,-4.3515,-4.3515,-4.3479,-4.3462,-4.2634,-4.2213,-5.6418,-5.7095,-5.784,-6.0122,-6.1331,-6.2414,-6.4174,-6.5199,-6.5644,-6.5083,-6.5624,-6.6031,-6.5508,-6.6804,-6.8216,-6.9067,-6.9899,-7.0634,-7.1214,-7.104,-7.075,-7.046,-7.0692,-7.075,-7.046,-7.0963,-7.1291,-7.1291,-7.1509,-7.1659,-7.17,-7.1856,-7.1951,-7.1992,-7.1992,-7.1992,-7.1992,-7.1992,-7.1269,-6.9824,-6.8418,-6.7598,-6.7305,-6.6133,-6.5117,-6.4258,-6.3379,-6.2519,-6.168,-6.1387,-6.0409,-5.905,-5.8554,-5.7442,-5.6071,-5.5844,-5.5728,-5.5703,-5.5703,-5.5703,-5.5703,-5.5703,-5.5703,-5.5703,-5.5703,-5.453,-5.3203,-5.3203,-5.1991,-5.0712,-5.0712,-5.0712,-5.0712,-5.0712,-5.0712,-5.0712,-5.0712,-5.0712,-5.0663,-5.0593,-5.0344,-5.0099,-4.991,-4.9378,-4.8849,-4.8532,-4.8364,-4.8122,-4.7571,-4.7278,-4.6581,-4.5259,-4.4874,-4.4488,-4.3956,-4.3662,-4.3515,-4.3515,-4.3515,-4.3515,-4.3515,-4.3515,-4.3515,-4.3515,-4.3515,-4.3515,-4.3515,-4.3515,-4.3357,-4.3087,-4.2788,-4.2338,-5.8013,-5.841,-5.8836,-6.1311,-6.2182,-6.2685,-6.3826,-6.4464,-6.4445,-6.3052,-6.34,-6.3806,-6.3323,-6.4561,-6.6263,-6.8061,-6.9028,-6.9976,-7.1137,-7.1021,-7.0731,-7.0479,-7.0672,-7.0731,-7.0479,-7.0692,-7.0827,-7.0827,-7.1334,-7.1517,-7.1252,-7.168,-7.195,-7.1992,-7.1992,-7.1992,-7.1992,-7.1699,-7.0664,-6.8945,-6.7558,-6.6738,-6.6406,-6.5527,-6.4668,-6.3789,-6.291,-6.2226,-6.164,-6.1055,-6.0135,-5.9011,-5.8203,-5.715,-5.6071,-5.5844,-5.5738,-5.5703,-5.5703,-5.5703,-5.5703,-5.5703,-5.5703,-5.5703,-5.5703,-5.453,-5.3203,-5.3203,-5.1991,-5.0712,-5.0712,-5.0712,-5.0712,-5.0712,-5.0712,-5.0712,-5.0712,-5.0712,-5.0673,-5.0613,-5.0366,-5.013,-4.9936,-4.9287,-4.8729,-4.8514,-4.8383,-4.7921,-4.6801,-4.6654,-4.6049,-4.4452,-4.4268,-4.4066,-4.3551,-4.3515,-4.3515,-4.3515,-4.3515,-4.3515,-4.3515,-4.3515,-4.3515,-4.3515,-4.3515,-4.3515,-4.3515,-4.3515,-4.3375,-4.3105,-4.2957,-4.2595,-5.8651,-5.93,-6.0132,-6.0905,-6.1756,-6.2394,-6.2336,-6.2375,-6.2143,-6.1176,-6.0422,-6.0402,-6.1872,-6.2317,-6.3536,-6.6785,-6.8158,-6.9377,-7.1001,-7.0556,-7.0363,-7.1195,-7.0556,-7.0382,-7.1214,-7.0537,-7.0054,-6.9996,-7.0901,-7.1158,-7.0492,-7.1312,-7.1875,-7.1992,-7.1992,-7.1972,-7.1933,-7.1035,-6.9765,-6.8183,-6.7324,-6.6445,-6.5566,-6.4707,-6.3828,-6.2949,-6.207,-6.1699,-6.1562,-5.9941,-5.9198,-5.8935,-5.7152,-5.6309,-5.6084,-5.5954,-5.5827,-5.5703,-5.5703,-5.5703,-5.5703,-5.5703,-5.5703,-5.5703,-5.5703,-5.453,-5.3203,-5.3203,-5.1991,-5.0712,-5.0712,-5.0712,-5.0712,-5.0712,-5.0712,-5.0712,-5.0712,-5.0712,-5.0673,-5.0613,-5.0542,-5.0374,-4.9962,-4.9317,-4.8849,-4.8833,-4.8513,-4.7682,-4.6104,-4.5902,-4.5278,-4.368,-4.3515,-4.3515,-4.3515,-4.3515,-4.3515,-4.3515,-4.3515,-4.3515,-4.3515,-4.3515,-4.3515,-4.3515,-4.3515,-4.3515,-4.3515,-4.3515,-4.3515,-4.3479,-4.3123,-4.292,-5.9377,-6.017,-6.0847,-6.106,-6.1756,-6.224,-6.1582,-6.193,-6.1795,-5.9667,-6.0074,-6.0344,-5.8865,-6.1215,-6.3652,-6.4522,-6.6998,-6.9164,-7.0189,-7.0692,-7.104,-7.1272,-7.1098,-7.1059,-7.1272,-7.1098,-7.0692,-7.0054,-7.0425,-7.0873,-7.133,-7.1744,-7.1951,-7.1992,-7.1992,-7.1699,-7.1035,-6.957,-6.8613,-6.8183,-6.7324,-6.6445,-6.5566,-6.4707,-6.3828,-6.2949,-6.207,-6.1699,-6.1621,-6.0547,-5.9726,-5.9057,-5.7843,-5.6873,-5.6155,-5.597,-5.5827,-5.5703,-5.5703,-5.5703,-5.5703,-5.5703,-5.5703,-5.5703,-5.5703,-5.453,-5.3203,-5.3203,-5.1991,-5.0712,-5.0712,-5.0712,-5.0712,-5.0712,-5.0712,-5.0712,-5.0712,-5.0712,-5.0683,-5.0692,-5.0623,-5.0438,-4.9974,-4.9744,-4.9527,-4.9224,-4.8379,-4.7329,-4.6048,-4.5902,-4.5278,-4.368,-4.3515,-4.3515,-4.3515,-4.3515,-4.3515,-4.3515,-4.3515,-4.3515,-4.3515,-4.3515,-4.3515,-4.3515,-4.3515,-4.3515,-4.3515,-4.3515,-4.3515,-4.3497,-4.3392,-4.3196,-6.0963,-6.1331,-6.1582,-6.1195,-6.1195,-6.1079,-6.019,-6.0093,-5.9648,-5.783,-5.8217,-5.8546,-5.7492,-5.9899,-6.2404,-6.3526,-6.5934,-6.8216,-6.9783,-7.0421,-7.0866,-7.1253,-7.1291,-7.1291,-7.1291,-7.0943,-7.0715,-7.0661,-7.0848,-7.1023,-7.1121,-7.1676,-7.1992,-7.1992,-7.1621,-7.084,-6.9609,-6.8672,-6.8008,-6.7617,-6.7129,-6.623,-6.5019,-6.4512,-6.3613,-6.2402,0.0,-6.1699,-6.1601,-6.0371,-5.9609,-5.9079,-5.775,-5.6833,-5.6266,-5.6063,-5.5896,-5.5779,-5.5716,-5.5703,-5.5703,-5.5703,-5.5703,-5.5703,-5.5703,-5.453,-5.3203,-5.3203,-5.1991,-5.0712,-5.0712,-5.0712,-5.0712,-5.0712,-5.0712,-5.0712,-5.0712,-5.0712,-5.0683,-5.0653,-5.0623,-5.0511,-5.0209,-5.0032,-4.9825,-4.9599,-4.8752,-4.7763,-4.6759,-4.59,-4.4892,-4.3643,-4.3515,-4.3515,-4.3515,-4.3515,-4.3515,-4.3515,-4.3515,-4.3515,-4.3515,-4.3515,-4.3515,-4.3515,-4.3515,-4.3515,-4.3515,-4.3515,-4.3515,-4.3515,-4.3515,-4.3375,-6.2826,-6.2613,-6.2439,-6.1664,-6.0775,-5.9867,-5.8977,-5.8022,-5.7048,-5.6177,-5.6089,-5.6371,-5.7009,-5.8739,-6.077,-6.3004,-6.4948,-6.7017,-6.9338,-6.986,-7.0266,-7.104,-7.1233,-7.1291,-7.1291,-7.0614,-7.0534,-7.1434,-7.1628,-7.1379,-7.0639,-7.1485,-7.1953,-7.1836,-7.0879,-6.9668,-6.8203,-6.8086,-6.7656,-6.6894,-6.6777,-6.5879,-6.4297,-6.418,-6.3242,-6.1699,-6.1699,0.0,-6.1562,-5.9883,-5.9199,-5.9022,-5.7279,-5.6511,-5.6371,-5.6183,-5.6027,-5.588,-5.5748,-5.5703,-5.5703,-5.5703,-5.5703,-5.5703,-5.5703,-5.453,-5.3203,-5.3203,-5.1991,-5.0712,-5.0712,-5.0712,-5.0712,-5.0712,-5.0712,-5.0712,-5.0712,-5.0712,-5.0673,-5.0623,-5.0613,-5.0593,-5.0521,-5.0221,-4.9974,-4.991,-4.9224,-4.8457,-4.7716,-4.6004,-4.4562,-4.3736,-4.3552,-4.3515,-4.3515,-4.3515,-4.3515,-4.3515,-4.3515,-4.3515,-4.3515,-4.3515,-4.3515,-4.3515,-4.3515,-4.3515,-4.3515,-4.3515,-4.3515,-4.3515,-4.3515,-4.3515,-6.3762,-6.3723,-6.3684,-6.3528,-6.2264,-6.0828,-5.9961,-5.8471,-5.7048,-5.6177,-5.6564,-5.6893,-5.6332,-5.8778,-6.1041,-6.1485,-6.4174,-6.6611,-6.7771,-6.9125,-7.0054,-7.0208,-7.0866,-7.1291,-7.1291,-7.1156,-7.1193,-7.1492,-7.1628,-7.1663,-7.1559,-7.1848,-7.168,-7.0957,-6.9433,-6.8496,-6.8203,-6.748,-6.7051,-6.6894,-6.6172,-6.5293,-6.4277,-6.3555,-6.2676,-6.1699,-6.1699,0.0,-6.1562,-5.9883,-5.9199,-5.9023,-5.7283,-5.652,-5.637,-5.6236,-5.6068,-5.588,-5.5748,-5.5703,-5.5703,-5.5703,-5.5703,-5.5703,-5.5703,-5.453,-5.3203,-5.3203,-5.1991,-5.0712,-5.0712,-5.0712,-5.0712,-5.0712,-5.0712,-5.0712,-5.0712,-5.0712,-5.0702,-5.0673,-5.0673,-5.0653,-5.0593,-5.0521,-5.0352,-4.9962,-4.8985,-4.814,-4.7657,-4.6484,-4.5388,-4.458,-4.3901,-4.3515,-4.3515,-4.3515,-4.3515,-4.3515,-4.3515,-4.3515,-4.3515,-4.3515,-4.3515,-4.3515,-4.3515,-4.3515,-4.3515,-4.3515,-4.3515,-4.3515,-4.3515,-4.3515,-6.4671,-6.4676,-6.4578,-6.4111,-6.2342,-6.062,-6.0197,-5.8338,-5.6606,-5.618,-5.638,-5.6487,-5.6089,-5.8449,-6.048,-6.048,-6.2955,-6.5354,-6.665,-6.7907,-6.9009,-6.9899,-7.0769,-7.1326,-7.1397,-7.1407,-7.1465,-7.1636,-7.1326,-7.1132,-7.1165,-7.0873,-7.0293,-6.9433,-6.8613,-6.7988,-6.7539,-6.7109,-6.6894,-6.6894,-6.6015,-6.5137,-6.4277,-6.3398,-6.2519,-6.1699,-6.1699,0.0,-6.0937,-5.9707,-5.8926,-5.8398,-5.7108,-5.6554,-5.6491,-5.6344,-5.6197,-5.6032,-5.5854,-5.5758,-5.5703,-5.5703,-5.5703,-5.5703,-5.5703,-5.453,-5.3203,-5.3203,-5.1991,-5.0712,-5.0712,-5.0712,-5.0712,-5.0712,-5.0712,-5.0712,-5.0712,-5.0712,-5.0712,-5.0712,-5.0712,-5.0683,-5.0653,-5.0623,-5.0521,-5.0298,-4.9438,-4.8743,-4.8562,-4.6991,-4.559,-4.4783,-4.3975,-4.3515,-4.3515,-4.3515,-4.3515,-4.3515,-4.3515,-4.3515,-4.3515,-4.3515,-4.3515,-4.3515,-4.3515,-4.3515,-4.3515,-4.3515,-4.3515,-4.3515,-4.3515,-4.3515,-6.5547,-6.5648,-6.5434,-6.456,-6.2399,-6.0457,-6.0262,-5.816,-5.6212,-5.6201,-5.6117,-5.6035,-5.6012,-5.783,-5.9474,-5.9841,-6.1872,-6.4,-6.5702,-6.6998,-6.8218,-6.9362,-7.0591,-7.131,-7.1268,-7.1264,-7.1336,-7.153,-7.0631,-7.0167,-7.0323,-6.9625,-6.8906,-6.8222,-6.8027,-6.7598,-6.6914,-6.6894,-6.6816,-6.6601,-6.5742,-6.4863,-6.3984,-6.3125,-6.2344,-6.1699,-6.1699,0.0,0.0,-5.9531,-5.8691,-5.7812,-5.6933,-5.6599,-5.6576,-5.6442,-5.6305,-5.6155,-5.5962,-5.5808,-5.5703,-5.5703,-5.5703,-5.5703,-5.5703,-5.453,-5.3203,-5.3203,-5.1991,-5.0712,-5.0712,-5.0712,-5.0712,-5.0712,-5.0712,-5.0712,-5.0712,-5.0712,-5.0712,-5.0712,-5.0712,-5.0712,-5.0712,-5.0653,-5.0603,-5.0521,-4.9872,-4.9405,-4.9295,-4.7466,-4.5847,-4.5057,-4.4066,-4.3515,-4.3515,-4.3515,-4.3515,-4.3515,-4.3515,-4.3515,-4.3515,-4.3515,-4.3515,-4.3515,-4.3515,-4.3515,-4.3515,-4.3515,-4.3515,-4.3515,-4.3515,-4.3515,-6.6327,-6.6756,-6.6541,-6.5663,-6.3443,-6.1269,-6.0468,-5.8214,-5.6271,-5.62,-5.6188,-5.6134,-5.6018,-5.6835,-5.8062,-5.9629,-6.1369,-6.3129,-6.487,-6.7172,-6.85,-6.7975,-7.0019,-7.121,-7.0555,-7.0509,-7.0562,-7.0693,-6.9289,-6.8749,-6.9472,-6.875,-6.8281,-6.8203,-6.7422,-6.6972,-6.6894,-6.6894,-6.6504,-6.5703,-6.4844,-6.3965,-6.3086,-6.2226,-6.1777,-6.1699,-6.1699,0.0,0.0,-5.9531,-5.8691,-5.7812,-5.6933,-5.66,-5.6571,-5.6447,-5.6285,-5.6078,-5.5954,-5.5808,-5.5703,-5.5703,-5.5703,-5.5703,-5.5703,-5.453,-5.3203,-5.3203,-5.1991,-5.0712,-5.0712,-5.0712,-5.0712,-5.0712,-5.0712,-5.0712,-5.0712,-5.0712,-5.0712,-5.0712,-5.0712,-5.0712,-5.0712,-5.0683,-5.0584,-5.0195,-4.9773,-4.9356,-4.8978,-4.781,-4.6672,-4.5883,-4.4415,-4.3515,-4.3515,-4.3515,-4.3515,-4.3515,-4.3515,-4.3515,-4.3515,-4.3515,-4.3515,-4.3515,-4.3515,-4.3515,-4.3515,-4.3515,-4.3515,-4.3515,-4.3515,-4.3515,-6.5644,-6.6504,-6.6699,-6.582,-6.3612,-6.142,-6.0561,-5.8312,-5.641,-5.6398,-5.6309,-5.6236,-5.6185,-5.6821,-5.7765,-5.8987,-6.0145,-6.1485,-6.3207,-6.4754,-6.6032,-6.6815,-6.8268,-6.9344,-6.9705,-6.9736,-6.9572,-6.917,-6.8554,-6.8105,-6.791,-6.7598,-6.7422,-6.7422,-6.707,-6.6894,-6.6894,-6.6894,-6.6465,-6.5586,-6.4726,-6.3848,-6.2969,-6.2109,-6.1699,-6.1699,-6.1699,0.0,0.0,-5.9336,-5.8379,-5.707,-5.6738,-5.6601,-5.6596,-5.6541,-5.643,-5.6256,-5.609,-5.5938,-5.5818,-5.5726,-5.5703,-5.5703,-5.5703,-5.453,-5.3203,-5.3203,-5.1991,-5.0712,-5.0712,-5.0712,-5.0712,-5.0712,-5.0712,-5.0712,-5.0712,-5.0712,-5.0712,-5.0712,-5.0712,-5.0712,-5.0712,-5.0712,-5.0653,-5.0483,-5.008,-4.9746,-4.9575,-4.8303,-4.7087,-4.6292,-4.5015,-4.403,-4.3551,-4.3515,-4.3515,-4.3515,-4.3515,-4.3515,-4.3515,-4.3515,-4.3515,-4.3515,-4.3515,-4.3515,-4.3515,-4.3515,-4.3515,-4.3515,-4.3515,-4.3515,-6.4355,-6.5469,-6.5918,-6.5058,-6.3066,-6.1094,-6.0234,-5.8218,-5.6522,-5.6491,-5.6419,-5.6359,-5.6316,-5.6713,-5.7436,-5.8577,-5.943,-6.0546,-6.2244,-6.3447,-6.4567,-6.5609,-6.6724,-6.7725,-6.8505,-6.8826,-6.864,-6.7871,-6.7812,-6.7558,-6.6933,-6.6894,-6.6894,-6.6894,-6.6894,-6.6894,-6.6894,-6.664,-6.6074,-6.5215,-6.4336,-6.3457,-6.2598,-6.1973,-6.1562,-6.1328,-6.1328,0.0,0.0,-5.8828,-5.7949,-5.6601,-5.6601,-5.6601,-5.6599,-5.6595,-5.6526,-5.6367,-5.6172,-5.602,-5.588,-5.5738,-5.5703,-5.5703,-5.5703,-5.453,-5.3203,-5.3203,-5.1991,-5.0712,-5.0712,-5.0712,-5.0712,-5.0712,-5.0712,-5.0712,-5.0712,-5.0712,-5.0712,-5.0712,-5.0712,-5.0712,-5.0712,-5.0712,-5.0712,-5.0712,-5.0325,-5.0019,-5.0006,-4.8911,-4.7807,-4.6989,-4.588,-4.474,-4.3606,-4.3515,-4.3515,-4.3515,-4.3515,-4.3515,-4.3515,-4.3515,-4.3515,-4.3515,-4.3515,-4.3515,-4.3515,-4.3515,-4.3515,-4.3515,-4.3515,-4.3515,-6.2558,-6.3652,-6.4121,-6.3242,-6.1719,-6.0195,-5.9394,-5.7851,-5.6581,-5.6516,-5.6506,-5.6453,-5.6324,-5.6308,-5.6873,-5.8626,-5.9576,-6.0702,-6.2455,-6.4184,-6.5002,-6.4228,-6.5658,-6.677,-6.6914,-6.7715,-6.7851,-6.6972,-6.6914,0.0,-6.6894,-6.6894,-6.6894,-6.6894,-6.6894,-6.6894,-6.6894,-6.6035,-6.5176,-6.4297,-6.3437,-6.2558,-6.1719,-6.1699,-6.123,-6.041,0.0,0.0,0.0,-5.791,-5.7383,-5.6601,-5.6601,-5.6601,-5.6599,-5.6595,-5.6526,-5.6367,-5.6172,-5.602,-5.588,-5.5738,-5.5703,-5.5703,-5.5703,-5.453,-5.3203,-5.3203,-5.1991,-5.0712,-5.0712,-5.0712,-5.0712,-5.0712,-5.0712,-5.0712,-5.0712,-5.0712,-5.0712,-5.0712,-5.0712,-5.0712,-5.0712,-5.0712,-5.0712,-5.0712,-5.0358,-5.0068,-5.0006,-4.965,-4.9055,-4.8187,-4.7055,-4.5582,-4.366,-4.3515,-4.3515,-4.3515,-4.3515,-4.3515,-4.3515,-4.3515,-4.3515,-4.3515,-4.3515,-4.3515,-4.3515,-4.3515,-4.3515,-4.3515,-4.3515,-4.3515,-6.0918,-6.1855,-6.2305,-6.1445,-6.039,-5.9355,-5.8515,-5.7422,-5.6582,-5.6579,-5.6579,-5.6558,-5.6511,-5.6469,-5.6991,-5.8688,-5.9132,-5.9873,-6.1564,-6.2284,-6.3027,-6.4057,-6.5747,-6.6853,-6.6894,-6.7148,-6.7207,-6.6914,-6.6894,-6.664,-6.6035,-6.6015,-6.6289,-6.6875,-6.6894,-6.6601,-6.6015,-6.5742,-6.4863,-6.3418,-6.3125,-6.2539,-6.168,-6.1074,-6.0664,0.0,0.0,0.0,0.0,-5.789,-5.7383,-5.6601,-5.6601,-5.6601,-5.6599,-5.6595,-5.6563,-5.6489,-5.62,-5.6064,-5.6005,-5.5769,-5.5703,-5.5703,-5.5703,-5.453,-5.2972,-5.1798,-5.1116,-5.0712,-5.0712,-5.0712,-5.0712,-5.0712,-5.0712,-5.0712,-5.0712,-5.0712,-5.0712,-5.0712,-5.0712,-5.0712,-5.0712,-5.0712,-5.0712,-5.0712,-5.0544,-5.0429,-5.0418,-5.0025,-4.9334,-4.829,-4.7591,-4.6533,-4.4804,-4.3962,-4.3515,-4.3515,-4.3515,-4.3515,-4.3515,-4.3515,-4.3515,-4.3515,-4.3515,-4.3515,-4.3515,-4.3515,-4.3515,-4.3515,-4.3515,-4.3515,-5.9238,-5.9844,-6.0215,-6.0,-5.9082,-5.8164,-5.7949,-5.7226,-5.6601,-5.6601,-5.6601,-5.6601,-5.6601,-5.6578,-5.7096,-5.8794,-5.9048,-5.9592,-6.1289,-6.1504,-6.2067,-6.3578,-6.531,-6.6406,-6.6406,-6.6406,-6.6406,-6.6406,-6.6094,-6.5683,-6.5137,-6.5117,-6.5351,-6.5898,-6.5918,-6.5664,-6.5117,-6.4785,-6.4062,-6.3008,-6.2676,-6.2051,-6.1191,-6.0644,-6.0058,0.0,0.0,0.0,0.0,-5.7402,-5.709,-5.6601,-5.6601,-5.6601,-5.66,-5.6597,-5.6592,-5.6556,-5.6251,-5.6129,-5.607,-5.5789,-5.5703,-5.5568,-5.4953,-5.403,-5.2856,-5.1164,-5.0712,-5.0712,-5.0712,-5.0712,-5.0712,-5.0712,-5.0712,-5.0712,-5.0712,-5.0712,-5.0712,-5.0712,-5.0712,-5.0712,-5.0712,-5.0712,-5.0712,-5.0712,-5.0653,-5.0623,-5.0603,-5.0333,-4.9835,-4.9002,-4.8251,-4.7263,-4.585,-4.4655,-4.3809,-4.3533,-4.3515,-4.3515,-4.3515,-4.3515,-4.3515,-4.3515,-4.3515,-4.3515,-4.3515,-4.3515,-4.3515,-4.3515,-4.3515,-4.3515,0.0,-5.7812,-5.8008,-5.8808,-5.7793,-5.6816,-5.7617,-5.7187,0.0,-5.6601,-5.6601,-5.6621,-5.668,-5.664,-5.7168,-5.8926,-5.9199,-5.9765,-6.1387,-6.1719,-6.209,-6.289,-6.4473,-6.5508,-6.5508,-6.5508,-6.5508,-6.5508,-6.4765,-6.4277,-6.4219,-6.4219,-6.418,-6.4121,-6.4121,-6.414,-6.4219,-6.3398,-6.2969,-6.289,-6.2012,-6.1172,-6.039,-6.0273,-5.9375,0.0,0.0,0.0,0.0,-5.6601,-5.6601,-5.6601,-5.6601,-5.6601,-5.6601,-5.66,-5.6597,-5.6564,-5.6295,-5.6167,-5.605,-5.5789,-5.5665,-5.5299,-5.3683,-5.3203,-5.2856,-5.1164,-5.0712,-5.0712,-5.0712,-5.0712,-5.0712,-5.0712,-5.0712,-5.0712,-5.0712,-5.0712,-5.0712,-5.0712,-5.0712,-5.0712,-5.0712,-5.0712,-5.0712,-5.0712,-5.0712,-5.0692,-5.0613,-5.0603,-5.0468,-5.0145,-4.895,-4.7759,-4.6688,-4.5429,-4.436,-4.3551,-4.3515,-4.3515,-4.3515,-4.3515,-4.3515,-4.3515,-4.3515,-4.3515,-4.3515,-4.3515,-4.3515,-4.3515,-4.3515,-4.3515,-5.6855,0.0,-5.6953,-5.7168,-5.6894,-5.664,0.0,-5.6758,-5.6601,-5.6601,-5.6601,-5.6797,-5.7461,-5.7051,-5.7168,-5.8926,-5.9199,-5.9551,-6.0566,-6.1855,-6.2773,-6.2988,-6.3945,-6.4609,-6.4609,-6.4609,-6.4609,-6.4609,-6.4414,-6.4004,-6.334,-6.3301,-6.3008,-6.2324,-6.2305,-6.2637,-6.3301,-6.3105,-6.2676,-6.1992,-6.1113,-6.0605,-6.0351,-5.9062,-5.8262,0.0,0.0,0.0,-5.6601,-5.6601,-5.6601,-5.6601,-5.6601,-5.6601,-5.6601,-5.66,-5.6599,-5.6553,-5.6281,-5.6179,-5.613,-5.5808,-5.528,-5.4587,-5.353,-5.3203,-5.2856,-5.1164,-5.0712,-5.0712,-5.0712,-5.0712,-5.0712,-5.0712,-5.0712,-5.0712,-5.0712,-5.0712,-5.0712,-5.0712,-5.0712,-5.0712,-5.0712,-5.0712,-5.0712,-5.0712,-5.0712,-5.0683,-5.0673,-5.0623,-5.047,-5.013,-4.9013,-4.7814,-4.6691,-4.5426,-4.436,-4.3551,-4.3515,-4.3515,-4.3515,-4.3515,-4.3515,-4.3515,-4.3515,-4.3515,-4.3515,-4.3515,-4.3515,-4.3515,-4.3515,-4.3515,-5.6601,-5.6601,-5.6699,-5.7109,-5.6894,-5.6699,-5.7109,-5.6894,-5.6601,-5.6601,-5.6601,-5.6738,-5.7226,-5.7246,-5.7637,-5.8984,-5.9512,-6.0039,-6.0879,-6.2148,-6.3008,-6.3008,-6.3769,-6.4297,-6.4297,-6.3945,-6.3691,-6.3691,-6.332,-6.289,-6.2422,-6.2402,-6.2187,-6.1719,-6.1699,-6.1933,-6.2402,-6.2402,-6.1973,-6.1094,-6.0625,-6.0,-5.9219,-5.8301,-5.7676,0.0,0.0,0.0,-5.6601,-5.6601,-5.6601,-5.6601,-5.6601,-5.6601,-5.6601,-5.6601,-5.66,-5.6575,-5.6363,-5.6197,-5.5966,-5.5345,-5.4857,-5.426,-5.2991,-5.2596,-5.2337,-5.1048,-5.0712,-5.0712,-5.0712,-5.0712,-5.0712,-5.0712,-5.0712,-5.0712,-5.0712,-5.0712,-5.0712,-5.0712,-5.0712,-5.0712,-5.0712,-5.0712,-5.0712,-5.0712,-5.0712,-5.0712,-5.0712,-5.0663,-5.0523,-5.0183,-4.9182,-4.8021,-4.6799,-4.5672,-4.4598,-4.3603,-4.3532,-4.3515,-4.3515,-4.3515,-4.3515,-4.3515,-4.3515,-4.3515,-4.3515,-4.3515,-4.3515,-4.3515,-4.3515,-4.3515,-5.6758,-5.6894,-5.707,-5.7422,-5.7051,-5.6719,-5.7207,-5.6738,-5.6191,-5.6191,-5.6191,-5.6289,-5.6543,-5.7207,-5.8027,-5.9043,-5.9883,-6.0703,-6.1582,-6.2344,-6.2793,-6.2793,-6.3457,-6.3906,-6.3906,-6.3242,-6.2793,-6.2793,-6.1992,-6.1504,-6.1504,-6.1387,-6.1328,-6.1328,-6.1328,-6.1328,-6.1328,-6.1445,-6.1074,-6.0215,-6.0078,-5.9277,-5.789,-5.7754,-5.7305,-5.6601,0.0,0.0,-5.6601,-5.6601,-5.6601,-5.6601,-5.6601,-5.6601,-5.6601,-5.6601,-5.6601,-5.6578,-5.6455,-5.6175,-5.5763,-5.4834,-5.4426,-5.3991,-5.2385,-5.1808,-5.1568,-5.0894,-5.0712,-5.0712,-5.0712,-5.0712,-5.0712,-5.0712,-5.0712,-5.0712,-5.0712,-5.0712,-5.0712,-5.0712,-5.0712,-5.0712,-5.0712,-5.0712,-5.0712,-5.0712,-5.0712,-5.0712,-5.0712,-5.0712,-5.0536,-5.0122,-4.9217,-4.8099,-4.6807,-4.5791,-4.4786,-4.3704,-4.3566,-4.3515,-4.3515,-4.3515,-4.3515,-4.3515,-4.3515,-4.3515,-4.3515,-4.3515,-4.3515,-4.3515,-4.3515,-4.3515,-5.75,-5.8242,-5.8301,-5.6211,-5.6152,-5.625,-5.4902,-5.4492,-5.4394,-5.4394,-5.4394,-5.4844,-5.6328,-5.6719,-5.7324,-5.8945,-5.9883,-6.0703,-6.1582,-6.1816,-6.1894,-6.1894,-6.2012,-6.2109,-6.2109,-6.1973,-6.1894,-6.1894,-6.1094,-6.0605,-6.0605,-5.9941,-5.957,-5.957,-5.957,-5.957,-5.957,-6.0254,-6.0195,-5.9375,-5.8633,-5.8144,-5.7871,-5.7148,-5.6738,-5.6601,0.0,-5.6601,-5.6601,-5.6601,-5.6601,-5.6601,-5.6601,-5.6601,-5.6601,-5.6601,-5.6601,-5.6581,-5.6458,-5.6186,-5.5764,-5.4931,-5.4082,-5.3222,-5.2192,-5.1414,-5.0856,-5.0731,-5.0712,-5.0712,-5.0712,-5.0712,-5.0712,-5.0712,-5.0712,-5.0712,-5.0712,-5.0712,-5.0712,-5.0712,-5.0712,-5.0712,-5.0712,-5.0712,-5.0712,-5.0712,-5.0712,-5.0712,-5.0712,-5.0712,-5.0404,-4.9596,-4.852,-4.7419,-4.631,-4.5129,-4.4266,-4.3804,-4.3651,-4.3548,-4.3496,-4.3515,-4.3515,-4.3515,-4.3515,-4.3515,-4.3515,-4.3515,-4.3515,-4.3515,-4.3515,-4.3515,-5.6953,-5.748,-5.7519,-5.6308,-5.7344,-5.8437,-5.7637,-5.6758,-5.6113,-5.6113,-5.5723,-5.5644,-5.6445,-5.7363,-5.8555,-6.0273,-6.0859,-6.123,-6.164,-6.1699,-6.1699,-6.1699,-6.1289,-6.0996,-6.0996,-6.0605,-6.0351,-6.0351,-5.998,-5.9746,-5.9746,-5.9394,-5.9199,-5.9199,-5.9199,-5.8965,-5.8496,-5.8867,-5.8867,-5.8496,-5.8086,-5.7656,-5.7187,-5.6777,-5.6601,-5.6601,0.0,-5.6601,-5.6601,-5.6601,-5.6601,-5.6601,-5.6601,-5.6601,-5.6601,-5.6601,-5.6601,-5.6579,-5.6455,-5.594,-5.5202,-5.4289,-5.3319,-5.2327,-5.151,-5.0991,-5.0712,-5.0712,-5.0712,-5.0712,-5.0712,-5.0712,-5.0712,-5.0712,-5.0712,-5.0712,-5.0712,-5.0712,-5.0712,-5.0712,-5.0712,-5.0712,-5.0712,-5.0712,-5.0712,-5.0712,-5.0712,-5.0712,-5.0712,-5.0712,-5.0366,-4.949,-4.85,-4.7414,-4.6196,-4.5167,-4.4318,-4.3734,-4.36,-4.3531,-4.3515,-4.3515,-4.3515,-4.3515,-4.3515,-4.3515,-4.3515,-4.3515,-4.3515,-4.3515,-4.3515,-4.3515,-5.6113,-5.6445,-5.6601,-5.6601,-5.791,-5.9258,-5.9453,-5.8203,-5.7031,-5.7246,-5.6758,-5.6308,-5.6308,-5.789,-5.9687,-6.1152,-6.1562,-6.1699,-6.1699,-6.1699,-6.1621,-6.1426,-6.0801,-6.0332,-6.0137,-5.9551,-5.9199,-5.9199,-5.9004,-5.8906,-5.8906,-5.8691,-5.8594,-5.8594,-5.8594,-5.8262,-5.7598,-5.7598,-5.7598,-5.7598,-5.7598,-5.7246,-5.6601,-5.6601,-5.6601,-5.6601,-5.6601,-5.6601,-5.6601,-5.6601,-5.6601,-5.6601,-5.6601,-5.6601,-5.6601,-5.6601,-5.6601,-5.656,-5.6257,-5.5592,-5.4708,-5.3538,-5.2571,-5.175,-5.0933,-5.0712,-5.0712,-5.0712,-5.0712,-5.0712,-5.0712,-5.0712,-5.0712,-5.0712,-5.0712,-5.0712,-5.0712,-5.0712,-5.0712,-5.0712,-5.0712,-5.0712,-5.0712,-5.0712,-5.0712,-5.0712,-5.0712,-5.0712,-5.0712,-5.0712,-5.0366,-4.949,-4.8568,-4.7388,-4.5836,-4.5015,-4.4332,-4.3716,-4.3548,-4.3515,-4.3515,-4.3515,-4.3515,-4.3515,-4.3515,-4.3515,-4.3515,-4.3515,-4.3515,-4.3515,-4.3515,-4.3515,-5.5371,-5.5976,-5.6601,-5.6601,-5.6133,-5.5879,-5.6699,-5.5527,-5.4512,-5.5312,-5.5449,-5.539,-5.539,-5.748,-5.9473,-6.0351,-6.1172,-6.1699,-6.1699,-6.1699,-6.1406,-6.0586,-6.0449,-6.0117,-5.9355,-5.9238,-5.9199,-5.9199,-5.8457,-5.7988,-5.7988,-5.7226,-5.6797,-5.6797,-5.6797,-5.6758,-5.6699,-5.6699,-5.6699,-5.6699,-5.6699,-5.666,-5.6601,-5.6601,-5.6601,-5.6601,-5.6601,-5.6601,-5.6601,-5.6601,-5.6601,-5.6601,-5.6601,-5.6601,-5.6601,-5.6601,-5.6601,-5.6484,-5.5661,-5.5179,-5.4615,-5.2919,-5.2171,-5.175,-5.0933,-5.0712,-5.0712,-5.0712,-5.0712,-5.0712,-5.0712,-5.0712,-5.0712,-5.0712,-5.0712,-5.0712,-5.0712,-5.0712,-5.0712,-5.0712,-5.0712,-5.0712,-5.0712,-5.0712,-5.0712,-5.0712,-5.0712,-5.0712,-5.0712,-5.0712,-5.0366,-4.949,-4.84,-4.6858,-4.4705,-4.4188,-4.3945,-4.3881,-4.3651,-4.3515,-4.3515,-4.3515,-4.3515,-4.3515,-4.3515,-4.3515,-4.3515,-4.3515,-4.3515,-4.3515,-4.3515,-4.3515,-5.4199,-5.4336,-5.4433,-5.5527,-5.5547,-5.5801,-5.7773,-5.7715,-5.7461,-5.8301,-5.7637,-5.6914,-5.6914,-5.7715,-5.8672,-5.9512,-5.9922,-6.0156,-6.0156,-6.0156,-6.0019,-5.9687,-5.918,-5.873,-5.8418,-5.789,-5.7578,-5.7578,-5.7285,-5.709,-5.709,-5.6777,-5.6601,-5.6601,-5.6601,-5.6601,-5.6601,-5.6601,-5.6601,-5.6601,-5.6601,-5.6601,-5.6601,-5.6601,-5.6601,-5.6601,-5.6601,-5.6601,-5.6601,-5.6601,-5.6601,-5.6601,-5.6601,-5.6601,-5.6523,-5.5996,-5.5781,-5.5664,-5.4784,-5.3955,-5.3176,-5.2508,-5.178,-5.1106,-5.0789,-5.0712,-5.0712,-5.0712,-5.0712,-5.0712,-5.0712,-5.0712,-5.0712,-5.0712,-5.0712,-5.0712,-5.0712,-5.0712,-5.0712,-5.0712,-5.0712,-5.0712,-5.0712,-5.0712,-5.0712,-5.0712,-5.0712,-5.0712,-5.0712,-5.0712,-5.0164,-4.874,-4.698,-4.5495,-4.4481,-4.4075,-4.3897,-4.3897,-4.3769,-4.3652,-4.3583,-4.3565,-4.3531,-4.3515,-4.3515,-4.3515,-4.3515,-4.3515,-4.3515,-4.3515,-4.3515,-4.3515,-5.2617,-5.2754,-5.2988,-5.418,-5.5098,-5.625,-5.832,-5.8789,-5.9023,-5.9844,-5.8887,-5.789,-5.789,-5.789,-5.8105,-5.8691,-5.8983,-5.9137,-5.9137,-5.9113,-5.8991,-5.8737,-5.8196,-5.7731,-5.7477,-5.6933,-5.6601,-5.6601,-5.6601,-5.6601,-5.6601,-5.6601,-5.6601,-5.6601,-5.6601,-5.6601,-5.6601,-5.6601,-5.6601,-5.6601,-5.6601,-5.6601,-5.6601,-5.6601,-5.6601,-5.6601,-5.6601,-5.6601,-5.6601,-5.6601,-5.6601,-5.6562,-5.6308,-5.6191,-5.6074,-5.5215,-5.4883,-5.4765,-5.3886,-5.3023,-5.2266,-5.2007,-5.1361,-5.0712,-5.0712,-5.0712,-5.0712,-5.0712,-5.0712,-5.0712,-5.0712,-5.0712,-5.0712,-5.0712,-5.0712,-5.0712,-5.0712,-5.0712,-5.0712,-5.0712,-5.0712,-5.0712,-5.0712,-5.0712,-5.0712,-5.0712,-5.0712,-5.0712,-5.0712,-5.0712,-4.9971,-4.8045,-4.6268,-4.4965,-4.4341,-4.4064,-4.3929,-4.3929,-4.3899,-4.3802,-4.3667,-4.3615,-4.3582,-4.3531,-4.3515,-4.3515,-4.3515,-4.3515,-4.3515,-4.3515,-4.3515,-4.3515,-5.0644,-5.1426,-5.2695,-5.2695,-5.4668,-5.6836,-5.7695,-5.791,-5.8164,-5.9023,-5.8515,-5.791,-5.789,-5.789,-5.789,-5.789,-5.8504,-5.897,-5.897,-5.8923,-5.8542,-5.768,-5.7648,-5.7367,-5.6586,-5.6557,-5.6601,-5.6601,-5.6601,-5.6601,-5.6601,-5.6601,-5.6601,-5.6601,-5.6601,-5.6601,-5.6601,-5.6601,-5.6601,-5.6601,-5.6601,-5.6601,-5.6601,-5.6601,-5.6601,-5.6601,-5.6601,-5.6601,-5.6601,-5.6582,-5.6582,-5.6484,-5.5625,-5.5293,-5.5176,-5.4316,-5.3984,-5.3867,-5.2988,-5.2503,-5.2149,-5.1366,-5.0918,-5.0712,-5.0712,-5.0712,-5.0712,-5.0712,-5.0712,-5.0712,-5.0712,-5.0712,-5.0712,-5.0712,-5.0712,-5.0712,-5.0712,-5.0712,-5.0712,-5.0712,-5.0712,-5.0712,-5.0712,-5.0712,-5.0712,-5.0712,-5.0712,-5.0712,-5.0712,-5.0693,-4.9812,-4.7536,-4.6569,-4.5523,-4.4123,-4.4005,-4.4005,-4.4005,-4.4005,-4.3945,-4.3804,-4.3667,-4.3599,-4.3599,-4.3531,-4.3515,-4.3515,-4.3515,-4.3515,-4.3515,-4.3515,-4.3515,-5.0332,-5.0976,-5.1933,-5.2558,-5.4668,-5.668,-5.6933,-5.8379,-5.957,-5.9258,-5.8984,-5.8437,-5.7207,-5.6948,-5.6916,-5.6916,-5.7016,-5.7111,-5.7111,-5.7088,-5.6974,-5.6721,-5.6703,-5.666,-5.6504,-5.6518,-5.6554,-5.6601,-5.6601,-5.6601,-5.6601,-5.6601,-5.6601,-5.6601,-5.6601,-5.6601,-5.6601,-5.6601,-5.6601,-5.6601,-5.6601,-5.6601,-5.6601,-5.6601,-5.6601,-5.6601,-5.6601,-5.6601,-5.6543,-5.5937,-5.5312,-5.4746,-5.4492,-5.4394,-5.4277,-5.3418,-5.3086,-5.2969,-5.209,-5.1648,-5.1414,-5.1176,-5.0912,-5.0692,-5.0702,-5.0712,-5.0712,-5.0712,-5.0712,-5.0712,-5.0712,-5.0712,-5.0712,-5.0712,-5.0712,-5.0712,-5.0712,-5.0712,-5.0712,-5.0712,-5.0712,-5.0712,-5.0712,-5.0712,-5.0712,-5.0712,-5.0712,-5.0712,-5.0712,-4.9625,-4.8478,-4.7403,-4.6026,-4.4868,-4.4085,-4.4005,-4.4005,-4.4005,-4.4005,-4.3958,-4.3883,-4.3832,-4.3732,-4.3599,-4.3582,-4.3566,-4.3515,-4.3515,-4.3515,-4.3515,-4.3515,-4.3515,-5.0586,-5.1289,-5.2207,-5.3437,-5.5449,-5.7285,-5.7969,-5.9043,-5.9785,-5.9297,-5.8926,-5.8359,-5.7305,-5.6786,-5.6508,-5.6508,-5.6375,-5.6271,-5.6271,-5.6208,-5.6179,-5.6179,-5.622,-5.6295,-5.6367,-5.6444,-5.6518,-5.6556,-5.6581,-5.6601,-5.6601,-5.6601,-5.6601,-5.6601,-5.6601,-5.6601,-5.6601,-5.6601,-5.6601,-5.6601,-5.6601,-5.6601,-5.6601,-5.6601,-5.6601,-5.6582,-5.623,-5.6074,-5.6015,-5.5137,-5.4473,-5.3965,-5.3613,-5.3476,-5.3379,-5.25,-5.2187,-5.2109,-5.1582,-5.1279,-5.1092,-5.1093,-5.0913,-5.0692,-5.0702,-5.0702,-5.0712,-5.0712,-5.0712,-5.0712,-5.0712,-5.0712,-5.0712,-5.0712,-5.0712,-5.0712,-5.0712,-5.0712,-5.0712,-5.0712,-5.0712,-5.0712,-5.0712,-5.0712,-5.0712,-5.0712,-5.0712,-5.0577,-5.0231,-4.8952,-4.7778,-4.6897,-4.5609,-4.4572,-4.4048,-4.4005,-4.4005,-4.4005,-4.4005,-4.3974,-4.3945,-4.3913,-4.3849,-4.3734,-4.3684,-4.3634,-4.3531,-4.3531,-4.3532,-4.3515,-4.3515,-4.3515,-5.1094,-5.1973,-5.3125,-5.4863,-5.6601,-5.8301,-5.9824,-5.9609,-5.9082,-5.9082,-5.8457,-5.7871,-5.7793,-5.7076,-5.648,-5.6475,-5.631,-5.6175,-5.6175,-5.6071,-5.6012,-5.6012,-5.6109,-5.6181,-5.6194,-5.6367,-5.6484,-5.6506,-5.6558,-5.6601,-5.6601,-5.6601,-5.6601,-5.6601,-5.6601,-5.6601,-5.6601,-5.6601,-5.6601,-5.6601,-5.6523,-5.6484,-5.6484,-5.6484,-5.6445,-5.6328,-5.5527,-5.5137,-5.5,-5.4219,-5.3828,-5.3672,-5.2891,-5.2578,-5.248,-5.1699,-5.1406,-5.1406,-5.1406,-5.1279,-5.1116,-5.1096,-5.0933,-5.071,-5.0701,-5.0712,-5.0693,-5.0693,-5.0712,-5.0712,-5.0712,-5.0712,-5.0712,-5.0712,-5.0712,-5.0712,-5.0712,-5.0712,-5.0712,-5.0712,-5.0712,-5.0712,-5.0712,-5.0712,-5.0712,-5.0712,-5.0712,-5.0385,-4.951,-4.8644,-4.7596,-4.6276,-4.5336,-4.4585,-4.4079,-4.4002,-4.4005,-4.4005,-4.4005,-4.4005,-4.4005,-4.3945,-4.3915,-4.3897,-4.3835,-4.3736,-4.3599,-4.3599,-4.3565,-4.3515,-4.3515,-4.3515,-5.041,-5.1562,-5.3125,-5.4863,-5.6601,-5.7988,-5.8359,-5.8301,-5.8183,-5.8183,-5.8027,-5.7675,-5.6937,-5.6542,-5.6336,-5.6275,-5.6141,-5.6051,-5.6051,-5.601,-5.6012,-5.6012,-5.6026,-5.6079,-5.6181,-5.6291,-5.6381,-5.6484,-5.6558,0.0,-5.6601,-5.6601,-5.6601,-5.6601,-5.6601,-5.6601,-5.6601,-5.6601,-5.6601,0.0,-5.5918,-5.5586,-5.5586,-5.5586,-5.5215,-5.4551,-5.4355,-5.3887,-5.3242,-5.3066,-5.2578,-5.1933,-5.1758,-5.168,-5.166,-5.1465,-5.1406,-5.1406,-5.1406,-5.1302,-5.1172,-5.112,-5.0991,-5.0838,-5.072,-5.0692,-5.0692,-5.0702,-5.0712,-5.0712,-5.0712,-5.0712,-5.0712,-5.0712,-5.0712,-5.0712,-5.0712,-5.0712,-5.0712,-5.0712,-5.0712,-5.0712,-5.0712,-5.0712,-5.0712,-5.0712,-5.0712,-5.0385,-4.951,-4.8644,-4.7665,-4.6525,-4.5463,-4.4663,-4.4346,-4.4121,-4.4005,-4.4005,-4.4005,-4.4005,-4.4005,-4.3989,-4.3942,-4.3897,-4.3899,-4.3783,-4.3599,-4.3599,-4.3565,-4.3515,-4.3515,-4.3515,-5.0566,-5.2012,-5.3848,-5.6015,-5.6914,-5.7383,-5.7793,-5.7578,-5.7285,-5.7285,-5.7285,-5.7127,-5.6595,-5.6384,-5.6276,-5.6219,-5.6087,-5.6012,-5.6012,-5.6012,-5.6012,-5.6012,-5.6012,-5.6026,-5.6094,-5.6181,-5.63,-5.6404,-5.6497,-5.6383,-5.5996,-5.5976,-5.5781,-5.5371,-5.5351,-5.5351,-5.5351,-5.5351,-5.5351,-5.5351,-5.4883,-5.4453,-5.4062,-5.4492,-5.4433,-5.3984,-5.3555,-5.3125,-5.2676,-5.2246,-5.1816,-5.1406,-5.1406,-5.1406,-5.1406,-5.1406,-5.1406,-5.1406,-5.1406,-5.1304,-5.118,-5.1152,-5.1048,-5.0891,-5.0784,-5.0739,-5.0711,-5.0702,-5.0712,-5.0712,-5.0712,-5.0712,-5.0712,-5.0712,-5.0712,-5.0712,-5.0712,-5.0712,-5.0712,-5.0712,-5.0712,-5.0712,-5.0712,-5.0712,-5.0712,-5.0712,-5.0346,-4.976,-4.8894,-4.8048,-4.7108,-4.5997,-4.5341,-4.4884,-4.4612,-4.4346,-4.4192,-4.4192,-4.4079,-4.4005,-4.4005,-4.4005,-4.3974,-4.3961,-4.3961,-4.3865,-4.3703,-4.3703,-4.3617,-4.3515,-4.3515,-4.3515,-5.0547,-5.2441,-5.4551,-5.6875,-5.7012,-5.6797,-5.7519,-5.7129,-5.6562,-5.6406,-5.6504,-5.656,-5.6487,-5.6257,-5.6057,-5.5974,-5.5734,-5.5567,-5.5567,-5.5567,-5.5567,-5.5567,-5.5567,-5.5567,-5.5567,-5.5685,-5.5783,-5.5855,0.0,-5.5764,-5.5117,-5.5078,-5.4746,-5.4023,-5.4004,-5.3984,-5.3983,-5.3983,-5.3983,-5.3983,-5.3847,-5.332,-5.25,-5.3223,-5.3555,-5.3516,-5.2793,-5.248,-5.2422,-5.1699,-5.1406,-5.1406,-5.1406,-5.1406,-5.1406,-5.1406,-5.1406,-5.1406,-5.1406,-5.1327,-5.1222,-5.1207,-5.1078,-5.0921,-5.0836,-5.0775,-5.0701,-5.0693,-5.0693,-5.0712,-5.0712,-5.0712,-5.0712,-5.0712,-5.0712,-5.0712,-5.0712,-5.0712,-5.0712,-5.0712,-5.0712,-5.0712,-5.0712,-5.0577,-5.0481,-5.0481,-4.9721,-4.8856,-4.8009,-4.7308,-4.6483,-4.5398,-4.5222,-4.5085,-4.4812,-4.4546,-4.4388,-4.4332,-4.4121,-4.4005,-4.4005,-4.4005,-4.4005,-4.4005,-4.4005,-4.3945,-4.382,-4.382,-4.3719,-4.3532,-4.3532,-4.3515,-4.8965,-5.1562,-5.4277,-5.5371,-5.6133,-5.6621,-5.6758,-5.668,-5.6387,-5.5625,-5.6074,-5.6538,-5.6354,-5.5697,-5.5137,-5.5017,-5.4346,-5.3826,-5.3826,-5.3826,-5.3826,-5.3826,-5.3826,-5.3826,-5.3826,-5.3908,-5.4,-5.4117,-5.4195,-5.4223,-5.418,-5.418,-5.4121,-5.4004,-5.4004,-5.3962,-5.3904,-5.3902,-5.3902,-5.3904,-5.32,-5.2422,-5.1582,-5.1699,-5.1758,-5.1738,-5.1621,-5.1562,-5.1562,-5.1445,-5.1406,-5.1406,-5.1406,-5.1406,-5.1406,-5.1406,-5.1406,-5.1406,-5.1406,-5.1359,-5.1279,-5.1225,-5.1147,-5.1043,-5.0909,-5.0846,-5.0775,-5.072,-5.0702,-5.0712,-5.0712,-5.0712,-5.0712,-5.0712,-5.0712,-5.0712,-5.0712,-5.0712,-5.0712,-5.0712,-5.0712,-5.0712,-5.0712,-5.0067,-4.9567,-4.9567,-4.8836,-4.799,-4.7154,-4.6962,-4.6558,-4.5636,-4.5332,-4.5085,-4.4812,-4.4546,-4.4289,-4.4064,-4.4036,-4.4005,-4.4005,-4.4005,-4.4005,-4.4005,-4.4005,-4.3958,-4.3899,-4.3899,-4.3783,-4.3582,-4.3582,-4.3548,-4.9805,-5.1406,-5.2988,-5.4844,-5.5586,-5.5996,-5.6484,-5.6601,-5.6348,-5.5488,-5.5605,-5.5678,-5.5014,-5.4593,-5.4275,-5.4096,-5.3749,-5.3498,-5.3498,-5.3498,-5.3498,-5.3498,-5.3498,-5.3498,-5.3498,-5.3571,-5.3664,-5.3786,-5.3861,-5.3713,-5.3281,-5.3262,-5.3047,-5.2558,-5.2539,-5.2516,-5.2431,-5.245,-5.245,-5.2431,-5.2075,-5.1734,-5.1406,-5.1406,-5.1406,-5.1406,-5.1406,-5.1406,-5.1406,-5.1406,-5.1406,-5.1406,-5.1406,-5.1406,-5.1406,-5.1406,-5.1406,-5.1406,-5.1406,-5.1361,-5.1288,-5.1229,-5.1157,-5.1075,-5.0945,-5.0891,-5.0846,-5.0775,-5.073,-5.0712,-5.0712,-5.0712,-5.0712,-5.0712,-5.0712,-5.0712,-5.0712,-5.0712,-5.0712,-5.0712,-5.0712,-5.0539,-5.0048,-4.9644,-4.9221,-4.8759,-4.7971,-4.7288,-4.6942,-4.6471,-4.6009,-4.5633,-4.5495,-4.539,-4.5253,-4.4861,-4.4572,-4.4457,-4.4166,-4.4005,-4.4005,-4.4005,-4.4005,-4.4005,-4.4005,-4.3958,-4.3897,-4.3897,-4.3851,-4.3701,-4.3205,-4.319,-4.9863,-5.0605,-5.1348,-5.3711,-5.4473,-5.4922,-5.6015,-5.6269,-5.6015,-5.5156,-5.496,-5.4578,-5.3354,-5.3327,-5.34,-5.3205,-5.2975,-5.284,-5.284,-5.284,-5.284,-5.284,-5.284,-5.284,-5.284,-5.2924,-5.3016,-5.3124,-5.3197,-5.297,-5.2402,-5.2363,-5.207,-5.1426,-5.1406,-5.1362,-5.1279,-5.1263,-5.1263,-5.1279,-5.1291,-5.1334,-5.1406,-5.1406,-5.1406,-5.1406,-5.1406,-5.1406,-5.1406,-5.1406,-5.1406,-5.1406,-5.1406,-5.1406,-5.1406,-5.1406,-5.1406,-5.1406,-5.1406,-5.1363,-5.1304,-5.1232,-5.1176,-5.1097,-5.0948,-5.0908,-5.0891,-5.0846,-5.0766,-5.0701,-5.0701,-5.0702,-5.0712,-5.0712,-5.0712,-5.0712,-5.0712,-5.0712,-5.0712,-5.0712,-5.0519,-5.0164,-4.951,-4.9048,-4.8548,-4.7894,-4.7105,-4.6567,-4.6567,-4.599,-4.5594,-4.5594,-4.5594,-4.5577,-4.5504,-4.5074,-4.4763,-4.4701,-4.4265,-4.4005,-4.4005,-4.4005,-4.4005,-4.4005,-4.4005,-4.3974,-4.3929,-4.3929,-4.3788,-4.3504,-4.2841,-4.283,-4.7539,-4.8398,-4.9433,-5.1172,-5.2226,-5.3281,-5.498,-5.5371,-5.5117,-5.4258,-5.4016,-5.3435,-5.1666,-5.2002,-5.2509,-5.2302,-5.1563,-5.1033,-5.1033,-5.1033,-5.1033,-5.1033,-5.1033,-5.1033,-5.1033,-5.116,-5.1267,-5.1331,-5.1405,-5.1449,-5.1465,-5.1465,-5.1445,-5.1406,-5.1406,-5.1335,-5.1211,-5.1137,-5.1137,-5.1211,-5.1274,-5.1334,-5.1406,-5.1406,-5.1406,-5.1406,-5.1406,-5.1406,-5.1406,-5.1406,-5.1406,-5.1406,-5.1406,-5.1406,-5.1406,-5.1406,-5.1406,-5.1406,-5.1406,-5.1406,-5.1365,-5.1249,-5.1199,-5.1161,-5.0956,-5.0893,-5.0899,-5.0899,-5.0793,-5.0701,-5.0701,-5.0702,-5.0712,-5.0712,-5.0712,-5.0712,-5.0712,-5.0712,-5.0712,-5.0712,-5.0029,-4.9452,-4.9413,-4.8086,-4.7,-4.6962,-4.622,-4.5671,-4.5671,-4.5633,-4.5594,-4.5594,-4.5594,-4.5495,-4.5243,-4.4954,-4.4688,-4.4425,-4.4166,-4.4005,-4.4005,-4.4005,-4.4005,-4.4005,-4.4005,-4.4005,-4.3989,-4.3989,-4.3568,-4.2751,-4.2714,-4.263,-4.7363,-4.7832,-4.8476,-5.0195,-5.125,-5.2187,-5.3359,-5.4062,-5.4219,-5.3359,-5.3116,-5.2689,-5.1432,-5.1429,-5.1544,-5.1389,-5.1091,-5.0898,-5.0898,-5.0898,-5.0898,-5.0898,-5.0898,-5.0898,-5.0898,-5.106,-5.1165,-5.1199,0.0,-5.1365,-5.1406,-5.1406,-5.1406,-5.1406,-5.1406,-5.1334,-5.1203,-5.1042,-5.1048,-5.1203,-5.1209,-5.1293,-5.1406,-5.1406,-5.1406,-5.1406,-5.1406,-5.1406,-5.1406,-5.1406,-5.1406,-5.1406,-5.1406,-5.1406,-5.1406,-5.1406,-5.1406,-5.1406,-5.1406,-5.1406,-5.1386,-5.1293,-5.1242,-5.1178,-5.1068,-5.0974,-5.0901,-5.0901,-5.088,-5.0829,-5.0775,-5.073,-5.0702,-5.0693,-5.0712,-5.0712,-5.0712,-5.0269,-4.9875,-4.9875,-4.9163,-4.8394,-4.7875,-4.7298,-4.6721,-4.6144,-4.5806,-4.5594,-4.5594,-4.5594,-4.5594,-4.5594,-4.5594,-4.5568,-4.5457,-4.5211,-4.4931,-4.4676,-4.4416,-4.4177,-4.402,-4.4005,-4.4005,-4.4005,-4.4005,-4.4005,-4.4005,-4.4005,-4.3841,-4.3512,-4.2993,-4.2984,-4.6933,-4.7168,-4.7578,-4.9336,-4.9941,-5.0586,-5.2305,-5.293,-5.3047,-5.2754,-5.2621,-5.2297,-5.1367,-5.1111,-5.1004,-5.0914,-5.0898,-5.0898,-5.0898,-5.1149,-5.1235,-5.0937,-5.1149,-5.1215,-5.0937,-5.1081,-5.1203,0.0,0.0,0.0,-5.1406,-5.1406,-5.1406,-5.1406,-5.1361,-5.1291,-5.1203,-5.1042,-5.1042,-5.1203,-5.1229,-5.1291,-5.1406,-5.1406,-5.1406,-5.1406,-5.1406,-5.1406,-5.1406,-5.1406,-5.1406,-5.1406,-5.1406,-5.1406,-5.1406,-5.1406,-5.1406,-5.1406,-5.1406,-5.1406,-5.1386,-5.1328,-5.1241,-5.1187,-5.112,-5.1004,-5.0898,-5.0898,-5.0893,-5.0891,-5.0846,-5.0775,-5.0692,-5.0702,-5.0702,-5.0616,-5.0327,-4.9798,-4.9394,-4.9394,-4.849,-4.7528,-4.6981,-4.6663,-4.6278,-4.5691,-4.5594,-4.5594,-4.5594,-4.5594,-4.5594,-4.5594,-4.5594,-4.5594,-4.5594,-4.5352,-4.5085,-4.4812,-4.4546,-4.4275,-4.402,-4.4005,-4.4005,-4.4005,-4.4005,-4.4005,-4.4005,-4.4005,-4.3856,-4.3578,-4.3039,-4.3064,0.0,0.0,0.0,-4.8379,-4.8183,-4.8457,-5.1758,-5.1894,-5.1562,-5.2441,-5.2524,-5.2162,-5.1359,-5.1048,-5.0906,-5.0898,-5.0898,-5.0898,-5.0898,-5.1641,-5.1892,-5.1033,-5.1718,-5.1892,-5.1014,-5.112,-5.1222,0.0,-5.133,-5.1406,-5.1406,-5.1406,-5.1406,-5.1406,-5.1274,-5.1203,-5.1203,-5.1122,-5.1122,-5.1203,-5.1274,-5.1334,-5.1406,-5.1406,-5.1406,-5.1406,-5.1406,-5.1406,-5.1406,-5.1406,-5.1406,-5.1406,-5.1406,-5.1406,-5.1406,-5.1406,-5.1406,-5.1406,-5.1406,-5.1406,-5.1386,-5.133,-5.1263,-5.1187,-5.1125,-5.101,-5.0898,-5.0898,-5.0893,-5.0899,-5.0899,-5.0793,-5.0701,-5.0701,-5.0702,-5.0462,-4.9586,-4.9375,-4.9356,-4.9336,-4.799,-4.6846,-4.6846,-4.6163,-4.5594,-4.5594,-4.5594,-4.5594,-4.5594,-4.5594,-4.5594,-4.5594,-4.5594,-4.5594,-4.5594,-4.5352,-4.5096,-4.4825,-4.4559,-4.4289,-4.4017,-4.3986,-4.4005,-4.4005,-4.4005,-4.4005,-4.4005,-4.4005,-4.3596,-4.2835,-4.2835,-4.2816,-4.623,0.0,0.0,0.0,0.0,0.0,-4.8008,-4.8824,-4.9776,-5.0703,-5.0748,-5.0739,-5.1125,-5.1116,-5.101,-5.0921,-5.0898,-5.0898,-5.0898,-5.1641,-5.2113,-5.1873,-5.2608,-5.2801,-5.1912,-5.2014,0.0,0.0,-5.133,-5.1406,-5.1406,-5.1406,-5.1406,-5.1406,-5.1274,-5.1203,-5.1203,-5.1122,-5.1122,-5.1203,-5.1274,-5.1334,-5.1406,-5.1406,-5.1406,-5.1406,-5.1406,-5.1406,-5.1406,-5.1406,-5.1406,-5.1406,-5.1406,-5.1406,-5.1406,-5.1406,-5.1406,-5.1406,-5.1406,-5.1406,-5.1406,-5.1385,-5.1293,-5.1199,-5.1174,-5.1048,-5.0898,-5.0898,-5.089,-5.0893,-5.0908,-5.0838,-5.0766,-5.071,-5.0711,-5.0461,-4.9596,-4.8894,-4.8298,-4.7702,-4.6701,-4.5951,-4.5951,-4.5768,-4.5594,-4.5594,-4.5594,-4.5594,-4.5594,-4.5594,-4.5594,-4.5594,-4.5594,-4.5594,-4.5594,-4.5522,-4.5362,-4.5096,-4.4837,-4.4572,-4.4289,-4.4091,-4.4005,-4.4005,-4.4005,-4.4005,-4.4005,-4.4005,-4.3893,-4.367,-4.367,-4.3355,-4.6308,-4.6308,-4.6269,-4.6113,0.0,0.0,-4.7246,-4.7576,-4.8119,-4.9394,-4.9529,-4.9669,-5.0547,-5.0622,-5.0648,-5.0939,-5.0944,-5.0898,-5.0898,-5.197,-5.2616,-5.2248,-5.3285,-5.3691,-5.2821,-5.2927,-5.268,-5.1803,-5.1875,-5.1777,-5.1426,-5.1406,-5.1406,-5.1406,-5.1295,-5.1249,-5.1249,-5.1207,-5.1207,-5.1249,-5.1302,-5.1363,-5.1406,-5.1406,-5.1406,-5.1406,-5.1406,-5.1406,-5.1406,-5.1406,-5.1406,-5.1406,-5.1406,-5.1406,-5.1406,-5.1406,-5.1406,-5.1406,-5.1406,-5.1406,-5.1406,-5.1406,-5.1302,-5.1203,-5.1203,-5.1053,-5.0898,-5.0898,-5.0898,-5.0898,-5.0893,-5.0872,-5.0838,-5.0784,-5.0748,-5.0364,-4.9162,-4.8489,-4.7855,-4.7058,-4.6201,-4.5594,-4.5594,-4.5594,-4.5594,-4.5594,-4.5594,-4.5594,-4.5594,-4.5594,-4.5594,-4.5594,-4.5594,-4.5594,-4.5594,-4.5594,-4.5485,-4.5222,-4.4962,-4.4676,-4.4397,-4.4151,-4.4005,-4.4005,-4.4005,-4.4005,-4.4005,-4.4005,-4.4005,-4.4005,-4.4005,-4.3745,-4.6582,-4.6582,-4.6738,-4.7305,-4.6445,0.0,-4.8008,-4.7402,-4.6875,-4.8437,-4.8643,-4.8833,-4.9688,-4.9741,-4.992,-5.0679,-5.0782,-5.0801,-5.0898,-5.2318,-5.3091,-5.2422,-5.3807,-5.4492,-5.3723,-5.3813,-5.3541,-5.2575,-5.254,-5.2226,-5.1445,-5.1406,-5.1406,-5.1406,-5.1334,-5.1297,-5.1297,-5.1297,-5.1297,-5.1297,-5.1364,-5.1406,-5.1406,-5.1406,-5.1406,-5.1406,-5.1406,-5.1406,-5.1406,-5.1406,-5.1406,-5.1406,-5.1406,-5.1406,-5.1406,-5.1406,-5.1406,-5.1406,-5.1406,-5.1406,-5.1406,-5.1406,-5.1304,-5.1214,-5.1203,-5.1064,-5.0921,-5.0906,-5.0898,-5.0898,-5.0898,-5.0893,-5.0908,-5.0899,-5.0793,-5.0248,-4.8544,-4.8142,-4.7836,-4.6932,-4.6124,-4.5594,-4.5594,-4.5594,-4.5594,-4.5594,-4.5594,-4.5594,-4.5594,-4.5594,-4.5594,-4.5594,-4.5594,-4.5594,-4.5594,-4.5594,-4.5504,-4.5253,-4.4996,-4.4726,-4.4452,-4.4196,-4.4017,-4.4005,-4.4005,-4.4005,-4.4005,-4.4005,-4.4005,-4.4005,-4.4005,-4.4005,-4.8398,-4.8398,-4.8105,-4.6855,-4.7344,0.0,-4.6113,-4.6538,-4.7371,-4.7773,-4.7785,-4.7969,-4.8721,-4.8842,-4.8847,-4.8922,-4.9497,-5.0171,-5.0801,-5.1796,-5.2655,-5.3169,-5.4175,-5.4754,-5.4634,-5.4718,-5.4149,-5.2684,-5.2005,-5.1582,-5.1406,-5.1406,-5.1406,-5.1406,-5.1334,-5.1297,-5.1297,-5.1297,-5.1297,-5.1297,-5.1364,-5.1406,-5.1406,-5.1406,-5.1406,-5.1406,-5.1406,-5.1406,-5.1406,-5.1406,-5.1406,-5.1406,-5.1406,-5.1406,-5.1406,-5.1406,-5.1406,-5.1406,-5.1406,-5.1406,-5.1406,-5.1406,-5.1358,-5.1274,-5.1222,-5.1123,-5.1043,-5.0937,-5.0898,-5.0898,-5.0898,-5.089,-5.0893,-5.0827,-5.0801,-5.0284,-4.8508,-4.8115,-4.7644,-4.6144,-4.5729,-4.5594,-4.5594,-4.5594,-4.5594,-4.5594,-4.5594,-4.5594,-4.5594,-4.5594,-4.5594,-4.5594,-4.5594,-4.5594,-4.5594,-4.5594,-4.5577,-4.5541,-4.5263,-4.5007,-4.4726,-4.4452,-4.4221,-4.3986,-4.4005,-4.4005,-4.4005,-4.4005,-4.4005,-4.4005,-4.4005,-4.4005,-4.9023,-4.8906,-4.8691,-4.7812,-4.7598,0.0,0.0,-4.6268,-4.6519,-4.7402,-4.6873,-4.6631,-4.7865,-4.768,-4.7466,-4.7794,-4.8522,-4.9184,-4.961,-5.1119,-5.2364,-5.2801,-5.3646,-5.4211,-5.4246,-5.4362,-5.3952,-5.2745,-5.1874,-5.1406,-5.1406,-5.1406,-5.1406,-5.1406,-5.1364,-5.1359,-5.1359,-5.1359,-5.1359,-5.1359,-5.1386,-5.1406,-5.1406,-5.1406,-5.1406,-5.1406,-5.1406,-5.1406,-5.1406,-5.1406,-5.1406,-5.1406,-5.1406,-5.1406,-5.1406,-5.1406,-5.1406,-5.1406,-5.1406,-5.1406,-5.1406,-5.1406,-5.1341,-5.1288,-5.1225,-5.1116,-5.0983,-5.0921,-5.0898,-5.0898,-5.0898,-5.0898,-5.0882,-5.0863,-5.0819,-5.0321,-4.8526,-4.8124,-4.7605,-4.5941,-4.5594,-4.5594,-4.5594,-4.5594,-4.5594,-4.5594,-4.5594,-4.5594,-4.5594,-4.5594,-4.5594,-4.5594,-4.5594,-4.5594,-4.5594,-4.5594,-4.5594,-4.5594,-4.5342,-4.5129,-4.5007,-4.4612,-4.426,-4.4005,-4.4005,-4.4005,-4.4005,-4.4005,-4.4005,-4.4005,-4.4005,-4.4005,-4.957,-4.9375,-4.9297,-4.8984,-4.7969,-4.7109,0.0,0.0,0.0,-4.709,-4.623,-4.5683,-4.707,-4.6526,0.0,-4.6932,0.0,0.0,0.0,-5.0078,0.0,-5.1699,-5.2556,0.0,-5.3369,-5.3407,-5.3229,-5.2734,-5.1758,-5.123,-5.1387,-5.1406,-5.1406,-5.1406,-5.1406,-5.1406,-5.1406,-5.1406,-5.1406,-5.1406,-5.1406,-5.1328,-5.1172,-5.1172,-5.1074,-5.0918,-5.0918,-5.0918,-5.0918,-5.0918,-5.0918,-5.0957,-5.1269,-5.1406,-5.1406,-5.1406,-5.1308,-5.1172,-5.1172,-5.1172,-5.1133,-5.0976,-5.0989,-5.1074,-5.1167,-5.107,-5.0925,-5.0906,-5.0898,-5.0898,-5.0898,-5.0898,-5.0909,-5.0888,-5.0846,-5.0359,-4.8792,-4.8392,-4.7894,-4.6374,-4.596,-4.5806,-4.5633,-4.5594,-4.5594,-4.5594,-4.5594,-4.5594,-4.5594,-4.5594,-4.5594,-4.5594,-4.5594,-4.5594,-4.5594,-4.5594,-4.5594,-4.5594,-4.54,-4.5253,-4.5201,-4.467,-4.4289,-4.4094,-4.4036,-4.4005,-4.4005,-4.4005,-4.4005,-4.4005,-4.4005,-4.4005,-5.1133,-5.1113,-5.0762,-4.9277,-4.9336,-4.918,-4.6953,0.0,-4.7148,-4.6562,0.0,-4.619,-4.633,0.0,0.0,-4.6109,0.0,0.0,-4.7231,-4.8205,-4.9126,-4.99,-5.081,0.0,0.0,-5.2044,-5.1972,-5.2656,-5.123,-5.0644,-5.1367,-5.1406,-5.1406,-5.1406,-5.1406,-5.1406,-5.1406,-5.1406,-5.1406,-5.1406,-5.1406,-5.1035,-5.0332,-5.0332,-4.9902,-4.918,-4.918,-4.918,-4.918,-4.918,-4.918,-4.9336,-5.082,-5.1406,-5.1406,-5.1406,-5.0957,-5.0332,-5.0332,-5.0332,-5.0215,-4.9433,-4.9622,-5.0271,-5.0991,-5.1147,-5.1056,-5.0925,-5.0898,-5.0898,-5.0898,-5.0898,-5.0909,-5.0888,-5.0846,-5.0533,-4.9554,-4.9297,-4.8971,-4.8009,-4.724,-4.6509,-4.5729,-4.5594,-4.5594,-4.5594,-4.5594,-4.5594,-4.5594,-4.5594,-4.5594,-4.5594,-4.5594,-4.5594,-4.5594,-4.5594,-4.5594,-4.5594,-4.5568,-4.5438,-4.5211,-4.467,-4.4388,-4.436,-4.4121,-4.4005,-4.4005,-4.4005,-4.4005,-4.4005,-4.4005,-4.4005,-5.1405,-5.1406,-5.1113,-4.9941,-4.9551,-4.9023,-4.7422,-4.6953,-4.6738,-4.6387,0.0,0.0,0.0,0.0,0.0,0.0,-4.5413,0.0,0.0,0.0,-4.7482,0.0,0.0,0.0,0.0,0.0,0.0,0.0,-5.0859,-5.0547,-5.1367,-5.1406,-5.1406,-5.1406,-5.1406,-5.1406,-5.1406,-5.1406,-5.1172,-5.0703,-5.0703,-5.0254,-4.9453,-4.9453,-4.9258,-4.8906,-4.8906,-4.8906,-4.8906,-4.8906,-4.8906,-4.8965,-4.9668,-4.9941,-4.9941,-4.9941,-4.9746,-4.9453,-4.9453,-4.9453,-4.9473,-4.9609,-4.9817,-5.0154,-5.0952,-5.1157,-5.1075,-5.0944,-5.0898,-5.0898,-5.0898,-5.0898,-5.0909,-5.0888,-5.0891,-5.0606,-4.9698,-4.9489,-4.9201,-4.8279,-4.7451,-4.6778,-4.6413,-4.5932,-4.5594,-4.5594,-4.5594,-4.5594,-4.5594,-4.5594,-4.5594,-4.5594,-4.5594,-4.5594,-4.5594,-4.5594,-4.5594,-4.5594,-4.5594,-4.5485,-4.5211,-4.4977,-4.4726,-4.4416,-4.4289,-4.4166,-4.4005,-4.4005,-4.4005,-4.4005,-4.4005,-4.4005,-5.1403,-5.1403,-5.115,-5.0097,-4.9374,-4.8554,-4.7207,-4.6777,-4.6523,-4.6035,-4.5312,0.0,0.0,0.0,-4.4067,-4.4301,0.0,-4.5836,0.0,-4.6041,0.0,0.0,0.0,0.0,0.0,0.0,0.0,0.0,0.0,-4.9941,-5.1016,-5.1074,-5.1172,-5.1387,-5.1406,-5.1406,-5.1406,-5.1172,-5.0781,-5.0195,-4.9961,-4.9394,-4.8535,-4.8535,-4.8418,-4.8183,-4.8183,-4.8183,-4.8183,-4.8183,-4.8183,-4.8183,-4.8183,-4.8183,-4.8242,-4.8711,-4.875,-4.8535,-4.8535,-4.8398,-4.8379,-4.9473,-4.9781,-4.9838,-5.0605,-5.0977,-5.1103,-5.094,-5.0898,-5.0898,-5.0898,-5.0898,-5.089,-5.0905,-5.0908,-5.0709,-5.0023,-4.9861,-4.9651,-4.8941,-4.8162,-4.7518,-4.7278,-4.6317,-4.5594,-4.5594,-4.5594,-4.5594,-4.5594,-4.5594,-4.5594,-4.5594,-4.5594,-4.5594,-4.5594,-4.5594,-4.5594,-4.5594,-4.5594,-4.5513,-4.5322,-4.518,-4.4908,-4.4519,-4.4374,-4.4192,-4.4005,-4.4005,-4.4005,-4.4005,-4.4005,-4.4005,0.0,0.0,0.0,-4.9353,0.0,-4.8222,-4.5664,-4.6367,-4.707,-4.5391,-4.6348,-4.7226,-4.6367,-4.5527,-4.5234,-4.6074,-4.5498,0.0,0.0,-4.6137,0.0,0.0,0.0,0.0,0.0,0.0,0.0,0.0,0.0,0.0,-5.0156,-5.0234,-5.0605,-5.1387,-5.1406,-5.1406,-5.1406,-5.0625,-5.0234,-5.0195,-4.9336,-4.8496,-4.7637,-4.7637,-4.7187,-4.6387,-4.6387,-4.6387,-4.6387,-4.6387,-4.6387,-4.6387,-4.6387,-4.6387,-4.6582,-4.8281,-4.8379,-4.7637,-4.7637,-4.709,-4.668,-4.8379,-4.8945,-4.906,-4.9741,-5.0533,-5.1161,-5.0949,-5.0898,-5.0898,-5.0898,-5.0898,-5.0898,-5.0898,-5.0905,-5.088,-5.0861,-5.0808,-5.0726,-5.0633,-4.996,-4.9123,-4.823,-4.6682,-4.5594,-4.5594,-4.5594,-4.5594,-4.5594,-4.5594,-4.5594,-4.5594,-4.5594,-4.5594,-4.5594,-4.5594,-4.5594,-4.5594,-4.5594,-4.5605,-4.5586,-4.5085,-4.48,-4.4776,-4.4279,-4.402,-4.4005,-4.4005,-4.4005,-4.4005,-4.4005,-4.4005,0.0,0.0,-5.1121,-4.9974,0.0,0.0,0.0,0.0,-4.6249,-4.4492,-4.5527,-4.6308,-4.4844,-4.4805,-4.5098,-4.5391,-4.5663,-4.5911,0.0,-4.6142,0.0,-4.6079,-4.6842,-4.7579,-4.8007,0.0,0.0,0.0,-4.8086,0.0,0.0,-4.9883,-5.0312,-5.0605,-5.1113,-5.1133,-5.0605,-5.0332,-4.9629,-4.8476,-4.8183,-4.7578,-4.6738,-4.6738,-4.6582,-4.6308,-4.6308,-4.6308,-4.6308,-4.6308,-4.6308,-4.6308,-4.6308,-4.6308,-4.6367,-4.6953,-4.6992,-4.6738,-4.6738,-4.6543,-4.6582,-4.832,-4.8845,-4.902,-5.0352,-5.0942,-5.1089,-5.094,-5.0898,-5.0898,-5.0898,-5.0898,-5.0898,-5.0898,-5.0909,-5.0893,-5.0908,-5.0872,-5.0846,-5.0784,-5.0093,-4.9401,-4.9075,-4.7604,-4.6259,-4.5691,-4.5594,-4.5594,-4.5594,-4.5594,-4.5594,-4.5594,-4.5594,-4.5594,-4.5594,-4.5594,-4.5594,-4.5594,-4.5594,-4.5594,-4.5594,-4.5272,-4.4985,-4.48,-4.4457,-4.4181,-4.4005,-4.4005,-4.4005,-4.4005,-4.4005,-4.4005,-5.1405,-5.1405,0.0,-5.032,-4.9283,0.0,-4.6635,0.0,-4.6735,0.0,-4.5761,-4.6503,-4.5702,-4.5507,-4.5566,-4.5879,-4.6133,-4.6288,0.0,-4.6189,-4.6158,-4.6235,-4.6676,-4.701,-4.7129,-4.7148,-4.7363,-4.793,-4.7461,0.0,0.0,0.0,-4.9883,-5.0195,-5.0976,-5.1016,-5.0215,-4.9883,-4.9023,-4.7598,-4.7285,-4.6836,-4.6308,-4.6308,-4.6308,-4.6308,-4.6308,-4.6308,-4.6308,-4.6308,-4.6308,-4.6308,-4.6308,-4.6308,-4.6308,-4.6308,-4.6308,-4.6308,-4.6308,-4.6308,-4.6484,-4.7617,-4.8294,-4.8903,-4.9955,-5.0666,-5.1075,-5.0944,-5.0898,-5.0898,-5.0898,-5.0898,-5.0898,-5.0898,-5.0898,-5.089,-5.0905,-5.0905,-5.0888,-5.0846,-5.0368,-4.9898,-4.9553,-4.8564,-4.7412,-4.6249,-4.5806,-4.5594,-4.5594,-4.5594,-4.5594,-4.5594,-4.5594,-4.5594,-4.5594,-4.5594,-4.5594,-4.5594,-4.5594,-4.5594,-4.5594,-4.5342,-4.5074,-4.4819,-4.4533,-4.4279,-4.4005,-4.4005,-4.4005,-4.4005,-4.4005,-4.4005]},{"header":{"parameterUnit":"m.s-1","parameterCategory":1,"la1":30.6,"la2":29.2853,"lo1":-89.7004,"lo2":-87.6739,"dy":0.0162,"dx":0.0183,"nx":112,"ny":82,"refTime":"2024-05-22T18:00:00:Z","depth":0,"parameterNumber":3,"parameterNumberName":"V-component_of_WINDS"},"data":[0.0,0.0,0.0,0.0,0.0,0.0,0.0,0.0,0.0,0.0,0.0,0.0,0.0,0.0,0.0,0.0,0.0,0.0,0.0,0.0,0.0,0.0,0.0,0.0,0.0,0.0,0.0,0.0,0.0,0.0,0.0,0.0,0.0,0.0,0.0,0.0,0.0,0.0,0.0,0.0,0.0,0.0,0.0,0.0,0.0,0.0,0.0,0.0,0.0,0.0,0.0,0.0,0.0,0.0,0.0,0.0,0.0,0.0,0.0,0.0,0.0,0.0,0.0,0.0,0.0,0.0,0.0,0.0,0.0,0.0,0.0,0.0,0.0,0.0,0.0,0.0,0.0,0.0,0.0,0.0,0.0,0.0,0.0,0.0,0.0,0.0,0.0,0.0,0.0,0.0,-1.9733,-2.1036,-2.1917,-2.2398,-2.2358,-2.2084,-2.1309,-1.9893,0.0,0.0,0.0,0.0,0.0,0.0,0.0,0.0,0.0,0.0,0.0,0.0,0.0,0.0,0.0,0.0,0.0,0.0,0.0,0.0,0.0,0.0,0.0,0.0,0.0,0.0,0.0,0.0,0.0,0.0,0.0,0.0,0.0,0.0,0.0,0.0,0.0,0.0,0.0,0.0,0.0,0.0,0.0,0.0,0.0,0.0,0.0,0.0,0.0,0.0,0.0,0.0,0.0,0.0,0.0,0.0,0.0,0.0,0.0,0.0,0.0,0.0,0.0,0.0,0.0,0.0,0.0,0.0,0.0,0.0,0.0,0.0,0.0,0.0,0.0,0.0,0.0,0.0,0.0,0.0,0.0,0.0,0.0,0.0,0.0,0.0,0.0,0.0,0.0,0.0,0.0,0.0,0.0,0.0,0.0,0.0,0.0,0.0,0.0,0.0,0.0,0.0,0.0,0.0,-1.9359,-2.1346,-2.2044,-2.2318,-2.2071,-2.1784,-2.1102,-1.988,0.0,0.0,0.0,0.0,0.0,0.0,0.0,0.0,0.0,0.0,0.0,0.0,0.0,0.0,0.0,0.0,0.0,0.0,0.0,0.0,0.0,0.0,0.0,0.0,0.0,0.0,0.0,0.0,0.0,0.0,0.0,0.0,0.0,0.0,0.0,0.0,0.0,0.0,0.0,0.0,0.0,0.0,0.0,0.0,0.0,0.0,0.0,0.0,0.0,0.0,0.0,0.0,0.0,0.0,0.0,0.0,0.0,0.0,0.0,0.0,0.0,0.0,0.0,0.0,0.0,0.0,0.0,0.0,0.0,0.0,0.0,0.0,0.0,0.0,0.0,0.0,0.0,0.0,0.0,0.0,0.0,0.0,0.0,0.0,0.0,0.0,0.0,0.0,0.0,0.0,0.0,0.0,0.0,0.0,0.0,0.0,0.0,0.0,0.0,0.0,0.0,0.0,0.0,-1.9199,-1.9806,-2.1447,-2.179,-2.1897,-2.1764,-2.14,-2.0641,-1.9633,-1.8991,0.0,0.0,0.0,0.0,0.0,0.0,0.0,0.0,0.0,0.0,0.0,0.0,0.0,0.0,0.0,0.0,0.0,0.0,0.0,0.0,0.0,0.0,0.0,0.0,0.0,0.0,0.0,0.0,0.0,0.0,0.0,0.0,0.0,0.0,0.0,0.0,0.0,0.0,0.0,0.0,0.0,0.0,0.0,0.0,0.0,0.0,0.0,0.0,0.0,0.0,0.0,0.0,0.0,0.0,0.0,0.0,0.0,0.0,0.0,0.0,0.0,0.0,0.0,0.0,0.0,0.0,0.0,0.0,0.0,0.0,0.0,0.0,0.0,0.0,0.0,0.0,0.0,0.0,0.0,0.0,0.0,0.0,0.0,0.0,0.0,0.0,0.0,0.0,0.0,0.0,0.0,0.0,0.0,0.0,0.0,0.0,0.0,0.0,0.0,0.0,0.0,0.0,-1.9853,-2.0454,-2.1349,-2.1574,-2.1588,-2.1521,-2.0909,-2.0227,-1.9477,-1.8464,0.0,0.0,0.0,0.0,0.0,0.0,0.0,0.0,0.0,0.0,0.0,0.0,0.0,0.0,0.0,0.0,0.0,0.0,0.0,0.0,0.0,0.0,0.0,0.0,0.0,0.0,0.0,0.0,0.0,0.0,0.0,0.0,0.0,0.0,0.0,0.0,0.0,0.0,0.0,0.0,0.0,0.0,0.0,0.0,0.0,0.0,0.0,0.0,0.0,0.0,0.0,0.0,0.0,0.0,0.0,0.0,0.0,0.0,0.0,0.0,0.0,0.0,0.0,0.0,0.0,0.0,0.0,0.0,0.0,0.0,0.0,0.0,0.0,0.0,0.0,0.0,0.0,0.0,0.0,0.0,0.0,0.0,0.0,0.0,0.0,0.0,0.0,0.0,0.0,0.0,0.0,0.0,0.0,0.0,0.0,0.0,0.0,0.0,0.0,0.0,0.0,0.0,-2.0007,-2.1049,-2.1129,-2.139,-2.1443,-2.1162,-2.0601,-2.0007,-1.9464,-1.8263,0.0,0.0,0.0,0.0,0.0,0.0,0.0,0.0,0.0,0.0,0.0,0.0,0.0,0.0,0.0,0.0,0.0,0.0,0.0,0.0,0.0,0.0,0.0,0.0,0.0,0.0,0.0,0.0,0.0,0.0,0.0,0.0,0.0,0.0,0.0,0.0,0.0,0.0,0.0,0.0,0.0,0.0,0.0,0.0,0.0,0.0,0.0,0.0,0.0,0.0,0.0,0.0,0.0,0.0,0.0,0.0,0.0,0.0,0.0,0.0,0.0,0.0,0.0,0.0,0.0,0.0,0.0,0.0,0.0,0.0,0.0,0.0,0.0,0.0,0.0,0.0,0.0,0.0,0.0,0.0,0.0,0.0,0.0,0.0,0.0,0.0,0.0,0.0,0.0,0.0,0.0,0.0,0.0,0.0,0.0,0.0,0.0,0.0,0.0,0.0,0.0,0.0,-1.9386,-2.0301,-2.1029,-2.1049,-2.0962,-2.0848,-2.0134,-1.9446,-1.8858,0.0,0.0,0.0,0.0,0.0,0.0,0.0,0.0,0.0,0.0,0.0,0.0,0.0,0.0,0.0,0.0,0.0,0.0,0.0,0.0,0.0,0.0,0.0,0.0,0.0,0.0,0.0,0.0,0.0,0.0,0.0,0.0,0.0,0.0,0.0,0.0,0.0,0.0,0.0,0.0,0.0,0.0,0.0,0.0,0.0,0.0,0.0,0.0,0.0,0.0,0.0,0.0,0.0,0.0,0.0,0.0,0.0,0.0,0.0,0.0,0.0,0.0,0.0,0.0,0.0,0.0,0.0,0.0,0.0,0.0,0.0,0.0,0.0,0.0,0.0,0.0,0.0,0.0,0.0,0.0,0.0,0.0,0.0,0.0,0.0,0.0,0.0,0.0,0.0,0.0,0.0,0.0,0.0,0.0,0.0,0.0,0.0,0.0,0.0,0.0,0.0,0.0,-1.835,-1.9085,-1.9846,-2.0735,-2.0655,-2.0535,-2.0535,-1.9733,-1.8971,-1.8384,0.0,0.0,0.0,0.0,0.0,0.0,0.0,0.0,0.0,0.0,0.0,0.0,0.0,0.0,0.0,0.0,0.0,0.0,0.0,0.0,0.0,0.0,0.0,0.0,0.0,0.0,0.0,0.0,0.0,0.0,0.0,0.0,0.0,0.0,0.0,0.0,0.0,0.0,0.0,0.0,0.0,0.0,0.0,0.0,0.0,0.0,0.0,0.0,0.0,0.0,0.0,0.0,0.0,0.0,0.0,0.0,0.0,0.0,0.0,0.0,0.0,0.0,0.0,0.0,0.0,0.0,0.0,0.0,0.0,0.0,0.0,0.0,0.0,0.0,0.0,0.0,0.0,0.0,0.0,0.0,0.0,0.0,0.0,0.0,0.0,0.0,0.0,0.0,0.0,0.0,0.0,0.0,0.0,0.0,0.0,0.0,0.0,0.0,0.0,0.0,0.0,0.0,-1.8364,-1.9252,-1.9907,-2.0201,-2.0227,-2.0167,-2.016,-1.9361,-1.8671,0.0,0.0,0.0,0.0,0.0,0.0,0.0,0.0,0.0,0.0,0.0,0.0,0.0,0.0,0.0,0.0,0.0,0.0,0.0,0.0,0.0,0.0,0.0,0.0,0.0,0.0,0.0,0.0,0.0,0.0,0.0,0.0,0.0,0.0,0.0,0.0,0.0,0.0,0.0,0.0,0.0,0.0,0.0,0.0,0.0,0.0,0.0,0.0,0.0,0.0,0.0,0.0,0.0,0.0,0.0,0.0,0.0,0.0,0.0,0.0,0.0,0.0,0.0,0.0,0.0,0.0,0.0,0.0,0.0,0.0,0.0,0.0,0.0,0.0,0.0,0.0,0.0,0.0,0.0,0.0,0.0,0.0,0.0,0.0,0.0,0.0,0.0,0.0,0.0,0.0,0.0,0.0,0.0,0.0,0.0,0.0,0.0,0.0,0.0,0.0,0.0,0.0,0.0,-1.7762,-1.8811,-1.9686,-2.018,-2.0047,-1.9846,-1.9639,-1.9005,-1.8277,-1.7468,0.0,0.0,0.0,0.0,0.0,0.0,0.0,0.0,0.0,0.0,0.0,0.0,0.0,0.0,0.0,0.0,0.0,0.0,0.0,0.0,0.0,0.0,0.0,0.0,0.0,0.0,0.0,0.0,0.0,0.0,0.0,0.0,0.0,0.0,0.0,0.0,0.0,0.0,0.0,0.0,0.0,0.0,0.0,0.0,0.0,0.0,0.0,0.0,0.0,0.0,0.0,0.0,0.0,0.0,0.0,0.0,0.0,0.0,0.0,0.0,0.0,0.0,0.0,0.0,0.0,0.0,0.0,0.0,0.0,0.0,0.0,0.0,0.0,0.0,0.0,0.0,0.0,0.0,0.0,0.0,0.0,0.0,0.0,0.0,0.0,0.0,0.0,0.0,0.0,0.0,0.0,0.0,0.0,0.0,0.0,0.0,0.0,0.0,0.0,0.0,0.0,0.0,-1.7387,-1.845,-1.9279,-1.9512,-1.9486,-1.9332,-1.9045,-1.8584,-1.7929,-1.7079,0.0,0.0,0.0,0.0,0.0,0.0,0.0,0.0,0.0,0.0,0.0,0.0,0.0,0.0,0.0,0.0,0.0,0.0,0.0,0.0,0.0,0.0,0.0,0.0,0.0,0.0,0.0,0.0,0.0,0.0,0.0,0.0,0.0,0.0,0.0,0.0,0.0,0.0,0.0,0.0,0.0,0.0,0.0,0.0,0.0,0.0,0.0,0.0,0.0,0.0,0.0,0.0,0.0,0.0,0.0,0.0,0.0,0.0,0.0,0.0,0.0,0.0,0.0,0.0,0.0,0.0,0.0,0.0,0.0,0.0,0.0,0.0,0.0,0.0,0.0,0.0,0.0,0.0,0.0,0.0,0.0,0.0,0.0,0.0,0.0,0.0,0.0,0.0,0.0,0.0,0.0,0.0,0.0,0.0,0.0,0.0,0.0,0.0,0.0,0.0,0.0,0.0,-1.7085,-1.8123,-1.8751,-1.8517,-1.8724,-1.8764,-1.8477,-1.8149,-1.7622,-1.68,0.0,0.0,0.0,0.0,0.0,0.0,0.0,0.0,0.0,0.0,0.0,0.0,0.0,0.0,0.0,0.0,0.0,0.0,0.0,0.0,0.0,0.0,0.0,0.0,0.0,0.0,0.0,0.0,0.0,0.0,0.0,0.0,0.0,0.0,0.0,0.0,0.0,0.0,0.0,0.0,0.0,0.0,0.0,0.0,0.0,0.0,0.0,0.0,0.0,0.0,0.0,0.0,0.0,0.0,0.0,0.0,0.0,0.0,0.0,0.0,-0.2613,0.0,0.0,0.0,0.0,0.0,0.0,0.0,0.0,0.0,0.0,0.0,0.0,0.0,0.0,0.0,0.0,0.0,0.0,0.0,0.0,0.0,0.0,0.0,0.0,0.0,0.0,0.0,0.0,0.0,0.0,0.0,0.0,0.0,0.0,0.0,0.0,0.0,0.0,0.0,0.0,0.0,-1.6727,-1.7642,-1.8242,-1.847,-1.8544,-1.8464,-1.8109,-1.8029,-1.7762,-1.7146,-1.6496,0.0,0.0,0.0,0.0,0.0,0.0,0.0,0.0,0.0,0.0,0.0,0.0,0.0,0.0,0.0,0.0,0.0,0.0,0.0,0.0,0.0,0.0,0.0,0.0,0.0,0.0,0.0,0.0,0.0,0.0,0.0,0.0,0.0,0.0,0.0,0.0,0.0,0.0,0.0,0.0,0.0,0.0,0.0,0.0,0.0,0.0,0.0,0.0,0.0,0.0,0.0,0.0,0.0,0.0,0.0,0.0,0.0,0.0,0.0,0.0,-0.3551,0.0,0.0,0.0,0.0,0.0,0.0,0.0,0.0,0.0,0.0,0.0,0.0,0.0,0.0,0.0,0.0,0.0,0.0,0.0,0.0,0.0,0.0,0.0,0.0,0.0,0.0,0.0,0.0,0.0,0.0,0.0,0.0,0.0,0.0,0.0,0.0,0.0,0.0,0.0,0.0,-1.646,-1.7408,-1.7995,-1.8056,-1.819,-1.815,-1.7849,-1.7822,-1.7629,-1.7233,-1.6466,0.0,0.0,0.0,0.0,0.0,0.0,0.0,0.0,0.0,0.0,0.0,0.0,0.0,0.0,0.0,0.0,0.0,0.0,0.0,0.0,0.0,0.0,0.0,0.0,0.0,0.0,0.0,0.0,0.0,0.0,0.0,0.0,0.0,0.0,0.0,0.0,0.0,0.0,0.0,0.0,0.0,0.0,0.0,0.0,0.0,0.0,0.0,0.0,0.0,0.0,0.0,0.0,0.0,0.0,0.0,0.0,0.0,0.0,-0.0064,-0.1285,-0.2709,-0.4233,-0.5745,0.0,0.0,0.0,0.0,0.0,0.0,0.0,0.0,0.0,0.0,0.0,0.0,0.0,0.0,0.0,0.0,0.0,0.0,0.0,0.0,0.0,0.0,0.0,0.0,-0.943,-1.0023,0.0,0.0,0.0,0.0,0.0,0.0,0.0,0.0,0.0,0.0,0.0,0.0,-1.6462,-1.7328,-1.7869,-1.7609,-1.7809,-1.7862,-1.7602,-1.7582,-1.7534,-1.7293,-1.6493,-1.5905,0.0,0.0,0.0,0.0,0.0,0.0,0.0,0.0,0.0,0.0,0.0,0.0,0.0,0.0,0.0,0.0,0.0,0.0,0.0,0.0,0.0,0.0,0.0,0.0,0.0,0.0,0.0,0.0,0.0,0.0,0.0,0.0,0.8442,0.7383,0.0,0.0,0.0,0.0,0.0,0.0,0.0,0.0,0.0,0.0,0.0,0.0,0.0,0.0,0.0,0.0,0.0,0.0,0.0,0.0,0.0,0.0,0.0,0.0,-0.0197,0.0,-0.3997,-0.4661,0.0,0.0,0.0,0.0,0.0,0.0,0.0,0.0,0.0,0.0,0.0,0.0,0.0,0.0,0.0,0.0,0.0,0.0,0.0,0.0,0.0,0.0,-0.8889,-0.8927,-0.8992,-0.914,0.0,-1.0754,-1.1882,-1.2678,-1.3431,0.0,0.0,0.0,0.0,0.0,0.0,0.0,-1.7018,-1.744,-1.7629,-1.7589,-1.7615,-1.7622,-1.7589,-1.7582,-1.7562,-1.7528,-1.7233,-1.6777,-1.6179,-1.5478,0.0,0.0,0.0,0.0,0.0,0.0,0.0,0.0,0.0,0.0,0.0,0.0,0.0,0.0,0.0,0.0,0.0,0.0,0.0,0.0,0.0,0.0,0.0,0.0,0.0,0.0,0.0,0.0,0.0,0.9163,0.9023,0.8455,0.7408,0.6162,0.0,0.0,0.0,0.0,0.0,0.0,0.0,0.0,0.0,0.0,0.0,0.0,0.0,0.0,0.0,0.0,0.0,0.0,0.0,0.0,0.0,0.0,0.0,-0.1205,-0.3297,-0.4366,-0.5955,-0.7817,0.0,0.0,0.0,0.0,-0.9188,-0.9188,-0.9188,-0.9188,0.0,-0.8939,0.0,0.0,0.0,0.0,0.0,0.0,0.0,0.0,0.0,0.0,-0.8902,-0.9042,-0.9171,-0.9395,-0.9678,-1.039,-1.1318,0.0,-1.3773,-1.4826,-1.5477,0.0,0.0,0.0,0.0,-1.6911,-1.7166,-1.7454,-1.7582,-1.7582,-1.7582,-1.7582,-1.7582,-1.7582,-1.7582,-1.7582,-1.736,-1.7085,-1.6831,-1.5885,-1.5137,0.0,0.0,0.0,0.0,0.0,0.0,0.0,0.0,0.0,0.0,0.0,0.0,0.0,0.0,0.0,0.0,0.0,0.0,0.0,0.0,0.0,0.0,0.0,0.0,0.0,0.0,0.0,0.0,0.9434,0.9377,0.9273,0.8129,0.7139,0.0,0.0,0.0,0.0,0.0,0.0,0.1731,0.0627,0.0,0.0,0.0,0.0,0.0,0.0,0.0,0.0,0.0,0.0,0.0,0.0,0.0,0.0,0.0,-0.0901,-0.2407,-0.4242,-0.5952,-0.7485,-0.9057,-0.9629,-0.9486,-0.9408,-0.9381,-0.9381,-0.9381,-0.9381,-0.9351,-0.9171,0.0,-0.9052,-0.8747,0.0,0.0,0.0,0.0,-0.8885,-0.8885,-0.8885,-0.8964,-0.9072,-0.9321,-0.9602,-0.9778,-1.0391,-1.1317,0.0,-1.4023,-1.5032,-1.5825,0.0,0.0,0.0,-1.6774,-1.7226,-1.73,-1.7501,-1.7582,-1.7582,-1.7582,-1.7582,-1.7582,-1.7582,-1.7582,-1.7582,-1.736,-1.7166,-1.7092,-1.6126,-1.5451,-1.5129,0.0,0.0,0.0,0.0,0.0,0.0,0.0,0.0,0.0,0.0,0.0,0.0,0.0,0.0,0.0,0.0,0.0,0.0,0.0,0.0,0.0,0.0,0.0,0.0,0.0,0.0,0.0,0.0,0.0,0.9227,0.8921,0.0,0.0,0.0,0.0,0.2612,0.2308,0.1663,0.0214,0.0072,0.0,0.0,0.0,0.0,0.0,0.0,0.0,0.0,0.0,0.0,0.0,0.0,0.0,0.0,0.0,-0.0425,-0.1398,-0.4197,-0.6293,-0.7891,-0.9381,-0.9872,-0.9764,-0.9486,-0.9381,-0.9381,-0.9381,-0.9381,-0.9401,-0.9534,-0.9574,-0.9517,-0.9268,-0.918,0.0,0.0,-0.8885,-0.8885,-0.8885,-0.8885,-0.8885,-0.8892,-0.9168,-0.9389,-0.9445,-1.0751,-1.2363,0.0,-1.4099,-1.4837,-1.7101,0.0,-1.7246,-1.7455,-1.7347,-1.73,-1.7522,-1.7569,-1.7582,-1.7582,-1.7582,-1.7582,-1.7582,-1.7582,-1.7582,-1.7582,-1.736,-1.7072,-1.674,-1.6406,-1.5959,-1.5384,-1.477,0.0,0.0,0.0,0.0,0.0,0.0,0.0,0.0,0.0,0.0,0.0,0.0,0.0,0.0,0.0,0.0,0.0,0.0,0.0,0.0,0.0,0.0,0.0,0.0,0.0,0.0,0.0,0.0,0.9347,0.9218,0.0,0.8164,0.8238,0.7492,0.5374,0.4367,0.3138,0.1574,0.0528,0.0,0.0,0.0,0.0,0.0,0.0,0.0,0.0,0.0,0.0,0.0,0.0,0.0,0.0,0.0,-0.0426,-0.1261,-0.3253,-0.5229,-0.7101,-0.9435,-1.0246,-1.009,-0.9886,-0.9747,-0.9663,-0.9663,-0.9663,-0.9656,-0.9622,-0.9544,-0.9442,-0.9334,-0.93,-0.9289,-0.9239,-0.9225,-0.9201,-0.9103,-0.9076,-0.9052,-0.8905,-0.9158,-0.9434,-0.9596,-1.0308,-1.1551,-1.3701,-1.4728,-1.5695,-1.712,-1.7427,-1.7454,-1.7367,-1.7427,-1.7468,-1.7569,-1.7582,-1.7582,-1.7582,-1.7582,-1.7582,-1.7582,-1.7467,-1.7353,-1.7353,-1.7027,-1.6814,-1.6707,-1.6426,-1.6047,-1.5404,-1.4816,-1.3895,0.0,0.0,0.0,0.0,0.0,0.0,0.0,0.0,0.0,0.0,0.0,0.0,0.0,0.0,0.0,0.0,0.0,0.0,0.0,0.0,0.0,0.0,0.0,0.0,0.0,0.9384,0.93,0.942,0.9446,0.9351,0.9152,0.931,0.8778,0.7111,0.5601,0.4014,0.2476,0.0853,0.0,0.0,0.0,0.0,0.0,0.0,0.0,0.0,0.0,0.0,0.0,0.0,0.0,0.0,0.0,-0.0428,-0.1192,-0.2715,-0.4599,-0.6743,-0.9013,-1.013,-1.0334,-1.0181,-0.9998,-0.9822,-0.9822,-0.9822,-0.9805,-0.971,-0.9612,-0.952,-0.9473,-0.9459,-0.9449,-0.9395,-0.9381,-0.9347,-0.9251,-0.921,-0.9173,-0.8974,-0.9213,-0.9596,-0.9761,-1.0147,-1.1173,-1.3599,-1.4728,-1.5748,-1.7114,-1.7455,-1.7515,-1.738,-1.7514,-1.7582,-1.7582,-1.7582,-1.7582,-1.7582,-1.7582,-1.7582,-1.7582,-1.7367,-1.7199,-1.7199,-1.678,-1.656,-1.656,-1.6186,-1.5792,-1.5404,-1.4723,-1.4,-1.3234,0.0,0.0,0.0,0.0,0.0,0.0,0.0,0.0,0.0,0.0,0.0,0.0,0.0,0.0,0.0,0.0,0.0,0.0,0.0,0.0,0.0,0.0,0.0,0.8955,0.9361,0.9513,0.9402,0.9607,0.9631,0.9514,0.9612,0.9041,0.7453,0.5768,0.41,0.2584,0.0942,0.0,0.0,0.0,0.0,0.0,0.0,0.0,0.0,0.0,0.0,0.0,0.0,0.0,0.0,0.0,-0.0431,-0.1191,-0.2554,-0.4522,-0.677,-0.8204,-0.9476,-1.0473,-1.0334,-1.0086,-0.9822,-0.9822,-0.9822,-0.9822,-0.9822,-0.9822,-0.9795,-0.9656,-0.9615,-0.9585,-0.9439,-0.9395,-0.9357,-0.9258,-0.9217,-0.918,-0.8974,-0.9379,-0.9816,-0.9816,-1.0257,-1.1337,-1.3652,-1.4078,-1.4835,-1.7206,-1.7582,-1.7582,-1.7582,-1.7582,0.0,-1.7582,-1.7582,-1.7582,-1.7582,-1.7582,-1.7582,-1.7582,-1.736,-1.7186,-1.7186,-1.6636,-1.6259,-1.6259,-1.5712,-1.5398,-1.5384,-1.4529,-1.4428,-1.5065,0.0,0.0,0.0,0.0,0.0,0.0,0.0,0.0,0.0,0.0,0.0,0.0,0.0,0.0,0.0,0.0,0.0,0.0,0.0,0.0,0.0,0.8854,0.8895,0.9146,0.9242,0.9361,0.959,0.9736,0.9813,0.987,0.9902,0.9238,0.7554,0.5921,0.4215,0.2585,0.0942,0.0,0.0,0.0,0.0,0.0,0.0,0.0,0.0,0.0,0.0,0.0,0.0,0.0,0.0,0.0,-0.0288,-0.0701,-0.1397,-0.2821,-0.4859,-0.7615,-0.9396,-1.0473,-1.0334,-1.0086,-0.9822,-0.9822,-0.9822,-0.9822,-0.9822,-0.9822,-0.9815,-0.9774,-0.9764,-0.9754,-0.971,-0.97,-0.9642,-0.9384,-0.9317,-0.9256,-0.8942,-0.9213,-0.9544,-0.9761,-1.0143,-1.1122,-1.3599,-1.4078,-1.4835,-1.7206,-1.7582,-1.7582,-1.7582,-1.7582,0.0,-1.7582,-1.7582,-1.7582,-1.7582,-1.7582,-1.7582,-1.7582,-1.7121,-1.6827,-1.6827,-1.6273,-1.5952,-1.5952,-1.5798,-1.5511,-1.5135,-1.4429,-1.406,0.0,0.0,0.0,0.0,0.0,0.0,0.0,0.0,0.0,0.0,0.0,0.0,0.0,0.0,0.0,0.0,0.0,0.0,0.0,0.0,0.0,0.0,0.8941,0.9052,0.9243,0.9347,0.9454,0.9709,0.9843,0.9941,1.0014,1.0019,0.9628,0.8611,0.6342,0.4544,0.3604,0.1255,0.0,0.0,0.0,0.0,0.0,0.0,0.0,0.0,0.0,0.0,0.0,0.0,0.0,0.0,0.0,-0.0216,-0.0491,-0.0771,-0.2,0.0,0.0,0.0,0.0,0.0,-0.9975,-0.9822,-0.9822,-0.9822,-0.9822,-0.9822,-0.9822,-0.9822,-0.9822,-0.9822,-0.9822,-0.9822,-0.9778,-0.968,-0.9442,-0.9334,-0.9225,-0.8994,-0.9158,-0.9434,-0.9596,-0.9981,-1.0903,-1.2842,-1.3706,0.0,-1.6558,-1.7259,-1.7582,-1.7582,-1.7582,-1.7582,-1.7582,-1.7582,-1.7582,-1.7582,-1.7582,-1.7582,-1.7582,-1.7048,0.0,0.0,0.0,-1.5724,-1.5651,-1.5651,0.0,0.0,0.0,0.0,0.0,0.0,0.0,0.0,-1.8339,-1.9026,0.0,0.0,0.0,0.0,0.0,0.0,0.0,0.0,0.0,0.0,0.0,0.0,0.0,0.0,0.0,0.0,0.9054,0.9188,0.9343,0.9552,0.9726,0.9826,0.9946,1.0019,1.0019,1.0019,1.0019,1.0019,0.6889,0.5014,0.5014,0.1804,0.0,0.0,0.0,0.0,0.0,0.0,0.0,0.0,0.0,0.0,0.0,0.0,0.0,0.0,0.0,-0.0144,-0.0421,-0.0491,-0.179,-0.3943,-0.5872,-0.7215,-0.8237,-0.9367,-0.9822,-0.9822,-0.9822,0.0,0.0,-0.9822,-0.9822,-0.9822,-0.9822,-0.9822,-0.9819,-0.9802,-0.9707,-0.9571,-0.9401,-0.9313,-0.9173,-0.8974,-0.9103,-0.9379,-0.9379,-0.982,-1.0582,-1.1764,-1.3112,-1.4454,-1.5695,-1.6829,-1.7582,-1.7582,-1.7582,-1.7582,-1.7582,-1.7582,-1.7582,-1.7582,0.0,0.0,-1.7582,-1.7048,-1.6707,-1.6707,-1.6152,-1.5712,-1.5451,-1.5444,-1.5311,-1.5062,-1.5297,-1.5879,-1.6737,-1.6979,-1.7621,-1.8504,-1.8284,-1.8955,0.0,0.0,0.0,0.0,0.0,0.0,0.0,0.0,0.0,0.0,0.0,0.0,0.0,0.0,0.0,0.93,0.9165,0.9275,0.9677,0.9775,0.9813,0.9835,0.9946,1.0019,1.0019,1.0019,1.0019,1.0019,0.6889,0.5014,0.5014,0.1804,0.0,0.0,0.0,0.0,0.0,0.0,0.0,0.0,0.0,0.0,0.0,0.0,0.0,0.0,0.0,-0.0072,-0.014,-0.0421,-0.1702,-0.3827,-0.667,-0.788,-0.8244,-0.9394,-0.9822,-0.9822,-0.9822,-0.9822,-0.9822,-0.9822,-0.9822,-0.9822,-0.9822,-0.9822,0.0,-0.9683,-0.9632,-0.9547,-0.9326,-0.9231,-0.9173,-0.8974,-0.8937,-0.9051,-0.9323,-0.9489,-1.0088,-1.1655,-1.295,-1.4239,-1.5642,-1.6829,-1.7582,-1.7582,-1.7582,-1.7582,-1.7582,-1.7582,-1.7582,-1.7582,-1.7582,-1.7582,-1.7582,-1.7048,-1.6707,-1.6707,-1.6152,-1.5758,-1.5698,-1.5698,-1.5611,-1.5317,-1.5598,-1.5718,-1.5713,-1.5967,-1.6755,-1.8,-1.9576,-2.0646,0.0,0.0,0.0,0.0,0.0,0.0,0.0,0.0,0.0,0.0,0.0,0.9183,0.9119,0.0,0.9379,0.9548,0.9481,0.9568,0.9805,0.9892,0.993,0.993,0.9981,1.0019,1.0019,1.0019,1.0019,1.0019,0.6889,0.5014,0.5014,0.1804,0.0,0.0,0.0,0.0,0.0,0.0,0.0,0.0,0.0,0.0,0.0,0.0,0.0,0.0,0.0,0.0,-0.007,-0.0553,-0.134,-0.251,-0.5078,-0.6843,-0.8128,-0.9355,-0.9822,-0.9822,-0.9822,-0.9822,-0.9822,-0.9822,-0.9822,-0.9822,-0.9822,-0.9771,-0.97,-0.9629,-0.95,-0.9347,-0.9251,-0.91,-0.9028,-0.8902,-0.8885,-0.8937,-0.9103,-0.9268,-0.9706,-1.068,-1.1923,-1.3112,-1.3976,-1.5589,-1.6935,-1.7529,-1.7582,-1.7582,-1.7582,-1.7582,-1.7582,-1.7582,-1.7582,-1.7522,-1.7427,-1.6827,-1.6426,-1.6273,-1.5992,-1.5784,-1.5784,-1.5784,-1.5758,-1.5618,-1.5711,-1.5711,-1.5611,-1.5711,-1.6218,-1.7099,-1.9407,-2.0962,0.0,0.0,0.0,0.0,0.0,0.0,0.0,0.8647,0.8836,0.8883,0.9204,0.947,0.9399,0.9575,0.9747,0.9744,0.9777,0.9845,0.987,0.9957,1.0019,1.0019,1.0019,1.0019,1.0019,1.0019,1.0019,1.0019,0.6889,0.5014,0.5014,0.1804,0.0,0.0,0.0,0.0,0.0,0.0,0.0,0.0,0.0,0.0,0.0,0.0,0.0,0.0,0.0,0.0,-0.007,-0.068,-0.0993,-0.1225,-0.3154,-0.5365,-0.7673,-0.8961,-0.9576,-0.9822,-0.9822,-0.9822,-0.9822,-0.9822,-0.9822,-0.9822,-0.9822,-0.9724,-0.9602,-0.9574,-0.9364,-0.9204,-0.9176,-0.9025,-0.8885,-0.8885,-0.8885,-0.8885,-0.8885,-0.9103,-0.9379,-0.9761,-1.0954,-1.2032,-1.2358,-1.4352,-1.6234,-1.7153,-1.7477,-1.7582,-1.7582,-1.7582,-1.7582,-1.7582,-1.7582,-1.7494,-1.7146,-1.663,-1.6146,-1.5798,-1.5784,-1.5784,-1.5784,-1.5784,-1.5784,-1.5784,-1.5784,-1.5784,-1.5784,-1.5784,-1.5979,-1.6377,-1.8738,-2.0638,0.8169,0.8186,0.7965,0.7691,0.7729,0.7906,0.0,0.8344,0.8503,0.8781,0.9115,0.9305,0.933,0.9538,0.9746,0.9799,0.9829,0.9875,0.9984,1.0011,1.0019,1.0019,1.0019,1.0019,1.0019,1.0019,1.0019,1.0019,0.6889,0.5014,0.5014,0.1804,0.0,0.0,0.0,0.0,0.0,0.0,0.0,0.0,0.0,0.0,0.0,0.0,0.0,0.0,0.0,0.0,0.0,-0.0407,-0.0728,-0.116,-0.2896,-0.4608,-0.6263,-0.7612,-0.8839,-0.9822,-0.9822,-0.9822,-0.9822,-0.9822,-0.9822,-0.9822,-0.9822,-0.9724,-0.9581,-0.9445,-0.9344,-0.918,-0.8994,-0.8895,-0.8885,-0.8885,-0.8885,-0.8885,-0.8885,-0.8937,-0.9103,-0.9706,-1.0735,-1.176,-1.2304,-1.4352,-1.5914,-1.6074,-1.6935,-1.7582,-1.7582,-1.7582,-1.7582,-1.7582,-1.7582,-1.7355,-1.68,-1.646,-1.6146,-1.5798,-1.5784,-1.5784,-1.5784,-1.5784,-1.5784,-1.5784,-1.5784,-1.5784,-1.5784,-1.5784,-1.5979,-1.637,-1.8487,-2.0007,0.7937,0.7918,0.7777,0.7954,0.8081,0.8193,0.8481,0.8696,0.8864,0.8962,0.9266,0.9516,0.9516,0.9712,0.9889,0.9935,0.9943,0.9962,1.0014,1.0019,0.9992,0.9921,0.9976,1.0019,1.0019,1.0019,1.0019,1.0019,0.6889,0.5014,0.5014,0.1804,0.0,0.0,0.0,0.0,0.0,0.0,0.0,0.0,0.0,0.0,0.0,0.0,0.0,0.0,0.0,0.0,0.0,-0.0339,-0.0728,-0.116,-0.2832,-0.4482,-0.608,-0.7429,-0.8717,-0.9822,-0.9822,-0.9822,-0.9822,-0.9822,-0.9822,-0.9822,-0.9822,-0.9659,-0.9462,-0.9398,-0.9211,-0.9015,-0.8898,-0.8885,-0.8885,-0.8885,-0.8885,-0.8885,-0.8885,-0.8885,-0.9103,-0.9706,-1.0735,-1.1705,-1.2304,-1.4352,-1.5914,-1.5914,-1.6882,-1.7582,-1.7582,-1.7582,-1.7515,-1.74,-1.7174,-1.6901,-1.6486,-1.6186,-1.5965,-1.5791,-1.5784,-1.5784,-1.5784,-1.5784,-1.5784,-1.5784,-1.5784,-1.5784,-1.5784,-1.5784,-1.6171,-1.692,-1.8595,-1.9939,0.772,0.7722,0.7771,0.8209,0.8391,0.8527,0.8766,0.8984,0.9152,0.9217,0.9413,0.959,0.9658,0.9807,0.9932,0.9965,0.9998,1.0019,1.0019,0.9989,0.9949,0.9894,0.9935,0.9984,1.0017,1.0019,1.0019,1.0019,0.7357,0.5483,0.5014,0.2274,0.0471,0.0,0.0,0.0,0.0,0.0,0.0,0.0,0.0,0.0,0.0,0.0,0.0,0.0,0.0,0.0,0.0,-0.0269,-0.0594,-0.116,-0.2756,-0.4404,-0.608,-0.7429,-0.8717,-0.9822,-0.9822,-0.9822,-0.9822,-0.9822,-0.9822,-0.9822,-0.9822,-0.9615,-0.9381,-0.9381,-0.9167,-0.8885,-0.8885,-0.8885,-0.8885,-0.8885,-0.8885,-0.8885,-0.8885,-0.8885,-0.9103,-0.9706,-1.0464,-1.1328,-1.2254,-1.4083,-1.5535,-1.5861,-1.6882,-1.7582,-1.7582,-1.7515,-1.74,-1.7105,-1.676,-1.65,-1.6342,-1.5999,-1.5784,-1.5784,-1.5784,-1.5784,-1.5784,-1.5784,-1.5784,-1.5784,-1.5784,-1.5784,-1.5784,-1.5784,-1.6157,-1.6911,-1.8488,-1.9629,0.7589,0.7777,0.8106,0.8122,0.8326,0.8647,0.882,0.8973,0.9198,0.943,0.9389,0.9389,0.9625,0.9674,0.9715,0.9824,0.9943,1.0019,1.0019,0.9916,0.9886,1.0,0.9913,0.9889,1.0008,1.0019,1.0019,1.0019,0.8375,0.6733,0.5092,0.3369,0.1647,0.0079,0.0,0.0,0.0,0.0,0.0,0.0,0.0,0.0,0.0,0.0,0.0,0.0,0.0,0.0,0.0,0.0,-0.0392,-0.1159,-0.2473,-0.4179,-0.608,-0.7429,-0.8717,-0.9822,-0.9822,-0.9822,-0.9822,-0.9822,-0.9822,-0.9822,-0.9822,-0.9615,-0.9381,-0.9381,-0.9167,-0.8885,-0.8885,-0.8885,-0.8885,-0.8885,-0.8885,-0.8885,-0.8885,-0.8885,-0.9103,-0.9706,-0.9816,-1.0414,-1.2091,-1.3383,-1.4561,-1.5695,-1.6882,-1.7582,-1.7582,-1.7387,-1.7099,-1.6747,-1.646,-1.6335,-1.6321,-1.5999,-1.5784,-1.5784,-1.5784,-1.5784,-1.5784,-1.5784,-1.5784,-1.5784,-1.5784,-1.5784,-1.5784,-1.5784,-1.5825,-1.5872,-1.7878,-1.885,0.7929,0.8024,0.8193,0.8517,0.8619,0.8772,0.9019,0.9163,0.9226,0.9147,0.9223,0.928,0.9207,0.9389,0.9587,0.9707,0.9824,0.9927,1.0008,0.9984,0.9943,0.9902,0.9935,0.9943,0.9902,0.9973,1.0019,1.0019,0.7437,0.5561,0.5014,0.2352,0.0549,0.0,0.0,0.0,0.0,0.0,0.0,0.0,0.0,0.0,0.0,0.0,0.0,0.0,0.0,0.0,0.0,0.0,-0.0395,-0.1224,-0.3389,-0.4962,-0.6141,-0.8346,-0.9451,-0.9822,-0.9822,-0.9822,-0.9822,-0.9822,-0.9822,-0.9822,-0.9822,-0.9615,-0.9381,-0.9381,-0.9167,-0.8885,-0.8885,-0.8885,-0.8885,-0.8885,-0.8885,-0.8885,-0.8885,-0.8885,-0.9047,-0.9434,-1.03,-1.1164,-1.1982,-1.3868,-1.5695,-1.6829,-1.7364,-1.7515,-1.7373,-1.7266,-1.7012,-1.6473,-1.6333,-1.6192,-1.5999,-1.5838,-1.5784,-1.5784,-1.5784,-1.5784,-1.5784,-1.5784,-1.5784,-1.5784,-1.5784,-1.5784,-1.5784,-1.5784,-1.6157,-1.681,-1.7505,-1.8519,0.8089,0.8209,0.8269,0.8617,0.8739,0.881,0.897,0.906,0.9057,0.8861,0.891,0.8967,0.8899,0.9073,0.9313,0.9565,0.9701,0.9835,0.9998,0.9981,0.9941,0.9905,0.9932,0.9941,0.9905,0.9935,0.9954,0.9954,0.7419,0.5629,0.4982,0.2347,0.0628,0.0,0.0,0.0,0.0,0.0,0.0,0.0,0.0,0.0,0.0,0.0,0.0,0.0,0.0,0.0,0.0,0.0,-0.0394,-0.1223,-0.3369,-0.4937,-0.6141,-0.8346,-0.939,-0.9822,-0.9822,-0.9822,-0.9822,-0.9822,-0.9822,-0.9822,-0.9822,-0.9615,-0.9381,-0.9381,-0.9167,-0.8885,-0.8885,-0.8885,-0.8885,-0.8885,-0.8885,-0.8885,-0.8885,-0.8885,-0.8992,-0.9323,-1.019,-1.1114,-1.1873,-1.4191,-1.6127,-1.6882,-1.7312,-1.7442,-1.7092,-1.7038,-1.6817,-1.6179,-1.6112,-1.6039,-1.5798,-1.5784,-1.5784,-1.5784,-1.5784,-1.5784,-1.5784,-1.5784,-1.5784,-1.5784,-1.5784,-1.5784,-1.5784,-1.5784,-1.6109,-1.6763,-1.7138,-1.7971,0.8178,0.8334,0.8451,0.856,0.8679,0.8769,0.8761,0.8766,0.8734,0.8598,0.8492,0.8489,0.8696,0.8758,0.8929,0.9386,0.9579,0.975,0.9979,0.9916,0.9889,1.0006,0.9916,0.9892,1.0008,0.9913,0.9845,0.9837,0.8313,0.6617,0.4929,0.3269,0.1647,0.0079,0.0,0.0,0.0,0.0,0.0,0.0,0.0,0.0,0.0,0.0,0.0,0.0,0.0,0.0,0.0,0.0,-0.0387,-0.1093,-0.2495,-0.4185,-0.6018,-0.7429,-0.8717,-0.9822,-0.9822,-0.9822,-0.9822,-0.9822,-0.9822,-0.9822,-0.9822,-0.9615,-0.9381,-0.9381,-0.9167,-0.8885,-0.8885,-0.8885,-0.8885,-0.8885,-0.8885,-0.8885,-0.8885,-0.8885,-0.8992,-0.9323,-0.9596,-1.0249,-1.1764,-1.4083,-1.5695,-1.5808,-1.6764,-1.7296,-1.678,-1.6707,-1.648,-1.5844,-1.5784,-1.5784,-1.5784,-1.5784,-1.5784,-1.5784,-1.5784,-1.5784,-1.5784,-1.5784,-1.5784,-1.5784,-1.5784,-1.5784,-1.5784,-1.5784,-1.5784,-1.5825,-1.677,-1.7232,0.8345,0.8456,0.8552,0.8581,0.8679,0.8747,0.8655,0.8704,0.8685,0.8386,0.8443,0.8481,0.8338,0.8603,0.8946,0.9068,0.9416,0.972,0.9864,0.9935,0.9984,1.0017,0.9992,0.9987,1.0017,0.9992,0.9935,0.9845,0.7091,0.5345,0.4988,0.2192,0.0471,0.0,0.0,0.0,0.0,0.0,0.0,0.0,0.0,0.0,0.0,0.0,0.0,0.0,0.0,0.0,0.0,0.0,-0.0261,-0.0773,-0.2336,-0.3977,-0.5716,-0.7307,-0.8717,-0.9822,-0.9822,-0.9822,-0.9822,-0.9822,-0.9822,-0.9822,-0.9822,-0.9615,-0.9381,-0.9381,-0.9167,-0.8885,-0.8885,-0.8885,-0.8885,-0.8885,-0.8885,-0.8885,-0.8885,-0.8885,-0.8937,-0.8995,-0.9268,-1.0033,-1.171,-1.2575,-1.3329,-1.4406,-1.537,-1.6124,-1.6647,-1.6707,-1.648,-1.5844,-1.5784,-1.5784,-1.5784,-1.5784,-1.5784,-1.5784,-1.5784,-1.5784,-1.5784,-1.5784,-1.5784,-1.5784,-1.5784,-1.5784,-1.5784,-1.5784,-1.5784,-1.5832,-1.6062,-1.6581,0.8568,0.8619,0.8655,0.86,0.86,0.8584,0.8459,0.8446,0.8383,0.8127,0.8182,0.8228,0.8144,0.8418,0.8701,0.8857,0.9266,0.9587,0.9807,0.9897,0.996,1.0014,1.0019,1.0019,1.0019,0.997,0.9624,0.8833,0.6354,0.4889,0.4895,0.1799,0.0,0.0,0.0,0.0,0.0,0.0,0.0,0.0,0.0,0.0,0.0,0.0,0.0,0.0,0.0,0.0,0.0,0.0,-0.0195,-0.058,-0.1638,-0.3041,-0.4737,-0.6388,-0.7856,-0.9022,-0.9636,-0.9822,-0.9822,-0.9822,-0.9822,-0.9822,-0.9822,-0.9615,-0.9381,-0.9381,-0.9167,-0.8885,-0.8885,-0.8885,-0.8885,-0.8885,-0.8885,-0.8885,-0.8885,-0.8885,-0.8937,-0.9103,-0.9268,-0.9761,-1.0844,-1.1551,-1.225,-1.3058,-1.4557,-1.575,-1.61,-1.6367,-1.6339,-1.5831,-1.5784,-1.5784,-1.5784,-1.5784,-1.5784,-1.5784,-1.5784,-1.5784,-1.5784,-1.5784,-1.5784,-1.5784,-1.5784,-1.5784,-1.5784,-1.5784,-1.5784,-1.5784,-1.5784,-1.6109,0.8202,0.8174,0.8151,0.805,0.8069,0.8081,0.7961,0.8025,0.8081,0.7958,0.7883,0.7985,0.8075,0.8255,0.8541,0.8785,0.9128,0.9419,0.9745,0.9818,0.9875,0.9984,1.0011,1.0019,1.0019,0.9924,0.9208,0.7587,0.5952,0.4835,0.4475,0.1638,0.0,0.0,0.0,0.0,0.0,0.0,0.0,0.0,0.0,0.0,0.0,0.0,0.0,0.0,0.0,0.0,0.0,0.0,-0.0194,-0.0451,-0.0812,-0.1912,-0.3571,-0.5224,-0.6693,-0.8102,-0.9329,-0.9822,-0.9822,-0.9822,-0.9822,-0.9822,-0.9822,-0.9615,-0.9381,-0.9381,-0.9167,-0.8885,-0.8885,-0.8885,-0.8885,-0.8885,-0.8885,-0.8885,-0.8885,-0.8885,-0.8992,-0.9268,-0.9323,-0.9434,-0.9706,-1.0789,-1.171,-1.1982,-1.4057,-1.5511,-1.5389,-1.5953,-1.6219,-1.5919,-1.5852,-1.5784,-1.5784,-1.5784,-1.5784,-1.5784,-1.5784,-1.5784,-1.5784,-1.5784,-1.5784,-1.5784,-1.5784,-1.5784,-1.5784,-1.5784,-1.5784,-1.5784,-1.5784,-1.5784,0.5088,0.5085,0.5082,0.507,0.5858,0.6662,0.6501,0.7309,0.8081,0.7958,0.8012,0.8059,0.798,0.8261,0.8579,0.8641,0.9019,0.9362,0.9525,0.9715,0.9845,0.9867,0.996,1.0019,1.0019,1.0,0.9294,0.7593,0.5952,0.4383,0.2968,0.1019,0.0,0.0,0.0,0.0,0.0,0.0,0.0,0.0,0.0,0.0,0.0,0.0,0.0,0.0,0.0,0.0,0.0,0.0,-0.0065,-0.0129,-0.0437,-0.1603,-0.3263,-0.4858,-0.6512,-0.8102,-0.9329,-0.9822,-0.9822,-0.9822,-0.9822,-0.9822,-0.9822,-0.9615,-0.9381,-0.9381,-0.9167,-0.8885,-0.8885,-0.8885,-0.8885,-0.8885,-0.8885,-0.8885,-0.8885,-0.8885,-0.894,-0.8992,-0.8992,-0.9103,-0.9434,-0.9706,-1.0359,-1.1764,-1.3011,-1.4146,-1.5255,-1.6119,-1.652,-1.6226,-1.5979,-1.5784,-1.5784,-1.5784,-1.5784,-1.5784,-1.5784,-1.5784,-1.5784,-1.5784,-1.5784,-1.5784,-1.5784,-1.5784,-1.5784,-1.5784,-1.5784,-1.5784,-1.5784,-1.5784,0.4451,0.4381,0.4374,0.4343,0.4701,0.517,0.5068,0.6067,0.695,0.6898,0.7485,0.8002,0.7883,0.8214,0.85,0.85,0.8848,0.9185,0.9367,0.9544,0.9699,0.9824,0.9946,0.9628,0.8766,0.8689,0.7669,0.5088,0.4128,0.3339,0.2563,0.0928,0.0,0.0,0.0,0.0,0.0,0.0,0.0,0.0,0.0,0.0,0.0,0.0,0.0,0.0,0.0,0.0,0.0,0.0,0.0,-0.0064,-0.0374,-0.0987,-0.1911,-0.3693,-0.5287,-0.6818,-0.8285,-0.9268,-0.9822,-0.9822,-0.9822,-0.9822,-0.9822,-0.9615,-0.9381,-0.9381,-0.9167,-0.8885,-0.8885,-0.8885,-0.8885,-0.8885,-0.8885,-0.8885,-0.8885,-0.8885,-0.8885,-0.8885,-0.8885,-0.8937,-0.9103,-0.9268,-0.9706,-1.0519,-1.2269,-1.3747,-1.4442,-1.578,-1.6593,-1.6355,-1.6005,-1.5784,-1.5784,-1.5784,-1.5784,-1.5784,-1.5784,-1.5784,-1.5784,-1.5784,-1.5784,-1.5784,-1.5784,-1.5784,-1.5784,-1.5784,-1.5784,-1.5784,-1.5784,-1.5784,0.3579,0.3512,0.3501,0.3383,0.3543,0.3632,0.362,0.4577,0.5536,0.5845,0.6766,0.7564,0.7872,0.8127,0.8359,0.841,0.8696,0.8995,0.9234,0.9416,0.9436,0.9286,0.9372,0.8835,0.7098,0.694,0.5693,0.2732,0.2158,0.1991,0.1995,0.0684,0.0,0.0,0.0,0.0,0.0,0.0,0.0,0.0,0.0,0.0,0.0,0.0,0.0,0.0,0.0,0.0,0.0,0.0,0.0,0.0,-0.0311,-0.0494,-0.0802,-0.2649,-0.4246,-0.5716,-0.7368,-0.8714,-0.9822,-0.9822,-0.9822,-0.9822,-0.9822,-0.9615,-0.9381,-0.9381,-0.9167,-0.8885,-0.8885,-0.8885,-0.8885,-0.8885,-0.8885,-0.8885,-0.8885,-0.8885,-0.8885,-0.8885,-0.8885,-0.8885,-0.8885,-0.9103,-0.9379,-0.9706,-1.1973,-1.3701,-1.4019,-1.5652,-1.6687,-1.64,-1.6039,-1.5784,-1.5784,-1.5784,-1.5784,-1.5784,-1.5784,-1.5784,-1.5784,-1.5784,-1.5784,-1.5784,-1.5784,-1.5784,-1.5784,-1.5784,-1.5784,-1.5784,-1.5784,-1.5784,0.0434,0.0437,0.0436,0.043,0.1315,0.2206,0.2178,0.3178,0.4429,0.5659,0.5968,0.6458,0.7686,0.8051,0.816,0.838,0.8625,0.8872,0.9117,0.944,0.9094,0.7595,0.7591,0.7092,0.5398,0.524,0.447,0.2623,0.1058,0.0225,0.0227,0.0075,0.0,0.0,0.0,0.0,0.0,0.0,0.0,0.0,0.0,0.0,0.0,0.0,0.0,0.0,0.0,0.0,0.0,0.0,0.0,0.0,-0.0062,-0.0432,-0.1111,-0.2526,-0.4244,-0.608,-0.7429,-0.8714,-0.9822,-0.9822,-0.9822,-0.9822,-0.9822,-0.9615,-0.9381,-0.9381,-0.9167,-0.8885,-0.8885,-0.8885,-0.8885,-0.8885,-0.8885,-0.8885,-0.8885,-0.8885,-0.8885,-0.8885,-0.8885,-0.8885,-0.8885,-0.8937,-0.9375,-1.0726,-1.2295,-1.3804,-1.5091,-1.6346,-1.7045,-1.67,-1.6166,-1.5784,-1.5784,-1.5784,-1.5784,-1.5784,-1.5784,-1.5784,-1.5784,-1.5784,-1.5784,-1.5784,-1.5784,-1.5784,-1.5784,-1.5784,-1.5784,-1.5784,-1.5784,-1.5784,0.0,0.0,0.0,0.0,0.0416,0.0804,0.0793,0.1782,0.2895,0.3449,0.4185,0.4858,0.541,0.6286,0.6965,0.7112,0.7918,0.8641,0.8883,0.9101,0.8693,0.7244,0.7251,0.6296,0.3729,0.3502,0.281,0.1132,0.0374,0.0,0.0,0.0,0.0,0.0,0.0,0.0,0.0,0.0,0.0,0.0,0.0,0.0,0.0,0.0,0.0,0.0,0.0,0.0,0.0,0.0,0.0,0.0,0.0,-0.0309,-0.0803,-0.1542,-0.2896,-0.4613,-0.6143,-0.7551,-0.8778,-0.9576,-0.9822,-0.9822,-0.9822,-0.9615,-0.9381,-0.9381,-0.9167,-0.8885,-0.8885,-0.8885,-0.8885,-0.8885,-0.8885,-0.8885,-0.8885,-0.8885,-0.8885,-0.8885,-0.8885,-0.8885,-0.8885,-0.8885,-0.9103,-0.9699,-1.116,-1.2403,-1.2994,-1.4825,-1.5984,-1.5714,-1.5941,-1.6025,-1.5798,-1.5784,-1.5784,-1.5784,-1.5784,-1.5784,-1.5784,-1.5784,-1.5784,-1.5784,-1.5784,-1.5784,-1.5784,-1.5784,-1.5784,-1.5784,-1.5784,-1.5784,0.0,0.0,0.0,0.0,0.0,0.0,0.0,0.0762,0.1542,0.1911,0.271,0.3447,0.3815,0.4775,0.5467,0.564,0.6509,0.7233,0.7505,0.765,0.7143,0.574,0.5764,0.4736,0.2018,0.1727,0.1273,0.0074,0.0,0.0,0.0,0.0,0.0,0.0,0.0,0.0,0.0,0.0,0.0,0.0,0.0,0.0,0.0,0.0,0.0,0.0,0.0,0.0,0.0,0.0,0.0,0.0,0.0,-0.0185,-0.0556,-0.0864,-0.2036,-0.3633,-0.5347,-0.6754,-0.8102,-0.939,-0.9822,-0.9822,-0.9822,-0.9615,-0.9381,-0.9381,-0.9167,-0.8885,-0.8885,-0.8885,-0.8885,-0.8885,-0.8885,-0.8885,-0.8885,-0.8885,-0.8885,-0.8885,-0.8885,-0.8885,-0.8885,-0.8885,-0.8885,-0.8885,-1.0296,-1.1433,-1.1487,-1.3507,-1.4844,-1.4647,-1.5407,-1.5898,-1.5818,-1.5784,-1.5784,-1.5784,-1.5784,-1.5784,-1.5784,-1.5784,-1.5784,-1.5784,-1.5784,-1.5784,-1.5784,-1.5784,-1.5784,-1.5784,-1.5784,-1.5784,0.0,0.0,0.0,0.0,0.0,0.0,0.0,0.0,0.037,0.1727,0.2035,0.2403,0.3692,0.3937,0.3977,0.41,0.4231,0.4378,0.4504,0.4699,0.4189,0.2524,0.2436,0.1894,0.0219,0.0,0.0,0.0,0.0,0.0,0.0,0.0,0.0,0.0,0.0,0.0,0.0,0.0,0.0,0.0,0.0,0.0,0.0,0.0,0.0,0.0,0.0,0.0,0.0,0.0,0.0,0.0,0.0,-0.0185,-0.0556,-0.0864,-0.2036,-0.3633,-0.5347,-0.6754,-0.8102,-0.939,-0.9822,-0.9822,-0.9822,-0.9615,-0.9381,-0.9381,-0.9167,-0.8885,-0.8885,-0.8885,-0.8885,-0.8885,-0.8885,-0.8885,-0.8885,-0.8885,-0.8885,-0.8885,-0.8885,-0.8885,-0.8885,-0.8885,-0.8885,-0.8885,-1.0131,-1.1214,-1.1487,-1.2783,-1.3719,-1.3704,-1.4499,-1.5252,-1.5783,-1.5784,-1.5784,-1.5784,-1.5784,-1.5784,-1.5784,-1.5784,-1.5784,-1.5784,-1.5784,-1.5784,-1.5784,-1.5784,-1.5784,-1.5784,-1.5784,-1.5784,0.0,0.0,0.0,0.0,0.0,0.0,0.0,0.0,0.0123,0.0555,0.0617,0.074,0.1171,0.1972,0.2613,0.2691,0.3552,0.4187,0.4372,0.4424,0.3855,0.2377,0.1363,0.0583,0.0073,0.0,0.0,0.0,0.0,0.0,0.0,0.0,0.0,0.0,0.0,0.0,0.0,0.0,0.0,0.0,0.0,0.0,0.0,0.0,0.0,0.0,0.0,0.0,0.0,0.0,0.0,0.0,0.0,-0.0185,-0.0556,-0.0864,-0.1481,-0.2466,-0.504,-0.6202,-0.6877,-0.9083,-0.9822,-0.9822,-0.9822,-0.9615,-0.934,-0.9133,-0.8956,-0.8885,-0.8885,-0.8885,-0.8885,-0.8885,-0.8885,-0.8885,-0.8885,-0.8885,-0.8885,-0.8885,-0.8885,-0.8885,-0.8885,-0.8885,-0.8885,-0.8885,-0.9482,-0.9974,-1.0029,-1.1492,-1.2759,-1.3335,-1.455,-1.5176,-1.4991,-1.546,-1.5784,-1.5784,-1.5784,-1.5784,-1.5784,-1.5784,-1.5784,-1.5784,-1.5784,-1.5784,-1.5784,-1.5784,-1.5784,-1.5784,-1.5784,-1.5784,0.0,0.0,0.0,0.0,0.0,0.0,0.0,0.0,0.0,0.0,0.0,0.0,0.0,0.0679,0.1246,0.1283,0.1998,0.2602,0.2676,0.2685,0.2303,0.1387,0.0499,0.0,0.0,0.0,0.0,0.0,0.0,0.0,0.0,0.0,0.0,0.0,0.0,0.0,0.0,0.0,0.0,0.0,0.0,0.0,0.0,0.0,0.0,0.0,0.0,0.0,0.0,0.0,0.0,0.0,0.0,-0.0123,-0.037,-0.0679,-0.105,-0.1728,-0.4674,-0.5776,-0.6326,-0.8961,-0.9822,-0.9798,-0.969,-0.9527,-0.932,-0.9022,-0.8885,-0.8885,-0.8885,-0.8885,-0.8885,-0.8885,-0.8885,-0.8885,-0.8885,-0.8885,-0.8885,-0.8885,-0.8885,-0.8885,-0.8885,-0.8885,-0.8885,-0.8885,-0.9103,-0.9268,-0.9379,-1.0355,-1.1448,-1.2559,-1.3836,-1.4619,-1.4622,-1.5431,-1.5945,-1.5791,-1.5784,-1.5784,-1.5784,-1.5784,-1.5784,-1.5784,-1.5784,-1.5784,-1.5784,-1.5784,-1.5784,-1.5784,-1.5784,-1.5784,0.0,0.0,0.0,0.0,0.0,0.0,0.0,0.0,0.0,0.0,0.0,0.0,0.0,0.0,0.0,0.0,0.0,0.0,0.0,0.0,0.0,0.0,0.0,0.0,0.0,0.0,0.0,0.0,0.0,0.0,0.0,0.0,0.0,0.0,0.0,0.0,0.0,0.0,0.0,0.0,0.0,0.0,0.0,0.0,0.0,0.0,0.0,0.0,0.0,0.0,0.0,0.0,0.0,0.0,-0.0062,-0.037,-0.0679,-0.1419,-0.4369,-0.5594,-0.6324,-0.8961,-0.9815,-0.9751,-0.9466,-0.9381,-0.932,-0.9022,-0.8885,-0.8885,-0.8885,-0.8885,-0.8885,-0.8885,-0.8885,-0.8885,-0.8885,-0.8885,-0.8885,-0.8885,-0.8885,-0.8885,-0.8885,-0.8885,-0.8885,-0.8885,-0.8885,-0.8995,-0.9323,-0.9379,-0.9981,-1.1404,-1.2603,-1.3638,-1.4497,-1.5642,-1.6146,-1.5798,-1.5784,-1.5784,-1.5784,-1.5784,-1.5784,-1.5784,-1.5784,-1.5784,-1.5784,-1.5784,-1.5784,-1.5784,-1.5784,-1.5784,0.0,0.0,0.0,0.0,0.0,0.0,0.0,0.0,0.0,0.0,0.0,0.0,0.0,0.0,0.0,0.0,0.0,0.0,0.0,0.0,0.0,0.0,0.0,0.0,0.0,0.0,0.0,0.0,0.0,0.0,0.0,0.0,0.0,0.0,0.0,0.0,0.0,0.0,0.0,0.0,0.0,0.0,0.0,0.0,0.0,0.0,0.0,0.0,0.0,0.0,0.0,0.0,0.0,0.0,-0.0062,-0.037,-0.0556,-0.1049,-0.4306,-0.5471,-0.5961,-0.8839,-0.9747,-0.9625,-0.9439,-0.9381,-0.932,-0.9022,-0.8885,-0.8885,-0.8885,-0.8885,-0.8885,-0.8885,-0.8885,-0.8885,-0.8885,-0.8885,-0.8885,-0.8885,-0.8885,-0.8885,-0.8885,-0.8885,-0.8885,-0.8885,-0.8885,-0.8937,-0.8992,-0.9268,-0.9868,-1.1114,-1.2277,-1.3372,-1.4219,-1.5531,-1.6146,-1.5798,-1.5784,-1.5784,-1.5784,-1.5784,-1.5784,-1.5784,-1.5784,-1.5784,-1.5784,-1.5784,-1.5784,-1.5784,-1.5784,-1.5784,0.0,0.0,0.0,0.0,0.0,0.0,0.0,0.0,0.0,0.0,0.0,0.0,0.0,0.0,0.0,0.0,0.0,0.0,0.0,0.0,0.0,0.0,0.0,0.0,0.0,0.0,0.0,0.0,0.0,0.0,0.0,0.0,0.0,0.0,0.0,0.0,0.0,0.0,0.0,0.0,0.0,0.0,0.0,0.0,0.0,0.0,0.0,0.0,0.0,0.0,0.0,0.0,0.0,0.0,0.0,-0.0185,-0.037,-0.0864,-0.3386,-0.5287,-0.6872,-0.9013,-0.9673,-0.9568,-0.9344,-0.9333,-0.9228,-0.9001,-0.8885,-0.8885,-0.8885,-0.8885,-0.8885,-0.8885,-0.8885,-0.8885,-0.8885,-0.8885,-0.8885,-0.8885,-0.8885,-0.8885,-0.8885,-0.8885,-0.8885,-0.8885,-0.8885,-0.8885,-0.8885,-0.9047,-0.9592,-1.0781,-1.1581,-1.2531,-1.3862,-1.473,-1.5356,-1.5655,-1.5737,-1.5784,-1.5784,-1.5784,-1.5784,-1.5784,-1.5784,-1.5784,-1.5784,-1.5784,-1.5784,-1.5784,-1.5784,-1.5784,0.0,0.0,0.0,0.0,0.0,0.0,0.0,0.0,0.0,0.0,0.0,0.0,0.0,0.0,0.0,0.0,0.0,0.0,0.0,0.0,0.0,0.0,0.0,0.0,0.0,0.0,0.0,0.0,0.0,0.0,0.0,0.0,0.0,0.0,0.0,0.0,0.0,0.0,0.0,0.0,0.0,0.0,0.0,0.0,0.0,0.0,0.0,0.0,0.0,0.0,0.0,0.0,0.0,0.0,0.0,0.0,-0.0185,-0.0679,-0.2341,-0.51,-0.7961,-0.8992,-0.9413,-0.952,-0.9296,-0.9193,-0.9093,-0.8974,-0.8885,-0.8885,-0.8885,-0.8885,-0.8885,-0.8885,-0.8885,-0.8885,-0.8885,-0.8885,-0.8885,-0.8885,-0.8885,-0.8885,-0.8885,-0.8885,-0.8885,-0.8885,-0.8885,-0.8885,-0.8885,-0.8885,-0.9309,-1.0311,-1.063,-1.1492,-1.3201,-1.3618,-1.4229,-1.5369,-1.5642,-1.5784,-1.5784,-1.5784,-1.5784,-1.5784,-1.5784,-1.5784,-1.5784,-1.5784,-1.5784,-1.5784,-1.5784,-1.5784,0.0,0.0,0.0,0.0,0.0,0.0,0.0,0.0,0.0,0.0,0.0,0.0,0.0,0.0,0.0,0.0,0.0,0.0,0.0,0.0,0.0,0.0,0.0,0.0,0.0,0.0,0.0,0.0,0.0,0.0,0.0,0.0,0.0,0.0,0.0,0.0,0.0,0.0,0.0,0.0,0.0,0.0,0.0,0.0,0.0,0.0,0.0,0.0,0.0,0.0,0.0,0.0,0.0,0.0,0.0,0.0,-0.0062,-0.037,-0.228,-0.4977,-0.7527,-0.7842,-0.8626,-0.9384,-0.9262,-0.9066,-0.8967,-0.8888,-0.8885,-0.8885,-0.8885,-0.8885,-0.8885,-0.8885,-0.8885,-0.8885,-0.8885,-0.8885,-0.8885,-0.8885,-0.8885,-0.8885,-0.8885,-0.8885,-0.8885,-0.8885,-0.8885,-0.8885,-0.8885,-0.8885,-0.8944,-0.9024,-0.9761,-1.0621,-1.1654,-1.2675,-1.3798,-1.5083,-1.5404,-1.5635,-1.5778,-1.5784,-1.5784,-1.5784,-1.5784,-1.5784,-1.5784,-1.5784,-1.5784,-1.5784,-1.5784,-1.5784,0.0,0.0,0.0,0.0,0.0,0.0,0.0,0.0,0.0,0.0,0.0,0.0,0.0,0.0,0.0,0.0,0.0,0.0,0.0,0.0,0.0,0.0,0.0,0.0,0.0,0.0,0.0,0.0,0.0,0.0,0.0,0.0,0.0,0.0,0.0,0.0,0.0,0.0,0.0,0.0,0.0,0.0,0.0,0.0,0.0,0.0,0.0,0.0,0.0,0.0,0.0,0.0,0.0,0.0,0.0,0.0,-0.0123,-0.0555,-0.2341,-0.4403,-0.6351,-0.7208,-0.8326,-0.9286,-0.9083,-0.8991,-0.8885,-0.8885,-0.8885,-0.8885,-0.8885,-0.8885,-0.8885,-0.8885,-0.8885,-0.8885,-0.8885,-0.8885,-0.8885,-0.8885,-0.8885,-0.8885,-0.8885,-0.8885,-0.8885,-0.8885,-0.8885,-0.8885,-0.8885,-0.8885,-0.8824,-0.8726,-0.9044,-0.9808,-1.1304,-1.1786,-1.3022,-1.5166,-1.5547,-1.5683,-1.5784,-1.5784,-1.5784,-1.5784,-1.5784,-1.5784,-1.5784,-1.5784,-1.5784,-1.5784,-1.5784,-1.5784,0.0,0.0,0.0,0.0,0.0,0.0,0.0,0.0,0.0,0.0,0.0,0.0,0.0,0.0,0.0,0.0,0.0,0.0,0.0,0.0,0.0,0.0,0.0,0.0,0.0,0.0,0.0,0.0,0.0,0.0,0.0,0.0,0.0,0.0,0.0,0.0,0.0,0.0,0.0,0.0,0.0,0.0,0.0,0.0,0.0,0.0,0.0,0.0,0.0,0.0,0.0,0.0,0.0,0.0,0.0,0.0,-0.0185,-0.0555,-0.1903,-0.3522,-0.5268,-0.6455,-0.7915,-0.9183,-0.8981,-0.8885,-0.8885,-0.8885,-0.8885,-0.8885,-0.8885,-0.8885,-0.8885,-0.8885,-0.8885,-0.8885,-0.8885,-0.8885,-0.8885,-0.8885,-0.8885,-0.8885,-0.8885,-0.8885,-0.8885,-0.8885,-0.8885,-0.8885,-0.8885,-0.8885,-0.8824,-0.8726,-0.8782,-0.9641,-1.1535,-1.1904,-1.2974,-1.5159,-1.5635,-1.5784,-1.5784,-1.5784,-1.5784,-1.5784,-1.5784,-1.5784,-1.5784,-1.5784,-1.5784,-1.5784,-1.5784,-1.5784,0.0,0.0,0.0,0.0,0.0,0.0,0.0,0.0,0.0,0.0,0.0,0.0,0.0,0.0,0.0,0.0,0.0,0.0,0.0,0.0,0.0,0.0,0.0,0.0,0.0,0.0,0.0,0.0,0.0,0.0,0.0,0.0,0.0,0.0,0.0,0.0,0.0,0.0,0.0,0.0,0.0,0.0,0.0,0.0,0.0,0.0,0.0,0.0,0.0,0.0,0.0,0.0,0.0,0.0,0.0,0.0,0.0,-0.0123,-0.0546,-0.2469,-0.4778,-0.5096,-0.6984,-0.9183,-0.8981,-0.8885,-0.8885,-0.8885,-0.8885,-0.8885,-0.8885,-0.8885,-0.8885,-0.8885,-0.8885,-0.8885,-0.8885,-0.8885,-0.8885,-0.8885,-0.8885,-0.8885,-0.8885,-0.8885,-0.8885,-0.8885,-0.8885,-0.8885,-0.8885,-0.8885,-0.8824,-0.8726,-0.9463,-1.071,-1.245,-1.3721,-1.4544,-1.4736,-1.5404,-1.5784,-1.5784,-1.5784,-1.5784,-1.5784,-1.5784,-1.5784,-1.5784,-1.5784,-1.5784,-1.5784,-1.5784,-1.5784,0.0,0.0,0.0,0.0,0.0,0.0,0.0,0.0,0.0,0.0,0.0,0.0,0.0,0.0,0.0,0.0,0.0,0.0,0.0,0.0,0.0,0.0,0.0,0.0,0.0,0.0,0.0,0.0,0.0,0.0,0.0,0.0,0.0,0.0,0.0,0.0,0.0,0.0,0.0,0.0,0.0,0.0,0.0,0.0,0.0,0.0,0.0,0.0,0.0,0.0,0.0,0.0,0.0,0.0,0.0,0.0,0.0,-0.0061,-0.0359,-0.2297,-0.4652,-0.4883,-0.6817,-0.9011,-0.8898,-0.8885,-0.8885,-0.8885,-0.8885,-0.8885,-0.8885,-0.8885,-0.8885,-0.8885,-0.8885,-0.8885,-0.8885,-0.8885,-0.8885,-0.8885,-0.8885,-0.8885,-0.8885,-0.8885,-0.8885,-0.8885,-0.8885,-0.8885,-0.8885,-0.8885,-0.8845,-0.8594,-0.9879,-1.129,-1.2597,-1.395,-1.4688,-1.4688,-1.5124,-1.5458,-1.5594,-1.5588,-1.5683,-1.5784,-1.5784,-1.5784,-1.5784,-1.5784,-1.5784,-1.5784,-1.5784,-1.5784,0.0,0.0,0.0,0.0,0.0,0.0,0.0,0.0,0.0,0.0,0.0,0.0,0.0,0.0,0.0,0.0,-0.0386,-0.0645,-0.0645,-0.0967,-0.1223,-0.1218,-0.0889,-0.063,-0.0627,-0.0248,0.0,0.0,0.0,0.0,0.0,0.0,0.0,0.0,0.0,0.0,0.0,0.0,0.0,0.0,0.0,0.0,0.0,0.0,0.0,0.0,0.0,0.0,0.0,0.0,0.0,0.0,0.0,0.0,0.0,0.0,0.0,-0.006,-0.0235,-0.2141,-0.4515,-0.4779,-0.6705,-0.8885,-0.8885,-0.8885,-0.8885,-0.8885,-0.8885,-0.8885,-0.8885,-0.8885,-0.8885,-0.8885,-0.8885,-0.8885,-0.8885,-0.8885,-0.8885,-0.8885,-0.8885,-0.8885,-0.8885,-0.8885,-0.8885,-0.8885,-0.8885,-0.8885,-0.8885,-0.8885,-0.9036,-0.9448,-1.0575,-1.1786,-1.3082,-1.4052,-1.4592,-1.4592,-1.4742,-1.5029,-1.5356,-1.5445,-1.554,-1.5683,-1.5784,-1.5784,-1.5784,-1.5784,-1.5784,-1.5784,-1.5784,-1.5784,0.0,0.0,0.0,0.0,0.0,0.0,0.0,0.0,0.0,0.0,0.0,0.0,0.0,0.0,0.0,0.0,-0.1149,-0.1995,-0.1995,-0.3088,-0.3901,-0.3907,-0.2769,-0.2003,-0.1976,-0.0802,0.0,0.0,0.0,0.0,0.0,0.0,0.0,0.0,0.0,0.0,0.0,0.0,0.0,0.0,0.0,0.0,0.0,0.0,0.0,0.0,0.0,0.0,0.0,0.0,0.0,0.0,0.0,0.0,0.0,0.0,0.0,0.0,0.0,-0.1948,-0.4505,-0.4494,-0.6478,-0.8885,-0.8885,-0.8885,-0.8885,-0.8885,-0.8885,-0.8885,-0.8885,-0.8885,-0.8885,-0.8885,-0.8885,-0.8885,-0.8885,-0.8885,-0.8885,-0.8885,-0.8885,-0.8885,-0.8885,-0.8885,-0.8885,-0.8885,-0.8885,-0.8885,-0.8885,-0.8881,-0.957,-1.1412,-1.1503,-1.2198,-1.4124,-1.4298,-1.4298,-1.4298,-1.4298,-1.4544,-1.5083,-1.5356,-1.5493,-1.5493,-1.5683,-1.5784,-1.5784,-1.5784,-1.5784,-1.5784,-1.5784,-1.5784,0.0,0.0,0.0,0.0,0.0,0.0,0.0,0.0,0.0,0.0,0.0,0.0,0.0,-0.0745,-0.1428,-0.1428,-0.2489,-0.3306,-0.3306,-0.3679,-0.3922,-0.3904,-0.3592,-0.2969,-0.2097,-0.1665,-0.0987,-0.0062,0.0,0.0,0.0,0.0,0.0,0.0,0.0,0.0,0.0,0.0,0.0,0.0,0.0,0.0,0.0,0.0,0.0,0.0,0.0,0.0,0.0,0.0,0.0,0.0,0.0,0.0,0.0,0.0,0.0,0.0,0.0,-0.1804,-0.4159,-0.4421,-0.6364,-0.8654,-0.8826,-0.8885,-0.8885,-0.8885,-0.8885,-0.8885,-0.8885,-0.8885,-0.8885,-0.8885,-0.8885,-0.8885,-0.8885,-0.8885,-0.8885,-0.8885,-0.8885,-0.8885,-0.8885,-0.8885,-0.8885,-0.8885,-0.8885,-0.8885,-0.8885,-0.875,-0.9368,-1.138,-1.1422,-1.2075,-1.4112,-1.4298,-1.4298,-1.4298,-1.4298,-1.4442,-1.479,-1.4879,-1.5112,-1.5493,-1.554,-1.5642,-1.5784,-1.5784,-1.5784,-1.5784,-1.5784,-1.5784,0.0,0.0,0.0,0.0,0.0,0.0,0.0,0.0,0.0,0.0,0.0,0.0,0.0,-0.1115,-0.1973,-0.1973,-0.351,-0.4676,-0.4676,-0.5165,-0.5471,-0.5471,-0.5042,-0.4369,-0.3633,-0.2588,-0.1665,-0.0864,-0.0309,0.0,0.0,0.0,0.0,0.0,0.0,0.0,0.0,0.0,0.0,0.0,0.0,0.0,0.0,0.0,0.0,0.0,0.0,0.0,0.0,0.0,0.0,0.0,0.0,0.0,0.0,0.0,0.0,0.0,0.0,-0.1735,-0.4021,-0.4246,-0.6195,-0.854,-0.8712,-0.8826,-0.8885,-0.8885,-0.8885,-0.8885,-0.8885,-0.8885,-0.8885,-0.8885,-0.8885,-0.8885,-0.8885,-0.8885,-0.8885,-0.8885,-0.8885,-0.8885,-0.8885,-0.8885,-0.8885,-0.8885,-0.8885,-0.8861,-0.8801,-0.8632,-0.9287,-1.1313,-1.1319,-1.2047,-1.41,-1.4298,-1.4298,-1.4298,-1.4298,-1.4394,-1.4544,-1.464,-1.4831,-1.5166,-1.5309,-1.5452,-1.5683,-1.5683,-1.5737,-1.5784,-1.5784,-1.5784,0.0,0.0,0.0,0.0,0.0,0.0,0.0,0.0,0.0,0.0,0.0,-0.0063,-0.0189,-0.1245,-0.2219,-0.2342,-0.4432,-0.609,-0.609,-0.7133,-0.7872,-0.7872,-0.6827,-0.6029,-0.5906,-0.3633,-0.2096,-0.2035,-0.074,0.0,0.0,0.0,0.0,0.0,0.0,0.0,0.0,0.0,0.0,0.0,0.0,0.0,0.0,0.0,0.0,0.0,0.0,0.0,0.0,0.0,0.0,0.0,0.0,0.0,0.0,0.0,0.0,0.0,0.0,-0.1735,-0.3967,-0.3965,-0.6028,-0.8429,-0.8484,-0.8657,-0.8881,-0.8881,-0.8885,-0.8885,-0.8885,-0.8885,-0.8885,-0.8885,-0.8885,-0.8885,-0.8885,-0.8885,-0.8885,-0.8885,-0.8885,-0.8885,-0.8885,-0.8885,-0.8885,-0.8885,-0.8885,-0.8828,-0.873,-0.8577,-0.9198,-1.1056,-1.1199,-1.1999,-1.4004,-1.4244,-1.4298,-1.4298,-1.4298,-1.4298,-1.4298,-1.4544,-1.4694,-1.4688,-1.4933,-1.522,-1.5493,-1.5493,-1.5588,-1.5784,-1.5784,-1.5784,0.0,0.0,0.0,0.0,0.0,0.0,0.0,0.0,0.0,0.0,0.0,-0.0315,-0.1367,-0.2592,-0.3816,-0.4862,-0.6396,-0.7441,-0.7441,-0.7747,-0.7872,-0.7872,-0.7625,-0.7072,-0.6029,-0.443,-0.3078,-0.2096,-0.074,0.0,0.0,0.0,0.0,0.0,0.0,0.0,0.0,0.0,0.0,0.0,0.0,0.0,0.0,0.0,0.0,0.0,0.0,0.0,0.0,0.0,0.0,0.0,0.0,0.0,0.0,0.0,0.0,0.0,0.0,-0.1623,-0.3747,-0.3911,-0.5697,-0.7881,-0.8374,-0.854,-0.8654,-0.8826,-0.8885,-0.8885,-0.8885,-0.8885,-0.8885,-0.8885,-0.8885,-0.8885,-0.8885,-0.8885,-0.8885,-0.8885,-0.8885,-0.8885,-0.8885,-0.8885,-0.8885,-0.8885,-0.8885,-0.8828,-0.873,-0.8577,-0.8942,-1.0048,-1.0758,-1.1707,-1.2926,-1.3806,-1.4298,-1.4298,-1.4298,-1.4298,-1.4298,-1.4346,-1.449,-1.4688,-1.4742,-1.5022,-1.5493,-1.5493,-1.5588,-1.5784,-1.5784,-1.5784,0.0,0.0,0.0,0.0,0.0,0.0,0.0,0.0,0.0,0.0,0.0,-0.0436,-0.1729,-0.3017,-0.4367,-0.5661,-0.7011,-0.7872,-0.7872,-0.7872,-0.7872,-0.7872,-0.7872,-0.7625,-0.695,-0.5657,-0.4307,-0.3018,-0.1726,-0.0677,-0.0061,0.0,0.0,0.0,0.0,0.0,0.0,0.0,0.0,0.0,0.0,0.0,0.0,0.0,0.0,0.0,0.0,0.0,0.0,0.0,0.0,0.0,0.0,0.0,0.0,0.0,0.0,0.0,0.0,-0.1567,-0.3635,-0.3745,-0.5534,-0.7662,-0.81,-0.8377,-0.8543,-0.8826,-0.8885,-0.8885,-0.8885,-0.8885,-0.8885,-0.8885,-0.8885,-0.8885,-0.8885,-0.8885,-0.8885,-0.8885,-0.8885,-0.8885,-0.8885,-0.8885,-0.8885,-0.8885,-0.8821,-0.8774,-0.8621,-0.8472,-0.8731,-0.962,-1.0156,-1.0828,-1.1901,-1.2926,-1.3511,-1.3511,-1.4004,-1.4298,-1.4298,-1.4298,-1.4394,-1.4496,-1.4496,-1.4783,-1.5315,-1.5315,-1.5499,-1.5784,-1.5784,-1.5784,0.0,0.0,0.0,0.0,0.0,0.0,0.0,0.0,0.0,0.0,0.0,-0.0494,-0.2034,-0.3194,-0.4412,-0.5945,-0.7152,-0.7809,-0.7809,-0.7809,-0.7809,-0.7809,-0.7809,-0.7809,-0.7809,-0.6591,-0.531,-0.3967,0.0,-0.1399,-0.006,0.0,0.0,0.0,0.0,0.0118,0.0294,0.0294,0.0294,0.0294,0.0117,0.0,0.0,0.0,0.0,0.0,0.0,0.0,0.0,0.0,0.0,0.0,0.0,0.0,0.0,0.0,0.0,0.0,0.0,-0.1456,-0.3301,-0.3525,-0.5256,-0.7326,-0.7768,-0.8156,-0.8484,-0.8768,-0.8881,-0.8885,-0.8885,-0.8885,-0.8885,-0.8885,-0.8885,-0.8885,-0.8885,-0.8885,-0.8885,-0.8885,-0.8885,-0.8885,-0.8885,-0.8861,-0.8844,-0.8844,-0.8767,-0.8615,-0.8465,-0.8395,-0.8563,-0.9236,-0.9509,-1.0047,-1.1121,-1.2145,-1.278,-1.2974,-1.3806,-1.4298,-1.4298,-1.4298,-1.4298,-1.4298,-1.4298,-1.4544,-1.5035,-1.5035,-1.5267,-1.5737,-1.5737,-1.5784,0.0,0.0,0.0,0.0,0.0,0.0,0.0,0.0,0.0,0.0,0.0,-0.074,-0.32,-0.3712,-0.4642,-0.706,-0.7517,-0.7565,-0.7565,-0.7565,-0.7565,-0.7565,-0.7565,-0.7565,-0.7565,-0.6321,-0.5081,-0.3903,-0.2603,-0.1301,-0.0059,0.0,0.0,0.0,0.0,0.053,0.1529,0.1588,0.1588,0.1529,0.0522,0.0,0.0,0.0,0.0,0.0,0.0,0.0,0.0,0.0,0.0,0.0,0.0,0.0,0.0,0.0,0.0,0.0,0.0,-0.0896,-0.2239,-0.3245,-0.4531,-0.5929,-0.7268,-0.7826,-0.8156,-0.8488,-0.8712,-0.8885,-0.8885,-0.8885,-0.8885,-0.8885,-0.8885,-0.8885,-0.8885,-0.8885,-0.8885,-0.8885,-0.8885,-0.8885,-0.8885,-0.8828,-0.874,-0.874,-0.8611,-0.8462,-0.8368,-0.8333,-0.8262,-0.8201,-0.9069,-1.0047,-1.1121,-1.2145,-1.3119,-1.4052,-1.4202,-1.4298,-1.4298,-1.4298,-1.4298,-1.4298,-1.4298,-1.4442,-1.4742,-1.4742,-1.5022,-1.554,-1.554,-1.5635,0.0,0.0,0.0,0.0,0.0,0.0,0.0,0.0,0.0,0.0,0.0,-0.079,-0.3365,-0.3818,-0.4629,-0.7182,-0.7554,-0.7519,-0.7519,-0.7519,-0.7519,-0.7519,-0.7519,-0.7519,-0.7519,-0.6341,-0.5108,-0.3879,-0.2646,-0.1348,-0.0058,0.0,0.0,0.0,0.0,0.0573,0.1774,0.1774,0.1774,0.1774,0.125,0.0677,0.0,0.0,0.0,0.0,0.0,0.0,0.0,0.0,0.0,0.0,0.0,0.0,0.0,0.0,0.0,0.0,0.0,-0.0784,-0.2015,-0.3189,-0.4419,-0.565,-0.716,-0.7662,-0.7826,-0.8156,-0.8432,-0.8657,-0.8657,-0.8771,-0.8885,-0.8885,-0.8885,-0.8885,-0.8885,-0.8885,-0.8885,-0.8885,-0.8885,-0.8854,-0.8825,-0.8754,-0.8679,-0.8598,-0.8459,-0.8391,-0.833,-0.8194,-0.8113,-0.7995,-0.8432,-0.8874,-0.9361,-1.0925,-1.2047,-1.2538,-1.3661,-1.4298,-1.4298,-1.4298,-1.4298,-1.4298,-1.4298,-1.4442,-1.4688,-1.4688,-1.4885,-1.5261,-1.5141,-1.5241,0.0,0.0,0.0,0.0,0.0,0.0,0.0,0.0,0.0,0.0,-0.024,-0.1131,-0.3322,-0.3729,-0.4555,-0.7064,-0.7445,-0.7426,-0.7426,-0.7426,-0.7426,-0.7426,-0.7426,-0.7426,-0.7426,-0.6323,-0.5105,-0.3831,-0.2613,-0.1387,-0.0057,0.0,0.0,0.0,0.0,0.0728,0.2239,0.2574,0.2574,0.2239,0.1959,0.1176,0.0,0.0,0.0,0.0,0.0,0.0,0.0,0.0,0.0,0.0,0.0,0.0,0.0,0.0,0.0,0.0,0.0,-0.0616,-0.1567,-0.3134,-0.4196,-0.5258,-0.699,-0.7551,-0.7662,-0.7826,-0.8211,-0.8484,-0.8484,-0.8712,-0.8885,-0.8885,-0.8885,-0.8885,-0.8885,-0.8885,-0.8885,-0.8885,-0.8851,-0.8845,-0.873,-0.8648,-0.856,-0.8445,-0.8306,-0.8211,-0.8211,-0.8109,-0.7988,-0.7988,-0.7988,-0.8088,-0.8382,-1.0096,-1.1317,-1.156,-1.327,-1.4298,-1.4298,-1.4298,-1.4298,-1.4298,-1.4298,-1.4394,-1.4592,-1.4592,-1.4704,-1.4874,-1.4699,-1.4852,0.0,0.0,0.0,0.0,0.0,0.0,0.0,0.0,0.0,0.0,-0.0884,-0.2099,-0.3386,-0.3636,-0.4421,-0.6886,-0.7247,-0.7229,-0.7229,-0.7229,-0.7229,-0.7229,-0.7229,-0.7229,-0.7229,-0.6112,-0.4936,-0.3702,-0.2469,-0.1291,-0.0056,0.0,0.0,0.0,0.0,0.112,0.3469,0.4643,0.4643,0.3469,0.2351,0.1176,0.0,0.0,0.0,0.0,0.0,0.0,0.0,0.0,0.0,0.0,0.0,0.0,0.0,0.0,0.0,0.0,0.0,-0.0056,-0.0504,-0.2854,-0.3636,-0.4139,-0.6482,-0.7379,-0.7607,-0.7607,-0.8045,-0.8484,-0.8484,-0.8712,-0.8885,-0.8885,-0.8885,-0.8885,-0.8885,-0.8885,-0.8885,-0.8885,-0.8821,-0.872,-0.8713,-0.8479,-0.834,-0.8333,-0.815,-0.8002,-0.8002,-0.7995,-0.7988,-0.7988,-0.7988,-0.8432,-0.941,-1.0534,-1.1609,-1.2581,-1.3661,-1.4298,-1.4298,-1.4298,-1.4298,-1.4298,-1.4298,-1.4298,-1.4346,-1.4346,-1.4314,-1.4356,-1.4344,-1.4471,0.0,0.0,0.0,0.0,0.0,0.0,0.0,0.0,0.0,0.0,-0.0985,-0.2185,-0.3371,-0.4217,-0.5304,-0.6937,-0.7237,-0.721,-0.721,-0.721,-0.721,-0.721,-0.721,-0.721,-0.721,-0.5423,-0.4083,-0.3636,0.0,-0.0448,0.0,0.0,0.0,0.0,0.0,0.1176,0.358,0.559,0.5534,0.358,0.3188,0.1903,0.0,0.0,0.0,0.0,0.0,0.0,0.0,0.0,0.0,0.0,0.0,0.0,0.0,0.0,0.0,0.0,0.0,0.0,-0.028,-0.1903,-0.2966,-0.3916,-0.5536,-0.6654,-0.7324,-0.7324,-0.7604,-0.7937,-0.8156,-0.8432,-0.8712,-0.8881,-0.8885,-0.8885,-0.8885,-0.8807,-0.8794,-0.8794,-0.8669,-0.8533,-0.8442,-0.834,-0.8238,-0.8136,-0.8025,-0.7988,-0.7988,-0.7988,-0.7988,-0.7988,-0.7988,-0.8137,-0.8528,-0.9558,-1.0632,-1.1658,-1.2684,-1.3559,-1.425,-1.4298,-1.4298,-1.4298,-1.4298,-1.4298,-1.4298,-1.4298,-1.4298,-1.4296,-1.4125,-1.4278,0.0,0.0,0.0,0.0,0.0,0.0,0.0,0.0,0.0,0.0,-0.1263,-0.2626,-0.3479,-0.4921,-0.6262,-0.7099,-0.721,-0.721,-0.721,-0.7245,-0.7201,-0.7215,-0.7245,-0.7198,-0.7215,-0.5031,-0.358,0.0,0.0,0.0,0.0,0.0,0.0,0.0,0.0784,0.1959,0.358,0.559,0.559,0.358,0.3189,0.1959,0.0,0.0,0.0,0.0,0.0,0.0,0.0,0.0,0.0,0.0,0.0,0.0,0.0,0.0,0.0,0.0,0.0,0.0,-0.0224,-0.14,-0.2629,-0.3804,-0.5035,-0.6262,-0.721,-0.721,-0.7379,-0.7662,-0.7826,-0.8156,-0.854,-0.8712,-0.8826,-0.8868,-0.8817,-0.8781,-0.871,-0.871,-0.855,-0.8381,-0.8337,-0.8228,-0.816,-0.8005,-0.7988,-0.7988,-0.7988,-0.7988,-0.7988,-0.7988,-0.7988,-0.7988,-0.7988,-0.897,-1.0047,-1.1121,-1.2145,-1.3167,-1.425,-1.4298,-1.4298,-1.4298,-1.4298,-1.4298,-1.4298,-1.4298,-1.425,-1.4159,-1.3984,-1.4096,0.0,0.0,0.0,0.0,0.0,0.0,0.0,0.0,-0.0056,0.0,-0.1892,-0.359,-0.3591,-0.5534,-0.7154,-0.721,-0.721,-0.721,-0.721,-0.7258,-0.7293,-0.7229,-0.7269,-0.7293,-0.7226,-0.5035,-0.3582,0.0,-0.1344,0.0,0.0,0.0,0.0,0.0,0.2351,0.358,0.358,0.481,0.481,0.358,0.2351,0.1176,0.0,0.0,0.0,0.0,0.0,0.0,0.0,0.0,0.0,0.0,0.0,0.0,0.0,0.0,0.0,0.0,0.0,0.0,-0.0168,-0.1344,-0.2574,-0.3804,-0.4979,-0.6207,-0.721,-0.721,-0.7379,-0.7607,-0.7607,-0.8045,-0.8484,-0.8484,-0.8712,-0.8841,-0.8743,-0.8706,-0.8703,-0.8699,-0.8462,-0.8313,-0.8313,-0.814,-0.7988,-0.7988,-0.7988,-0.7988,-0.7988,-0.7988,-0.7988,-0.7988,-0.7988,-0.7988,-0.7988,-0.897,-0.9998,-1.1072,-1.2096,-1.3119,-1.4196,-1.4292,-1.4298,-1.4298,-1.4298,-1.4298,-1.4298,-1.4298,-1.4165,-1.3918,-1.3918,-1.3912,0.0,0.0,0.0,0.0,0.0,0.0,0.0,-0.0586,-0.0923,-0.0166,-0.1828,-0.3492,-0.3575,-0.4866,-0.6207,-0.7043,-0.721,-0.721,-0.721,-0.7258,-0.7266,-0.729,-0.7394,-0.7421,-0.7296,-0.5123,0.0,0.0,-0.1344,0.0,0.0,0.0,0.0,0.0,0.2351,0.358,0.358,0.481,0.481,0.358,0.2351,0.1176,0.0,0.0,0.0,0.0,0.0,0.0,0.0,0.0,0.0,0.0,0.0,0.0,0.0,0.0,0.0,0.0,0.0,0.0,-0.0056,-0.0392,-0.1903,-0.3636,-0.3971,-0.5534,-0.721,-0.721,-0.7265,-0.7379,-0.7551,-0.7881,-0.8211,-0.8429,-0.8543,-0.8614,-0.8689,-0.8621,-0.8516,-0.8411,-0.8235,-0.8102,-0.8102,-0.8019,-0.7988,-0.7988,-0.7988,-0.7988,-0.7988,-0.7988,-0.7988,-0.7988,-0.7988,-0.7988,-0.7988,-0.8283,-0.892,-0.9998,-1.1023,-1.2047,-1.3119,-1.3902,-1.4298,-1.4298,-1.4298,-1.4298,-1.4298,-1.4298,-1.4262,-1.4189,-1.4189,-1.4087,0.0,0.0,0.0,0.0,0.0,0.0,0.0,-0.0467,-0.0735,-0.0108,-0.1459,-0.2766,-0.2815,-0.4262,-0.5603,-0.6311,-0.6877,-0.721,-0.721,-0.7304,-0.7336,-0.7285,-0.7489,-0.7546,-0.7423,-0.5213,-0.3741,-0.3679,-0.1415,0.0,0.0,0.0,0.0,0.0,0.1847,0.2854,0.2854,0.3525,0.3525,0.2854,0.1623,0.0672,0.0,0.0,0.0,0.0,0.0,0.0,0.0,0.0,0.0,0.0,0.0,0.0,0.0,0.0,0.0,0.0,0.0,0.0,0.0,0.0,-0.1623,-0.358,-0.358,-0.531,-0.721,-0.721,-0.721,-0.721,-0.7379,-0.766,-0.7881,-0.81,-0.8322,-0.8485,-0.8448,-0.8441,-0.8438,-0.835,-0.8147,-0.7988,-0.7988,-0.7988,-0.7988,-0.7988,-0.7988,-0.7988,-0.7988,-0.7988,-0.7988,-0.7988,-0.7988,-0.7988,-0.7988,-0.7988,-0.8482,-0.9509,-1.0587,-1.1658,-1.2678,-1.3709,-1.4298,-1.4298,-1.4298,-1.4298,-1.4298,-1.4298,-1.4298,-1.4298,-1.4298,-1.4214,0.0,0.0,0.0,0.0,0.0,0.0,0.0,-0.0103,-0.0153,0.0,-0.0955,-0.1812,-0.1952,-0.3751,-0.5247,-0.5494,-0.646,-0.7196,-0.721,-0.7353,-0.7462,-0.7309,-0.7562,-0.7598,-0.7311,-0.5182,-0.3744,-0.3561,-0.1376,0.0,0.0,0.0,0.0,0.0,0.1176,0.1791,0.1791,0.1791,0.1791,0.1791,0.056,0.0,0.0,0.0,0.0,0.0,0.0,0.0,0.0,0.0,0.0,0.0,0.0,0.0,0.0,0.0,0.0,0.0,0.0,0.0,0.0,0.0,-0.1567,-0.3413,-0.358,-0.5198,-0.7043,-0.7154,-0.721,-0.721,-0.721,-0.7379,-0.7551,-0.7607,-0.8045,-0.8352,-0.8123,-0.8272,-0.8435,-0.8275,-0.8133,-0.7988,-0.7988,-0.7988,-0.7988,-0.7988,-0.7988,-0.7988,-0.7988,-0.7988,-0.7988,-0.7988,-0.7988,-0.7988,-0.7988,-0.7988,-0.8382,-0.9361,-1.044,-1.1463,-1.2484,-1.3565,-1.4196,-1.4298,-1.4298,-1.4298,-1.4298,-1.4298,-1.4298,-1.4298,-1.4298,-1.4298,0.0,0.0,0.0,0.0,0.0,0.0,0.0,-0.066,-0.1034,-0.0156,-0.0886,-0.1937,-0.2927,-0.3469,-0.4381,-0.6224,-0.6791,-0.7051,-0.7196,-0.7279,-0.7342,-0.7472,-0.7614,-0.7269,-0.6164,-0.4727,-0.343,-0.23,-0.0851,0.0,0.0,0.0,0.0,0.0,0.1176,0.1791,0.1791,0.1791,0.1791,0.1791,0.056,0.0,0.0,0.0,0.0,0.0,0.0,0.0,0.0,0.0,0.0,0.0,0.0,0.0,0.0,0.0,0.0,0.0,0.0,0.0,0.0,0.0,-0.0953,-0.2351,-0.3301,-0.4585,-0.5929,-0.6932,-0.721,-0.721,-0.721,-0.7265,-0.7379,-0.7823,-0.7989,-0.8133,-0.8335,-0.843,-0.8401,-0.8136,-0.8012,-0.7988,-0.7988,-0.7988,-0.7988,-0.7988,-0.7988,-0.7988,-0.7988,-0.7988,-0.7988,-0.7988,-0.7988,-0.7988,-0.7988,-0.7988,-0.8088,-0.8287,-0.9312,-1.0391,-1.1463,-1.2484,-1.3414,-1.4292,-1.4298,-1.4298,-1.4298,-1.4298,-1.4298,-1.4298,-1.4298,-1.4298,0.0,0.0,0.0,0.0,0.0,0.0,0.0,-0.0404,-0.066,-0.0103,-0.0409,-0.0967,-0.1567,-0.2655,-0.3788,-0.4918,-0.6119,-0.6912,-0.6972,-0.7184,-0.7301,-0.7421,-0.7003,-0.6416,-0.5761,-0.404,-0.2356,-0.0978,-0.034,0.0,0.0,0.0,0.0,0.0,0.056,0.0896,0.0896,0.0896,0.0896,0.0896,0.028,0.0,0.0,0.0,0.0,0.0,0.0,0.0,0.0,0.0,0.0,0.0,0.0,0.0,0.0,0.0,0.0,0.0,0.0,0.0,0.0,0.0,-0.084,-0.2015,-0.3245,-0.4866,-0.6429,-0.7043,-0.721,-0.721,-0.721,-0.721,-0.7321,-0.7715,-0.7878,-0.8026,-0.8229,-0.8377,-0.8394,-0.8049,-0.7988,-0.7988,-0.7988,-0.7988,-0.7988,-0.7988,-0.7988,-0.7988,-0.7988,-0.7988,-0.7988,-0.7988,-0.7988,-0.7988,-0.7988,-0.7988,-0.7988,-0.7988,-0.9019,-0.985,-1.0391,-1.1901,-1.3216,-1.4298,-1.4298,-1.4298,-1.4298,-1.4298,-1.4298,-1.4298,-1.4298,-1.4298,0.0,0.0,0.0,0.0,0.0,0.0,0.0,0.0,0.0,0.0,0.0,-0.005,-0.0257,-0.1828,0.0,-0.3333,0.0,0.0,0.0,-0.6871,0.0,-0.7266,-0.6279,0.0,-0.5315,-0.3091,-0.1161,-0.0058,0.0,0.0,0.0,0.0,0.0,0.0,0.0,0.0,0.0,0.0,0.0,0.0,0.0,0.0,0.0,0.0,0.0,0.0,0.0,0.0,0.0,0.0,0.0,0.0,0.0,0.0,0.0,0.0,0.0,0.0,0.0,0.0,0.0,0.0,-0.0834,-0.2007,-0.3242,-0.5142,-0.6874,-0.7154,-0.721,-0.721,-0.721,-0.721,-0.7268,-0.7549,-0.7826,-0.8032,-0.8056,-0.8315,-0.8445,-0.8177,-0.8052,-0.8025,-0.7995,-0.7988,-0.7988,-0.7988,-0.7988,-0.7988,-0.7988,-0.7988,-0.7988,-0.7988,-0.7988,-0.7988,-0.7988,-0.7988,-0.7988,-0.7988,-0.8825,-0.9361,-0.9608,-1.1604,-1.3119,-1.3956,-1.4202,-1.4298,-1.4298,-1.4298,-1.4298,-1.4298,-1.4298,-1.4298,0.0056,0.0,0.0,0.0,0.0,0.0,0.0,0.0,0.0,0.0,0.0,-0.0302,-0.1264,0.0,0.0,-0.3073,0.0,0.0,-0.5225,-0.6132,-0.6904,-0.7013,-0.607,0.0,0.0,-0.1647,-0.017,0.0,0.0,0.0,0.0,0.0,0.0,0.0,0.0,0.0,0.0,0.0,0.0,0.0,0.0,0.0,0.0,0.0,0.0,0.0,0.0,0.0,0.0,0.0,0.0,0.0,0.0,0.0,0.0,0.0,0.0,0.0,0.0,0.0,0.0,0.0,-0.0812,-0.203,-0.323,-0.4531,-0.5817,-0.6874,-0.721,-0.721,-0.721,-0.721,-0.7268,-0.7549,-0.7826,-0.806,-0.8237,-0.8471,-0.8635,-0.8465,-0.833,-0.8201,-0.8012,-0.7988,-0.7988,-0.7988,-0.7988,-0.7988,-0.7988,-0.7988,-0.7988,-0.7988,-0.7988,-0.7988,-0.7988,-0.7988,-0.7988,-0.7988,-0.8137,-0.8627,-0.9558,-1.1604,-1.278,-1.2877,-1.3806,-1.4298,-1.4298,-1.4298,-1.4298,-1.4298,-1.4298,-1.4298,0.028,0.0224,0.0167,0.0054,0.0108,0.0214,0.0052,0.0,0.0,0.0,0.0,0.0,0.0,0.0,0.0,0.0,-0.3225,0.0,0.0,0.0,-0.5935,0.0,0.0,0.0,0.0,0.0,0.0,0.0,0.0,0.0,0.0,0.0,0.0,0.0,0.0,0.0,0.0,0.0,0.0,0.0,0.0,0.0,0.0,0.0,0.0,0.0,0.0,0.0,0.0,0.0,0.0,0.0,0.0,0.0,0.0,0.0,0.0,0.0,0.0,0.0,0.0,0.0,-0.0815,-0.2025,-0.3228,-0.4419,-0.565,-0.6877,-0.721,-0.721,-0.721,-0.721,-0.7268,-0.7549,-0.7662,-0.7846,-0.8205,-0.8393,-0.8454,-0.8513,-0.8367,-0.8248,-0.8184,-0.8099,-0.7988,-0.7988,-0.7988,-0.7988,-0.7988,-0.7988,-0.7988,-0.7988,-0.7988,-0.7988,-0.7988,-0.7988,-0.7988,-0.7988,-0.7988,-0.8482,-0.9558,-1.0435,-1.1463,-1.2684,-1.3119,-1.3661,-1.4298,-1.4298,-1.4298,-1.4298,-1.4298,-1.4298,0.0561,0.0561,0.0446,0.0164,0.0269,0.0318,0.0051,0.0,0.0,0.0,0.0,0.0,0.0,0.0,-0.1154,-0.116,0.0,-0.3054,0.0,-0.418,0.0,0.0,0.0,0.0,0.0,0.0,0.0,0.0,0.0,0.0,0.0,0.0,0.0,0.0,0.0,0.0,0.0,0.0,0.0,0.0,0.0,0.0,0.0,0.0,0.0,0.0,0.0,0.0,0.0,0.0,0.0,0.0,0.0,0.0,0.0,0.0,0.0,0.0,0.0,0.0,0.0,0.0,-0.0597,-0.1577,-0.3151,-0.4236,-0.5202,-0.6763,-0.721,-0.721,-0.721,-0.721,-0.7265,-0.7438,-0.7551,-0.7692,-0.8035,-0.8176,-0.8253,-0.8465,-0.8384,-0.8325,-0.8336,-0.8167,-0.7988,-0.7988,-0.7988,-0.7988,-0.7988,-0.7988,-0.7988,-0.7988,-0.7988,-0.7988,-0.7988,-0.7988,-0.7988,-0.7988,-0.7988,-0.8333,-0.9118,-0.9706,-1.073,-1.2242,-1.2829,-1.3511,-1.4298,-1.4298,-1.4298,-1.4298,-1.4298,-1.4298,0.0,0.0,0.0,0.0485,0.0,0.0316,0.005,0.0,0.0,0.0,0.0,0.0,0.0,-0.005,-0.0049,-0.005,-0.0943,0.0,0.0,-0.262,0.0,0.0,0.0,0.0,0.0,0.0,0.0,0.0,0.0,0.0,0.0,0.0,0.0,0.0,0.0,0.0,0.0,0.0,0.0,0.0,0.0,0.0,0.0,0.0,0.0,0.0,0.0,0.0,0.0,0.0,0.0,0.0,0.0,0.0,0.0,0.0,0.0,0.0,0.0,0.0,0.0,0.0,0.0,-0.0482,-0.2879,-0.3644,-0.4139,-0.6538,-0.721,-0.721,-0.721,-0.721,-0.721,-0.721,-0.7438,-0.7604,-0.7601,-0.782,-0.8091,-0.8416,-0.8416,-0.8331,-0.845,-0.8231,-0.7988,-0.7988,-0.7988,-0.7988,-0.7988,-0.7988,-0.7988,-0.7988,-0.7988,-0.7988,-0.7988,-0.7988,-0.7988,-0.7988,-0.7988,-0.8041,-0.8038,-1.0047,-1.117,-1.1268,-1.3221,-1.425,-1.4298,-1.4298,-1.4298,-1.4298,-1.4298,-1.4298,0.0,0.0,0.1115,0.0818,0.0,0.0,0.0,0.0,0.0202,0.0049,0.0,0.0,0.0,0.0,0.0,0.0,-0.0299,-0.0801,0.0,-0.2519,0.0,-0.3222,-0.3224,-0.2337,-0.0209,0.0,0.0,0.0,0.0,0.0,0.0,0.0,0.0,0.0,0.0,0.0,0.0,0.0,0.0,0.0,0.0,0.0,0.0,0.0,0.0,0.0,0.0,0.0,0.0,0.0,0.0,0.0,0.0,0.0,0.0,0.0,0.0,0.0,0.0,0.0,0.0,0.0,-0.0533,-0.1498,-0.3135,-0.4177,-0.5144,-0.6763,-0.721,-0.721,-0.721,-0.721,-0.721,-0.721,-0.7268,-0.7379,-0.7551,-0.766,-0.7826,-0.81,-0.8214,-0.8322,-0.8378,-0.8287,-0.8157,-0.8005,-0.7988,-0.7988,-0.7988,-0.7988,-0.7988,-0.7988,-0.7988,-0.7988,-0.7988,-0.7988,-0.7988,-0.7988,-0.7988,-0.7988,-0.7988,-0.9365,-1.0489,-1.117,-1.2538,-1.3613,-1.4298,-1.4298,-1.4298,-1.4298,-1.4298,-1.4298,0.1458,0.1458,0.0,0.1098,0.1183,0.0,0.0712,0.0,0.051,0.0,0.03,0.0304,0.0299,0.0199,0.0149,0.015,0.005,-0.0252,0.0,-0.1966,-0.2217,-0.116,-0.1987,-0.195,-0.0154,0.0,0.0,0.0,0.0,0.0,0.0,0.0,0.0,0.0,0.0,0.0,0.0,0.0,0.0,0.0,0.0,0.0,0.0,0.0,0.0,0.0,0.0,0.0,0.0,0.0,0.0,0.0,0.0,0.0,0.0,0.0,0.0,0.0,0.0,0.0,0.0,0.0,-0.079,-0.2028,-0.3219,-0.4433,-0.565,-0.6877,-0.721,-0.721,-0.721,-0.721,-0.721,-0.721,-0.721,-0.7265,-0.7438,-0.7438,-0.7549,-0.7826,-0.7978,-0.8071,-0.8126,-0.8236,-0.8253,-0.8103,-0.8025,-0.7988,-0.7988,-0.7988,-0.7988,-0.7988,-0.7988,-0.7988,-0.7988,-0.7988,-0.7988,-0.7988,-0.7988,-0.7988,-0.7988,-0.9019,-1.0096,-1.1175,-1.2193,-1.3221,-1.4298,-1.4298,-1.4298,-1.4298,-1.4298,-1.4298]}]]